GFSWCAN_sfc_dewp_000.txt.gz
Dewpoint
55 55 54 53 52 51 51 52 52 52 52 52 52 53 53 54 52 51 48 48 46 42 41 42 41 35 35 34 34 33 35 34 33 32 33 31 31 29 28 29 30 28 27 27 27 25 23 33 35 31 32 36 34 34
55 54 53 52 52 51 51 51 51 51 51 51 52 53 53 54 53 52 47 48 48 46 44 46 45 44 40 41 36 34 37 34 35 34 33 32 30 29 28 28 30 29 32 31 30 28 33 34 34 34 35 33 33 35
53 54 53 51 51 51 50 50 50 50 51 51 51 52 53 54 53 52 47 47 47 44 44 44 44 45 44 43 41 37 37 37 39 40 36 35 32 32 29 29 29 32 34 32 32 33 34 33 34 34 35 34 34 34
53 53 52 51 51 50 49 49 48 50 50 50 50 51 52 53 53 52 50 49 49 45 41 43 45 44 46 46 44 41 40 42 43 43 40 38 37 36 34 33 32 32 34 34 33 34 34 34 34 35 35 35 35 35
53 52 51 50 50 50 49 49 48 49 50 50 51 52 52 53 53 52 51 51 52 46 42 43 45 44 44 46 43 43 42 41 40 39 38 37 40 38 35 34 34 35 34 32 31 34 34 34 35 36 35 35 35 34
52 51 50 50 50 49 49 49 48 48 49 50 50 51 52 53 53 51 46 50 52 51 43 35 44 41 44 46 45 44 44 43 42 40 39 40 41 36 33 32 34 35 37 35 34 35 34 35 35 34 34 34 34 34
51 51 50 50 50 50 49 49 48 49 49 49 50 51 52 51 49 46 43 47 50 51 42 37 39 41 42 44 44 44 44 43 42 41 39 39 38 37 34 32 34 35 36 35 34 35 34 35 34 34 34 35 36 36
50 50 50 50 50 49 49 48 48 48 48 50 50 51 50 49 48 45 46 48 50 46 43 34 36 38 41 41 40 44 42 42 42 40 40 39 39 38 34 34 33 35 34 35 35 35 34 33 33 34 35 34 33 32
44 48 50 50 49 49 49 49 48 48 48 50 51 50 47 45 43 44 46 48 48 44 38 37 34 33 40 40 41 40 41 37 42 39 38 38 36 34 34 34 34 35 33 34 33 30 29 32 31 33 33 33 33 32
42 43 46 48 50 50 49 49 49 48 49 50 46 43 39 42 44 45 42 41 39 40 40 37 39 35 38 39 37 36 36 35 33 36 38 35 34 35 35 37 36 35 34 32 28 25 23 24 32 31 32 33 32 32
42 42 44 46 47 49 49 49 49 49 50 45 40 37 42 44 41 38 35 34 36 34 38 38 37 36 38 35 35 35 32 33 27 27 31 29 26 30 32 33 31 30 31 31 29 28 30 31 31 31 32 31 31 28
41 42 42 44 45 46 49 49 49 48 45 43 40 42 41 37 34 31 31 32 32 27 35 35 35 36 37 37 34 34 30 31 24 32 29 25 28 30 28 27 28 29 29 30 31 29 30 30 31 31 31 30 25 15
38 41 42 42 43 44 46 49 49 46 44 41 38 35 34 34 27 25 22 25 27 30 34 34 33 35 36 35 33 33 28 27 31 27 22 25 27 28 26 25 26 27 28 28 25 24 25 28 30 29 26 19 15 12
38 39 41 42 43 43 43 45 47 46 43 37 33 29 28 25 25 23 22 23 28 31 34 34 33 33 34 32 32 28 30 29 25 22 20 25 26 27 27 27 23 23 26 26 25 22 17 19 22 19 18 14 12 10
39 38 40 41 42 42 43 45 47 44 39 34 32 25 26 22 26 25 28 28 30 32 33 31 30 30 30 29 29 29 25 23 22 21 26 25 21 22 25 22 22 22 22 24 25 24 21 15 11 11 11 11 11 12
39 39 39 40 41 42 44 45 43 40 36 34 30 24 28 27 28 21 16 29 30 32 29 27 28 24 26 25 25 22 21 20 24 27 25 20 25 24 23 22 21 21 23 24 26 27 23 18 14 12 12 13 14 14
38 37 38 39 40 41 43 40 38 32 32 32 28 29 23 24 27 24 28 29 32 26 21 27 16 15 26 22 20 24 23 27 27 23 22 24 26 26 26 26 23 21 23 24 25 26 25 19 15 12 12 14 15 15
38 38 38 38 40 40 39 37 33 32 30 32 25 27 32 32 30 30 28 30 30 27 25 23 22 19 16 15 17 25 28 26 22 23 23 26 27 27 26 26 24 22 21 23 22 20 16 14 16 15 16 16 14 13
38 38 40 40 39 37 32 32 33 29 30 32 30 28 30 32 32 30 29 29 29 29 31 28 26 17 20 23 25 25 17 20 24 25 26 27 28 27 27 23 21 18 18 18 21 23 21 18 17 17 17 16 14 13
38 36 39 39 40 34 32 32 34 31 28 30 29 29 29 29 30 29 30 29 24 23 27 24 24 25 26 27 26 23 24 26 26 26 26 27 26 18 20 19 21 21 21 18 16 20 16 18 16 15 14 13 13 13
37 38 39 35 34 34 32 31 30 31 30 28 29 28 27 30 29 27 27 26 23 29 27 26 27 28 26 24 27 27 26 26 26 26 26 22 24 18 16 15 14 21 20 19 20 19 19 16 14 14 12 12 12 13
34 39 35 35 32 32 31 32 30 29 26 27 28 27 25 25 26 28 31 29 29 25 27 27 26 25 24 25 25 25 25 24 24 23 25 24 19 16 17 17 17 14 15 15 16 17 15 14 14 14 13 12 13 12
36 36 33 32 28 27 26 32 26 26 22 24 26 23 24 24 25 28 27 27 26 28 27 25 23 23 24 22 20 18 18 19 20 20 21 21 20 18 17 19 21 18 17 16 16 15 13 16 16 13 12 11 11 10
33 24 22 23 26 23 23 24 27 24 23 22 22 19 21 22 25 24 22 19 22 25 24 22 19 18 17 15 19 20 20 20 19 20 20 18 15 21 21 19 20 20 19 15 14 13 12 12 13 10 9 8 7 6
21 21 15 15 20 19 19 20 21 21 18 17 12 15 16 21 16 16 14 16 17 17 16 15 16 13 9 13 18 16 20 21 18 16 20 22 19 18 16 15 13 14 15 13 12 12 9 8 8 9 7 6 5 7
19 21 18 7 17 10 16 16 17 18 13 8 10 15 12 14 12 11 12 10 8 10 9 8 8 9 16 14 14 17 17 18 21 18 18 21 21 17 14 12 10 10 13 12 10 8 8 8 8 5 7 8 13 7
9 13 21 21 19 16 13 14 16 12 6 7 14 13 9 7 9 12 10 9 10 8 11 11 9 9 8 10 14 16 15 14 15 15 16 16 15 16 15 11 9 12 14 13 10 9 8 9 8 7 7 5 4 4
16 15 12 17 13 11 7 7 4 6 9 13 12 6 8 9 9 6 5 7 4 3 5 9 10 7 6 7 9 11 12 13 12 12 11 11 12 14 14 15 15 17 12 8 9 8 9 7 6 5 5 4 4 4
19 16 16 17 9 7 6 8 10 13 17 14 10 8 7 8 -1 1 8 7 2 5 6 4 6 7 10 10 10 11 13 13 13 11 9 9 9 11 11 11 11 10 6 7 12 11 8 8 8 7 2 3 3 2
17 11 9 4 8 13 12 12 5 4 13 11 10 7 5 2 2 5 5 2 4 2 -0 1 3 5 5 3 5 9 11 12 12 12 10 9 9 9 7 7 6 5 4 4 4 3 11 6 4 -0 -0 -0 1 1
13 8 5 6 7 3 5 12 12 15 9 6 8 5 1 -1 5 5 0 1 3 3 4 4 6 9 11 9 8 8 8 11 11 12 11 10 9 9 7 5 5 2 1 3 2 1 -2 -3 -6 -6 -2 -4 -4 1
18 18 9 3 1 3 6 6 7 7 6 5 4 4 6 7 7 1 3 1 3 4 10 9 8 8 10 11 12 15 15 11 10 10 10 10 10 9 8 6 2 3 3 3 1 0 -2 -6 -4 -3 -1 -3 -4 -3
11 11 8 6 3 5 10 12 10 5 1 -2 2 6 7 10 6 1 6 7 6 6 7 7 8 9 9 9 10 11 12 11 15 18 19 19 18 15 10 6 5 5 5 5 2 1 -1 -4 -5 -2 -3 -5 -6 -5

GFSWCAN_sfc_dewp_003.txt.gz
Dewpoint
47 48 49 55 55 54 54 53 53 53 54 54 54 54 54 54 52 50 47 46 45 39 40 41 40 35 34 34 34 31 33 32 32 33 33 32 30 29 29 29 27 26 26 27 28 26 24 33 33 31 32 35 33 33
46 47 48 53 54 54 53 53 53 53 53 53 53 53 53 54 52 51 46 47 47 43 42 44 44 43 40 40 34 33 36 33 34 33 32 32 30 29 29 28 31 30 31 29 29 28 33 35 33 34 34 33 33 34
46 47 49 51 54 53 53 52 53 52 53 53 53 53 53 54 53 51 46 46 46 43 43 43 42 45 44 43 40 37 37 36 39 38 35 33 30 31 28 28 28 31 33 32 32 33 34 33 35 35 34 34 35 35
44 46 47 51 53 52 52 52 51 51 52 52 52 52 53 54 53 52 47 48 46 44 41 42 45 43 45 45 42 40 40 42 42 42 38 36 35 34 32 32 31 32 34 33 33 34 34 34 35 35 35 35 34 34
43 44 47 52 52 52 51 50 50 51 51 51 51 52 53 53 52 52 50 49 49 44 42 42 43 43 45 45 42 42 41 40 39 38 38 37 40 38 37 34 35 35 33 32 31 34 32 33 35 35 35 34 35 34
43 46 48 52 52 51 50 50 50 49 51 51 51 52 52 53 52 49 43 49 50 50 43 38 43 41 44 45 44 44 44 43 41 40 39 40 41 36 32 30 33 35 36 35 33 35 33 34 35 34 34 34 34 33
43 47 52 51 51 50 50 49 49 49 50 51 51 51 52 52 48 44 41 46 50 50 42 37 38 41 41 43 43 44 44 43 43 40 39 38 38 37 33 31 33 34 37 34 33 35 34 34 33 33 34 35 36 36
42 43 50 51 51 50 50 49 49 49 51 51 51 52 50 50 48 45 47 49 49 46 41 34 36 37 41 41 40 43 42 42 41 40 39 38 38 36 31 33 32 34 34 34 35 34 34 33 32 33 33 34 33 33
43 43 46 51 50 50 50 49 49 49 50 51 51 50 47 45 43 45 47 48 47 43 37 36 33 32 40 40 40 40 40 37 41 38 37 36 34 31 32 33 33 34 32 33 31 31 32 31 33 30 30 29 32 32
42 43 44 47 50 50 50 49 49 49 51 50 46 42 39 43 46 45 42 41 39 40 38 34 37 35 38 38 36 35 36 35 33 36 38 36 33 35 34 35 34 34 34 32 29 27 25 23 24 28 30 31 32 33
41 42 43 45 48 50 50 49 49 50 49 45 40 37 42 45 41 37 34 35 35 30 37 35 35 35 38 34 34 35 32 32 26 30 33 29 23 27 29 30 30 30 32 31 29 27 26 27 28 29 30 31 31 30
41 41 42 43 45 49 50 50 49 48 46 43 41 42 41 37 34 28 31 31 31 27 33 35 35 37 37 36 34 32 30 30 23 31 29 22 24 26 27 26 27 29 29 29 30 30 28 28 29 29 30 30 30 29
41 41 42 43 43 45 49 50 49 47 44 42 38 35 35 33 27 24 21 25 27 31 34 34 33 35 36 35 33 31 27 26 30 26 23 21 24 26 26 25 25 26 28 28 28 28 26 26 28 29 29 28 26 17
40 40 40 42 43 43 44 47 48 47 43 35 32 29 30 27 24 23 22 24 28 33 35 36 34 33 35 32 33 28 30 29 21 16 16 21 23 26 27 25 22 22 25 25 25 24 22 19 20 25 26 24 18 15
39 40 39 40 42 43 43 43 45 45 38 33 33 28 28 23 23 17 27 31 32 37 34 32 30 31 29 29 29 29 26 23 20 17 20 22 22 24 26 25 23 21 20 21 22 24 24 22 17 14 13 13 13 12
39 39 38 39 41 42 42 43 41 39 34 32 30 25 28 23 26 27 26 31 33 33 30 29 27 25 27 27 26 25 21 16 19 20 23 19 24 25 23 23 22 21 21 21 22 24 25 24 22 18 14 12 11 11
38 37 39 39 40 41 42 38 36 32 32 31 29 29 22 20 26 28 30 33 33 32 25 26 19 18 26 22 20 23 21 21 23 21 20 23 24 24 24 25 26 26 23 21 22 23 24 25 21 16 14 13 13 14
37 38 39 38 40 39 37 35 32 32 30 32 27 27 29 30 29 30 28 32 32 30 26 21 22 23 19 17 18 23 22 19 19 22 24 25 25 26 25 27 28 26 23 21 20 18 16 15 17 18 15 15 13 13
37 38 39 40 40 36 32 32 32 29 30 31 29 28 30 30 30 29 31 31 30 30 28 27 18 17 20 22 20 15 15 19 24 25 26 26 27 27 27 24 23 19 17 17 20 22 22 21 20 18 17 16 15 14
38 38 39 39 39 33 32 32 33 31 28 30 31 29 29 29 29 32 31 30 29 28 22 19 21 24 25 25 23 22 23 25 26 24 25 26 26 19 20 20 21 20 20 17 15 20 15 19 17 16 15 14 13 12
37 38 38 37 34 34 32 31 30 31 30 28 29 28 28 28 28 29 30 28 24 17 22 26 27 27 25 24 27 27 26 25 25 25 25 21 23 18 15 13 12 20 20 19 19 19 20 18 15 14 13 12 13 12
34 38 36 36 32 32 30 32 30 29 27 27 28 28 26 25 25 28 31 28 23 25 27 27 27 28 26 24 25 24 25 24 23 23 25 24 20 16 16 15 15 12 12 12 14 15 15 14 14 14 13 12 12 11
35 35 32 32 28 27 25 32 25 25 23 23 26 24 23 24 26 30 26 26 26 27 27 27 24 22 23 22 20 18 19 18 19 18 20 20 19 16 15 17 15 9 10 13 15 15 13 18 16 11 11 10 9 9
32 23 23 24 25 22 26 24 27 23 23 23 22 19 19 20 26 23 21 19 22 25 22 20 18 17 16 15 18 18 19 19 18 19 19 16 14 18 19 18 19 16 17 15 14 13 12 12 12 9 8 5 5 5
15 13 14 15 18 16 16 16 18 19 18 18 17 17 18 22 20 18 14 17 19 18 15 15 16 16 11 14 17 16 19 20 17 16 20 22 18 16 13 14 13 14 15 12 12 10 7 7 7 6 5 5 3 3
12 17 6 5 10 11 16 11 16 17 17 16 15 16 16 17 13 11 13 13 13 12 9 7 8 10 14 13 14 16 15 16 18 16 16 19 18 11 6 9 8 10 13 12 10 9 9 8 6 2 4 5 11 5
4 10 20 21 17 15 12 15 17 16 13 13 12 12 13 11 9 12 11 12 12 11 12 11 10 10 9 10 15 15 15 11 11 11 15 15 15 16 13 10 9 11 14 12 12 11 8 7 5 4 3 2 0 1
14 14 11 18 12 10 6 6 5 8 10 14 13 7 8 9 10 9 8 10 9 8 8 11 11 8 6 6 7 11 11 11 12 12 12 12 13 13 14 15 16 17 12 10 7 6 8 6 6 7 6 3 1 0
13 16 15 17 12 6 5 7 9 12 16 14 9 8 7 7 -1 1 8 7 2 5 6 5 7 6 8 9 9 10 11 10 8 6 7 7 9 9 10 11 10 9 8 8 12 11 8 8 9 7 1 1 1 -1
18 15 10 8 10 12 10 9 4 4 11 10 10 6 4 1 1 3 3 -0 1 1 -1 -1 -1 -1 -0 1 2 7 9 9 12 12 10 10 10 9 8 8 8 6 6 7 7 5 10 5 3 -1 -2 -2 -1 1
15 7 4 5 4 1 1 9 11 13 5 1 3 3 1 -3 2 3 -1 -1 -1 -3 0 -1 0 1 5 6 4 7 7 11 11 9 10 11 11 9 8 7 7 5 5 3 2 1 -3 -4 -7 -8 -4 -6 -5 -0
20 20 15 6 4 2 4 4 3 2 1 1 -2 0 2 5 3 2 2 -2 0 2 7 5 5 6 10 11 11 13 15 10 11 11 10 11 11 10 10 9 6 5 4 4 1 -0 -3 -7 -6 -4 -2 -5 -5 -5
12 13 9 5 -0 -2 4 2 3 -1 -1 -4 -1 3 2 6 3 -1 5 4 3 4 6 6 8 10 10 10 10 12 12 11 15 20 20 19 17 14 10 6 5 5 4 4 2 0 -2 -6 -6 -4 -4 -6 -7 -6

GFSWCAN_sfc_dewp_006.txt.gz
Dewpoint
44 45 46 48 48 50 54 55 54 53 53 54 54 54 54 54 52 49 46 45 44 38 39 41 39 33 33 32 28 28 31 31 32 32 32 31 30 29 29 29 25 24 25 26 28 26 24 33 33 29 32 34 33 33
44 44 46 46 48 49 53 54 53 52 52 53 54 54 54 53 53 50 45 46 46 42 41 43 43 42 40 39 33 33 34 32 33 34 32 32 30 29 29 28 31 27 28 27 29 29 33 34 33 35 34 33 33 33
43 44 45 45 46 47 50 54 53 52 52 53 53 53 53 54 53 51 46 45 45 42 42 42 41 44 45 44 40 37 37 36 37 37 34 34 30 32 29 29 28 31 33 32 31 33 33 33 34 34 34 34 34 35
43 44 44 44 46 47 49 53 52 52 52 52 53 53 53 53 53 52 47 49 46 43 40 41 44 41 44 45 41 40 39 42 41 40 37 36 34 33 31 31 30 31 33 32 32 34 34 34 35 34 34 35 35 34
43 43 44 44 47 47 50 52 52 51 52 52 52 53 53 53 52 51 50 50 50 45 42 42 43 42 45 43 43 42 40 39 39 37 36 35 38 36 34 34 34 34 33 31 30 34 33 33 35 35 35 34 34 33
42 43 44 44 48 48 52 52 51 51 51 51 51 52 52 52 52 49 46 49 49 48 42 38 43 42 44 44 43 43 43 41 40 37 36 37 39 35 29 30 32 34 35 35 33 34 34 34 35 33 34 34 33 33
42 42 44 44 48 51 52 51 50 50 51 51 51 52 52 52 48 43 40 45 49 50 42 37 38 41 41 43 43 44 44 42 40 37 36 37 38 37 32 29 32 33 35 34 34 35 34 32 33 32 34 35 36 34
41 42 43 43 47 52 51 50 50 50 50 51 51 52 50 49 48 45 47 48 48 44 41 34 35 38 41 40 40 43 41 42 41 39 39 37 38 37 30 32 32 33 34 34 33 33 33 32 32 32 32 31 29 30
40 43 43 43 45 51 51 50 49 50 50 51 51 50 47 45 42 45 48 47 46 43 36 35 32 32 40 40 40 39 40 37 41 38 37 36 35 29 30 32 33 33 32 33 32 33 29 30 32 29 31 27 29 29
40 42 42 42 44 49 50 50 49 50 51 50 47 41 38 43 47 44 40 40 37 39 35 34 36 35 37 38 36 35 36 35 33 36 37 32 30 33 33 34 34 34 33 32 30 28 25 22 22 26 27 29 30 31
39 42 42 42 43 46 50 50 50 50 49 45 40 38 42 45 40 36 34 31 34 31 36 33 33 34 38 34 34 34 27 29 22 28 32 26 25 27 28 29 31 31 33 30 30 28 26 24 26 27 27 28 29 29
39 41 42 42 42 43 50 50 50 48 46 42 41 43 41 36 33 28 31 28 30 24 31 34 34 35 36 36 32 32 24 23 25 31 31 20 24 26 27 26 29 32 32 30 28 27 27 28 27 27 28 28 29 28
39 40 42 42 42 43 49 50 50 46 44 42 39 35 36 33 28 26 25 26 19 26 34 34 33 35 34 33 30 28 26 22 30 27 23 23 23 24 25 25 26 27 28 27 28 27 26 24 26 27 27 28 26 26
38 40 42 40 42 42 48 49 47 46 41 35 32 29 30 27 28 23 21 22 26 32 35 35 33 33 34 31 32 26 28 28 24 21 19 19 23 26 26 24 23 23 25 25 25 24 22 21 20 21 26 26 24 21
38 40 40 40 41 41 41 46 47 43 37 33 33 28 28 22 23 17 17 30 33 37 34 31 29 32 29 29 28 25 25 23 22 17 19 20 23 25 26 25 22 19 21 21 22 23 23 23 21 20 17 15 18 18
38 38 39 41 41 41 40 40 40 39 33 32 30 25 26 21 25 27 29 32 34 35 31 30 26 23 25 26 26 21 18 17 18 18 20 23 25 26 25 23 22 21 21 21 21 22 22 23 23 22 18 15 12 11
38 37 39 39 40 40 40 36 35 32 32 31 28 28 22 17 23 29 32 33 33 33 26 26 24 23 26 24 21 21 18 18 17 18 20 24 26 24 24 25 26 26 25 24 22 22 22 23 22 20 20 18 13 12
36 38 39 40 40 39 36 33 32 32 29 31 28 28 29 29 29 31 31 33 33 29 27 23 25 24 21 18 18 20 18 15 17 21 23 24 24 24 24 26 27 26 26 24 18 16 15 15 19 21 17 14 13 13
36 37 39 39 39 35 32 32 32 29 30 29 29 30 28 30 30 31 31 30 31 30 28 26 22 20 20 20 17 14 13 17 25 25 26 26 26 26 26 22 21 20 18 16 19 20 21 20 21 19 17 16 15 14
38 39 39 38 38 32 31 31 33 30 27 29 31 29 29 29 31 32 31 30 30 29 26 23 22 23 24 24 22 21 22 25 26 25 24 25 25 19 20 19 22 21 19 16 15 20 15 18 17 16 15 14 13 12
36 38 38 37 34 32 32 31 30 30 29 27 29 29 28 30 31 32 30 30 30 27 24 26 26 27 24 25 27 27 26 26 25 25 24 20 22 17 15 13 11 20 19 18 18 19 20 18 14 14 14 13 12 10
35 38 35 36 32 32 29 31 29 29 28 27 27 28 27 27 28 29 32 30 28 28 28 28 26 25 23 24 24 24 25 25 23 23 25 25 21 16 16 14 14 9 10 9 12 14 14 14 14 14 12 11 11 10
32 33 29 29 27 25 25 31 24 25 24 24 27 24 23 24 27 30 26 27 27 27 28 26 23 21 23 20 20 20 20 19 19 18 19 19 18 15 14 16 12 9 10 12 14 14 15 18 15 11 11 9 8 8
30 20 19 20 24 21 26 23 25 23 24 23 21 19 20 22 27 26 23 21 23 24 22 21 21 20 18 17 18 19 19 19 18 18 17 17 15 17 18 18 17 13 15 14 15 14 13 13 13 9 7 5 5 5
11 12 11 7 14 18 19 19 20 17 17 19 18 18 18 22 20 18 17 18 20 17 15 15 17 15 12 14 16 17 17 19 18 19 19 21 17 15 13 14 14 14 15 13 11 10 9 9 8 8 8 6 4 2
6 13 6 2 8 9 15 15 17 17 18 16 15 17 18 19 17 14 14 15 14 12 8 6 10 11 13 14 15 16 15 15 18 17 16 19 17 11 9 11 11 11 13 12 11 10 9 9 9 6 6 4 10 1
5 12 19 20 16 15 13 15 17 18 15 15 16 15 14 11 11 12 12 12 12 10 11 10 9 10 10 12 15 14 14 11 12 13 15 15 15 16 13 12 10 12 13 12 12 11 10 9 7 6 4 0 -1 -1
13 13 8 16 11 8 6 6 5 8 11 14 14 10 11 11 12 10 9 10 9 5 7 10 11 9 9 8 9 12 12 12 12 13 13 13 13 13 14 14 14 17 13 11 10 9 9 8 7 5 3 1 -2 -2
11 15 15 16 10 4 3 6 7 11 15 14 11 8 8 7 3 5 8 8 6 7 7 8 7 7 9 10 10 11 11 9 7 5 6 5 6 8 9 10 9 9 9 10 13 11 7 7 5 5 0 0 -0 -3
16 11 10 12 12 12 8 7 3 3 10 8 9 6 4 2 2 4 4 -0 2 2 0 0 2 2 2 3 5 8 8 7 8 7 6 5 7 8 7 8 8 7 7 7 6 3 10 4 2 -2 -3 -3 -2 -2
12 7 3 4 3 -2 -1 9 8 11 2 -3 -2 0 -1 -6 1 2 -3 -2 -3 -4 -0 -2 -1 -2 3 2 -2 2 3 7 6 7 9 11 10 9 7 8 8 7 5 3 1 0 -4 -5 -8 -9 -6 -8 -7 -2
19 16 13 9 5 2 8 6 -2 -4 -2 -2 -5 -4 -2 -0 -2 -2 1 -5 -4 -1 5 0 1 2 4 6 7 9 14 11 11 12 12 11 10 10 10 9 5 6 5 3 1 -1 -4 -8 -7 -6 -3 -6 -6 -6
9 8 6 8 2 1 5 5 2 -4 -4 -6 -2 2 -1 5 2 -1 4 3 -0 1 4 4 6 9 9 9 10 12 13 11 15 18 18 17 15 13 9 7 6 5 5 4 2 -0 -3 -7 -8 -5 -5 -7 -8 -7

GFSWCAN_sfc_dewp_009.txt.gz
Dewpoint
38 42 43 44 45 46 46 47 49 54 54 53 53 53 54 54 53 50 46 45 42 38 39 40 38 32 33 29 27 28 30 30 35 35 35 31 30 29 28 27 25 25 25 25 28 25 21 32 33 29 32 34 34 33
37 42 43 43 44 45 46 47 48 53 53 53 53 54 54 54 53 51 45 46 45 41 41 43 42 41 39 37 31 32 32 31 32 33 33 32 30 29 29 27 31 25 26 27 27 27 34 34 34 35 34 33 33 34
36 41 42 43 44 45 46 47 47 51 52 53 53 54 54 54 54 52 48 45 43 41 41 41 40 44 44 44 42 36 37 35 36 37 34 33 30 31 29 29 30 31 33 31 30 33 33 34 34 34 34 34 34 35
36 41 41 43 43 44 46 47 47 49 52 53 53 53 53 53 54 51 48 47 45 42 38 40 43 40 44 43 41 40 38 41 39 39 36 34 32 33 30 30 30 31 32 32 32 34 33 34 34 34 35 35 34 34
35 40 40 43 43 44 46 49 49 50 52 52 53 53 53 53 53 51 50 50 50 43 41 42 42 42 43 43 42 41 40 39 38 37 35 35 35 36 35 33 32 34 31 31 30 34 34 33 34 35 35 34 34 34
36 39 40 43 44 44 45 49 48 52 52 52 52 52 52 53 52 50 46 49 50 49 43 38 43 42 42 43 42 42 42 40 38 37 35 36 37 34 29 31 32 34 35 34 33 34 34 35 34 35 34 34 34 33
36 39 40 43 44 44 45 48 50 51 51 51 51 51 52 52 48 44 42 45 49 49 41 37 38 41 41 43 43 42 43 40 38 36 35 35 35 34 31 29 31 33 35 34 34 34 33 33 34 33 34 36 36 34
36 39 40 43 43 44 45 48 51 51 51 51 51 52 51 50 48 45 47 48 48 43 41 34 35 39 41 40 40 42 41 41 41 39 38 36 36 34 31 31 32 33 33 33 32 33 34 33 32 33 33 32 30 29
37 39 40 43 43 43 44 51 51 51 50 51 51 50 47 45 43 45 48 47 46 42 36 33 33 34 40 40 40 39 40 38 40 37 37 36 32 28 31 31 32 33 33 32 32 30 30 31 31 32 31 30 29 29
37 38 40 42 42 42 43 51 50 50 50 50 47 42 39 43 46 44 41 40 39 39 35 34 35 35 38 38 36 36 37 35 33 37 37 34 28 32 32 33 34 34 33 32 30 27 28 24 24 28 28 28 29 30
37 38 40 42 42 42 43 50 50 50 50 45 40 38 43 45 39 36 32 32 32 32 35 35 34 35 37 34 33 34 31 31 28 28 32 28 26 30 31 32 31 33 34 33 32 30 26 23 24 26 27 28 29 29
37 38 40 41 41 42 42 46 50 49 46 42 42 43 41 36 33 29 24 26 31 28 33 35 32 33 35 36 32 31 23 21 16 30 31 23 25 26 28 29 31 32 32 29 25 26 26 26 26 26 27 27 28 28
36 38 40 40 42 42 42 48 50 47 45 43 39 36 36 33 27 26 25 26 19 26 34 34 32 34 32 31 26 24 16 18 28 28 23 24 25 25 26 29 30 31 30 27 27 26 25 25 26 26 26 27 27 27
36 38 39 40 42 41 41 49 48 45 41 35 32 29 31 28 28 23 23 23 26 31 35 34 32 32 30 25 27 24 24 26 21 16 18 22 23 27 25 26 28 27 26 26 26 24 22 21 20 22 24 25 25 24
36 39 39 40 41 41 41 44 45 41 37 32 34 29 29 23 22 14 20 30 33 37 33 30 28 30 29 29 28 27 25 21 21 16 18 18 19 23 24 22 23 23 23 23 23 23 23 22 21 21 20 18 20 20
37 37 38 41 41 41 40 39 41 38 33 32 31 26 26 22 25 27 27 32 34 34 29 27 21 20 25 24 26 17 20 16 19 20 20 22 26 25 24 23 21 20 20 20 21 21 22 22 22 22 20 17 14 13
37 37 39 39 39 40 39 35 35 32 32 32 27 28 22 18 25 28 31 34 36 32 22 22 19 17 26 24 22 17 17 18 18 19 23 27 28 26 24 24 24 24 24 23 22 21 22 23 22 21 20 19 14 12
34 37 38 38 39 38 35 33 32 32 29 29 28 26 30 29 30 32 32 33 33 28 26 21 25 22 17 17 17 19 16 13 17 23 25 25 24 23 25 26 26 26 26 24 19 16 15 16 19 21 16 13 13 14
35 36 39 39 38 35 32 32 32 28 29 29 30 30 29 30 30 31 32 31 30 29 28 26 20 14 18 19 17 12 12 19 25 25 26 26 26 26 26 21 22 19 19 16 19 20 20 19 20 18 16 16 15 14
38 37 38 38 38 33 30 30 33 30 27 29 31 29 29 29 31 31 30 30 30 31 29 24 20 21 23 24 22 23 23 26 26 25 24 25 25 20 19 18 22 21 20 18 19 20 16 17 16 15 15 14 13 12
34 36 37 37 34 33 31 30 29 29 29 26 29 29 28 31 31 32 31 31 31 29 25 25 25 26 25 26 27 27 26 25 24 23 23 22 22 18 15 14 15 21 19 18 19 20 19 16 15 14 12 12 10 9
32 35 33 34 30 30 28 31 28 29 26 26 26 28 27 27 28 30 32 29 29 27 27 27 25 25 25 24 24 24 25 25 25 26 27 26 22 18 17 15 15 8 9 8 13 13 12 13 14 13 11 10 11 11
33 32 27 23 24 21 23 29 24 25 24 24 26 24 23 24 27 31 26 27 26 27 27 24 21 22 21 20 21 20 20 20 19 20 21 20 18 18 17 17 13 12 11 12 13 14 13 17 15 11 11 9 9 9
27 18 17 14 19 19 23 22 25 24 24 22 21 17 19 22 27 26 22 22 24 25 23 22 21 20 19 18 19 19 19 20 20 19 19 19 17 17 18 17 16 13 15 15 16 15 13 13 13 8 7 6 5 4
11 10 8 2 9 13 17 19 19 18 17 19 18 18 19 21 21 21 19 20 21 19 18 19 19 19 18 16 17 16 16 19 19 19 19 19 15 15 14 14 14 14 15 14 12 10 8 7 7 6 5 5 2 -1
6 8 7 0 9 9 13 16 18 17 18 16 16 17 19 20 19 17 16 16 15 15 14 14 14 15 14 15 16 15 14 15 18 16 16 19 16 13 11 12 10 11 12 11 10 9 8 7 5 2 2 3 9 -2
3 9 19 20 15 14 13 15 17 15 15 16 17 17 17 16 15 14 13 12 13 12 12 11 12 13 13 14 14 14 13 11 13 14 15 14 15 15 12 12 9 11 12 11 10 9 8 8 5 3 1 -1 -2 -2
12 12 6 10 9 6 4 6 7 7 9 14 16 14 12 11 12 9 8 9 9 9 10 10 10 10 11 11 12 12 12 13 13 13 13 13 13 12 13 13 14 16 10 9 9 8 8 6 4 2 1 -0 -3 -3
10 14 13 8 5 4 2 4 4 10 14 13 10 11 10 6 5 6 8 8 7 8 8 8 8 8 10 10 11 11 11 10 8 6 6 6 5 8 7 8 8 8 8 9 15 12 5 5 4 3 -1 -1 -2 -6
16 9 9 13 12 11 5 5 2 6 8 6 8 7 5 3 4 5 6 5 6 4 2 2 2 2 4 6 7 8 8 7 7 7 6 3 4 5 2 5 6 5 6 5 4 4 12 3 2 -2 -3 -3 -3 -4
11 5 3 3 3 -2 -0 9 8 8 0 -4 -5 0 -0 -2 3 3 1 1 1 0 2 1 0 -0 5 5 -0 2 4 5 4 4 5 9 8 7 7 7 4 2 2 2 1 -0 -4 -6 -8 -9 -7 -10 -8 -2
17 12 12 10 4 4 10 9 -1 -5 -1 -3 -5 -8 -5 -1 -3 -2 2 -1 0 3 6 6 5 5 6 6 8 6 13 6 7 10 9 9 9 8 9 7 3 3 3 2 -0 -1 -5 -8 -7 -7 -4 -8 -8 -7
5 5 7 4 -2 -2 3 1 1 -5 -7 -9 -5 -1 -3 2 -1 -1 4 1 0 2 4 4 5 8 9 10 10 13 13 10 11 16 16 16 15 12 7 5 4 4 4 3 1 -1 -3 -8 -8 -6 -6 -9 -10 -9

GFSWCAN_sfc_dewp_012.txt.gz
Dewpoint
37 37 36 38 43 43 44 45 47 48 48 49 54 53 53 54 53 51 48 48 46 40 42 43 39 33 32 36 36 32 38 37 40 39 37 35 33 34 27 28 27 27 30 28 31 33 27 33 32 29 34 36 36 36
37 37 35 38 43 43 44 44 46 47 47 49 53 53 53 54 54 52 48 47 48 44 43 45 44 43 40 37 35 33 37 35 42 39 37 34 31 31 29 24 30 26 30 26 28 27 35 35 34 36 36 35 35 35
37 37 36 37 42 43 44 44 46 48 47 48 53 53 54 54 54 52 49 48 47 46 45 44 43 45 45 44 43 36 38 35 37 39 38 37 34 33 29 29 30 31 33 30 30 33 33 34 34 35 35 35 35 35
37 36 36 37 42 43 44 44 46 47 48 49 53 53 54 54 54 52 48 49 48 46 41 42 44 43 45 44 42 41 39 40 39 40 40 39 35 34 34 32 31 31 33 32 32 34 34 34 34 35 35 35 35 35
38 37 37 37 42 43 44 44 45 47 49 49 53 53 53 53 53 52 50 50 51 47 42 42 43 44 44 43 42 42 41 41 40 41 41 39 37 37 37 35 33 33 32 31 30 34 34 33 35 36 35 36 36 35
38 37 37 37 43 42 44 44 45 47 49 50 52 52 52 53 52 50 46 50 50 50 45 41 43 42 43 44 43 43 42 41 41 42 41 40 40 38 39 36 34 34 35 34 32 35 35 35 36 36 35 35 35 35
38 37 37 37 42 42 44 44 45 48 50 52 52 52 52 52 50 46 44 47 50 50 42 38 40 42 42 44 44 43 43 43 43 41 40 40 39 38 36 34 32 35 36 35 35 35 34 35 35 35 35 36 36 34
37 37 37 38 42 42 43 43 44 47 51 52 51 52 52 50 49 46 48 48 49 46 42 35 36 40 42 42 42 42 43 43 42 41 40 38 39 37 35 35 32 35 35 35 34 34 35 35 35 36 36 34 32 30
37 37 37 38 41 42 43 43 44 49 51 51 51 51 48 46 44 46 47 47 47 43 37 36 35 35 41 40 40 39 41 39 41 39 38 38 36 36 37 34 34 35 35 35 34 36 37 36 36 34 33 31 28 29
37 37 37 38 40 41 43 42 45 51 51 50 48 44 40 44 47 47 44 42 41 40 38 36 38 37 39 38 37 37 38 36 34 37 38 36 36 36 34 34 36 36 35 34 34 33 33 32 33 33 29 29 29 29
37 37 37 39 40 42 42 42 48 51 50 45 40 39 44 46 41 38 37 38 37 35 36 36 36 36 38 35 34 35 34 34 33 33 34 33 30 33 34 35 37 37 36 36 37 36 33 31 29 27 27 29 30 31
37 37 37 39 40 42 42 42 46 49 47 43 42 43 41 37 36 34 34 33 33 33 35 35 35 36 36 37 34 32 32 30 29 32 32 28 30 29 33 34 34 34 34 31 32 27 24 25 26 26 27 28 29 31
37 36 37 39 41 41 42 42 46 47 45 43 40 36 37 35 31 29 28 30 29 32 35 35 34 34 34 34 31 29 28 28 32 29 26 29 28 29 31 33 34 33 28 26 26 26 26 26 27 27 27 28 30 30
37 36 38 39 41 41 41 42 47 46 41 36 33 31 32 31 31 30 30 31 32 35 35 35 33 34 32 33 29 27 26 27 24 22 23 24 27 27 29 32 33 28 26 26 25 25 25 25 24 25 25 26 27 26
36 36 38 40 39 41 41 41 44 41 37 33 35 31 32 29 26 24 28 32 35 38 35 33 33 32 31 30 28 27 25 22 22 21 25 27 28 27 29 32 32 26 26 25 24 23 22 22 22 22 21 20 23 22
35 37 37 39 39 40 40 39 41 38 33 32 32 28 27 28 27 28 30 33 36 35 33 33 29 29 27 29 25 24 22 21 25 30 29 26 25 26 27 30 27 25 24 23 22 22 23 23 23 23 21 19 16 16
36 36 38 39 39 39 39 35 36 32 32 32 29 29 26 27 28 29 32 34 36 33 30 30 27 26 28 26 25 25 24 27 28 27 27 30 28 25 23 22 22 22 23 23 23 22 23 24 24 22 22 18 15 12
34 37 39 39 39 38 36 33 32 32 29 30 29 29 30 29 29 31 33 35 34 30 28 29 28 27 26 24 25 27 27 24 23 27 28 27 26 26 27 27 27 27 26 24 25 24 24 24 24 22 20 17 17 17
36 37 37 38 38 35 32 32 32 28 29 30 30 31 31 31 33 33 33 30 30 30 30 29 25 24 23 25 26 25 26 27 25 26 25 26 26 27 27 29 27 27 25 23 22 22 22 22 22 20 16 16 15 14
36 37 37 38 38 33 31 31 33 31 28 30 32 30 30 31 33 32 31 31 32 33 32 27 20 21 22 25 25 27 26 27 26 26 26 25 25 28 28 28 25 22 21 22 23 22 19 17 17 16 16 16 14 13
33 35 35 36 35 33 31 29 29 30 30 28 30 30 30 33 32 32 32 33 33 32 28 25 26 26 27 27 27 27 26 26 26 25 25 25 22 22 21 22 24 23 22 22 21 22 20 18 17 18 19 12 11 14
33 34 32 32 31 30 29 31 29 30 28 28 28 30 29 29 30 31 32 31 30 28 27 26 26 26 25 23 24 25 26 26 26 26 27 25 22 22 21 22 23 22 22 23 22 19 16 15 14 13 12 13 14 13
32 29 25 23 22 23 24 30 26 26 24 25 27 25 24 26 28 32 27 28 26 26 26 24 23 23 21 21 21 20 21 21 21 21 20 19 20 20 21 19 21 21 20 17 17 16 17 17 14 11 11 10 10 8
25 20 18 17 17 18 23 23 25 24 24 23 21 18 20 23 27 27 22 22 24 24 24 22 21 21 21 22 19 19 20 20 20 20 20 21 20 18 18 18 17 17 17 16 17 17 14 13 13 10 11 11 10 7
12 11 11 5 11 14 16 20 20 20 18 20 19 19 20 22 23 22 20 20 20 20 21 21 21 21 20 18 18 18 18 21 20 20 20 18 17 16 16 16 15 16 17 17 14 12 11 10 11 11 11 11 9 6
6 13 9 9 13 10 14 16 19 19 19 17 17 19 21 22 20 17 15 15 15 16 16 20 20 19 17 17 17 17 17 18 18 17 18 18 17 17 16 15 15 15 14 14 13 10 9 10 10 10 9 9 10 5
4 9 19 19 16 14 13 16 17 18 18 18 18 19 20 17 16 13 13 11 13 13 14 14 17 17 16 15 14 14 14 15 17 16 15 15 15 15 17 16 14 13 13 13 12 11 10 9 9 9 8 7 6 5
12 13 7 10 11 9 7 8 10 12 14 16 20 17 16 13 12 8 9 10 11 12 12 12 13 14 14 14 15 14 14 14 15 15 14 13 12 13 14 14 15 16 13 12 11 11 11 11 10 9 7 6 5 3
11 15 14 4 5 7 6 7 9 13 13 14 14 13 10 5 5 7 8 9 10 12 12 11 11 13 13 12 13 13 14 14 13 11 10 10 11 12 12 13 13 14 15 16 17 13 11 11 10 8 5 4 3 3
15 12 10 13 12 9 7 7 7 10 10 8 9 8 6 4 4 6 7 8 9 9 8 10 9 11 11 12 11 12 11 11 11 12 11 10 10 10 10 10 9 8 9 12 13 14 12 7 7 4 3 2 2 3
13 8 5 8 9 3 4 10 10 8 3 2 1 5 4 3 4 4 3 3 4 5 8 8 7 8 10 10 10 11 12 11 9 9 10 10 9 9 9 8 7 6 6 6 6 5 4 3 3 2 2 -0 -1 1
17 15 13 11 6 6 10 9 2 0 1 2 0 -2 0 4 1 1 3 2 4 6 8 7 8 9 8 9 9 10 13 10 10 11 10 9 9 10 10 8 7 7 7 6 6 5 2 2 3 2 1 -0 -2 -3
8 9 6 3 0 -0 4 2 2 -4 -2 -3 -2 0 -0 5 1 1 4 4 3 4 7 8 8 10 11 12 12 14 14 12 14 16 16 15 15 13 9 8 8 8 7 7 6 4 2 0 0 -0 -1 -4 -5 -5

GFSWCAN_sfc_dewp_015.txt.gz
Dewpoint
39 38 38 37 37 38 40 44 44 45 46 47 48 48 53 53 53 51 49 48 46 42 41 41 39 34 40 42 38 35 41 40 43 40 38 37 35 32 32 35 36 34 34 35 35 34 31 32 32 28 35 35 33 34
40 38 38 37 36 37 40 44 43 44 45 47 49 49 53 53 53 52 48 49 48 47 45 45 44 43 41 40 40 35 39 40 44 42 39 38 35 33 31 28 30 32 33 30 31 33 35 34 35 36 36 36 36 36
40 39 38 38 36 37 40 43 43 44 45 47 48 50 53 53 54 52 49 49 48 46 45 44 42 45 45 44 45 42 42 40 41 44 42 40 36 36 32 32 29 29 31 29 28 32 33 34 35 36 36 36 36 35
40 39 38 38 37 37 40 43 43 44 45 47 48 50 53 53 54 52 48 50 50 46 42 42 44 44 45 44 43 43 42 41 39 41 43 41 37 36 34 33 31 31 31 32 31 34 34 34 35 35 35 35 35 35
40 39 39 38 38 37 40 42 43 44 45 47 49 50 53 53 54 52 51 50 51 48 42 41 44 44 44 42 42 41 39 39 39 41 42 41 38 37 37 35 33 33 31 30 28 33 33 34 35 35 35 35 35 35
39 39 38 38 38 37 40 41 43 43 44 46 50 51 53 53 53 50 46 50 51 51 44 40 44 42 44 43 42 42 42 42 42 43 43 41 40 39 40 36 35 33 34 34 32 34 35 35 35 36 35 36 36 36
39 39 38 38 38 37 40 41 42 43 45 47 50 52 52 52 52 47 45 48 51 51 44 40 40 43 43 44 44 43 43 44 44 43 43 42 40 40 38 36 35 34 35 35 35 35 35 35 35 36 36 36 36 33
38 38 38 38 38 37 41 41 42 43 45 47 50 52 52 51 49 47 49 50 51 46 43 38 38 41 42 42 42 43 43 44 43 43 41 40 40 39 37 38 33 35 35 35 35 35 36 36 36 36 36 35 32 30
39 39 39 38 37 38 40 41 42 43 45 46 52 51 49 47 45 47 48 49 48 46 38 37 36 36 42 40 41 41 43 41 42 41 40 40 39 38 39 38 34 36 36 35 37 37 38 37 37 37 35 31 28 28
39 39 38 37 37 39 40 42 42 43 45 51 49 45 41 44 48 47 44 43 41 41 40 38 40 38 40 39 37 38 39 38 35 38 39 37 38 40 38 37 36 37 37 36 36 34 34 34 35 33 28 26 27 28
39 39 37 37 37 40 41 42 42 44 50 46 42 40 45 47 43 40 38 40 39 36 38 38 38 37 39 36 35 37 35 36 35 36 36 35 33 35 37 36 38 39 37 36 37 37 36 35 32 27 27 28 29 30
39 38 37 37 39 40 41 42 42 41 47 44 43 43 42 39 39 36 37 36 34 36 36 36 37 37 36 38 35 34 35 34 32 34 34 30 33 31 34 35 36 36 36 36 35 34 33 29 26 26 27 28 29 30
38 37 37 36 39 41 40 42 41 43 47 44 41 37 38 37 32 32 29 31 31 36 36 36 35 35 35 37 34 33 32 32 32 30 28 31 30 32 34 35 35 35 33 31 27 26 27 26 28 27 27 28 29 30
37 37 36 38 39 39 40 41 40 44 43 37 35 32 34 31 33 34 34 36 36 37 36 37 35 35 33 35 32 32 30 29 27 25 25 27 29 32 34 35 32 29 27 26 26 27 27 27 26 26 27 28 28 27
37 36 38 37 39 39 40 40 40 42 38 33 36 33 32 33 30 31 34 35 37 38 37 36 37 32 33 32 29 28 26 25 25 25 29 31 32 32 34 34 28 26 25 25 25 25 24 24 24 23 24 24 24 23
35 36 36 38 39 39 41 38 39 38 33 33 33 31 30 32 29 29 33 34 38 37 38 38 33 32 29 31 27 26 24 24 30 35 33 30 28 31 34 29 26 25 24 24 24 24 23 24 24 23 22 20 18 19
35 33 37 36 38 39 39 34 35 32 32 32 31 31 32 34 33 32 33 36 37 35 35 35 31 31 30 27 27 28 27 32 34 31 31 31 31 32 33 27 25 24 23 23 23 23 24 25 24 23 21 18 15 14
32 37 37 37 39 38 36 33 32 32 30 32 31 30 30 30 31 32 34 36 36 34 33 34 31 28 27 26 27 31 30 29 29 30 30 27 28 28 26 25 25 26 25 25 27 27 28 27 26 23 22 20 19 17
37 37 37 37 38 35 32 32 32 29 30 31 31 31 31 32 34 34 34 32 32 33 32 31 31 29 28 30 31 31 30 29 27 26 25 25 26 27 29 30 30 29 28 27 24 23 24 25 24 20 17 16 15 14
35 35 36 37 38 34 31 31 34 32 29 31 33 31 32 32 34 32 32 33 34 35 34 32 22 22 23 26 28 30 30 28 26 25 26 27 29 31 31 29 26 25 24 25 25 24 21 19 18 18 18 17 15 15
33 34 35 35 35 34 31 29 30 30 31 29 32 32 31 34 33 33 32 34 33 32 29 25 25 26 28 27 28 28 27 26 24 25 26 25 25 26 27 27 27 24 23 23 21 21 20 18 18 20 21 14 14 13
33 34 32 32 32 31 30 31 29 31 30 30 30 32 31 31 32 32 32 32 30 29 30 29 29 28 26 25 26 27 27 27 27 27 27 25 23 25 25 26 26 26 27 27 25 22 19 17 16 14 15 16 14 10
30 29 28 28 25 24 25 31 27 28 26 27 28 26 26 28 29 33 28 28 27 27 27 26 25 24 22 22 22 22 23 23 22 21 21 22 22 24 24 24 26 25 23 21 21 20 19 18 16 14 15 14 12 8
24 22 20 19 20 19 23 24 26 25 26 24 23 21 22 25 28 28 23 23 24 26 24 23 22 22 22 23 20 20 21 21 21 21 22 22 22 20 20 20 20 22 21 20 20 19 16 15 15 12 12 12 10 8
16 15 17 11 19 18 19 21 22 21 20 21 21 21 22 24 24 22 20 21 21 22 24 23 23 24 22 20 19 20 21 22 21 20 20 20 19 18 18 17 17 18 19 19 17 15 14 13 13 12 12 11 10 10
10 16 16 15 16 16 16 18 20 21 21 20 19 22 23 24 20 16 14 14 16 16 16 20 22 20 18 19 19 19 18 19 20 19 19 19 20 22 21 19 17 16 17 17 16 13 12 12 12 13 12 13 11 8
8 14 19 20 17 16 15 16 17 19 19 18 20 22 22 18 15 12 13 12 13 14 15 16 20 19 17 15 16 16 16 18 19 18 16 15 15 18 21 20 18 16 15 16 14 13 12 10 10 10 10 9 8 7
15 16 12 15 15 14 13 13 15 16 16 18 21 17 17 13 12 9 9 12 13 15 15 16 17 19 18 17 17 16 16 17 17 16 15 14 14 16 16 16 17 17 16 15 14 13 12 12 11 10 9 8 8 6
18 18 17 6 12 15 13 13 14 14 13 14 16 15 11 6 7 7 9 11 13 16 16 14 15 17 16 15 16 17 17 17 17 15 13 13 13 13 16 16 16 16 16 15 16 14 13 12 11 9 7 6 6 6
18 19 15 13 7 12 13 10 14 14 11 10 10 9 7 7 7 9 10 10 11 10 11 13 14 17 15 15 14 14 14 14 14 16 14 13 13 13 14 14 14 15 17 16 16 15 16 11 10 6 5 5 5 5
17 16 13 13 13 11 11 12 13 10 10 9 8 11 8 7 7 7 6 6 8 11 13 13 12 14 14 14 15 14 14 14 12 12 14 13 13 13 12 11 10 10 12 12 10 9 8 6 6 5 4 2 1 2
17 16 15 12 10 11 12 12 10 9 10 12 8 7 6 9 8 4 4 6 9 10 13 12 11 11 12 12 13 14 16 13 14 14 13 11 11 11 10 9 10 10 9 8 8 6 4 5 5 3 2 1 -0 -1
14 13 10 8 8 8 10 10 9 8 7 6 5 5 5 7 7 3 5 6 6 7 10 11 12 13 13 14 15 15 14 13 14 16 16 16 15 13 11 10 10 9 8 7 7 6 4 2 2 1 0 -2 -4 -3

GFSWCAN_sfc_dewp_018.txt.gz
Dewpoint
41 40 40 40 39 39 37 38 40 43 44 45 46 47 49 50 54 52 49 50 48 44 44 42 41 37 42 42 38 40 40 40 43 38 38 37 35 35 36 38 34 35 35 36 36 34 30 32 31 29 34 34 34 36
39 38 40 40 39 39 37 38 40 43 43 44 45 47 49 50 53 53 48 49 50 47 46 45 44 44 42 45 41 40 41 41 44 42 40 38 35 33 31 34 38 34 35 34 36 36 35 35 35 36 37 35 36 37
40 40 40 40 39 39 38 37 40 43 43 44 45 47 49 49 53 52 49 49 49 46 45 45 43 45 45 46 47 42 43 44 42 44 42 40 36 37 31 30 31 32 31 31 30 32 34 35 35 36 37 37 37 37
40 40 40 40 39 38 38 38 39 43 42 44 45 47 48 49 53 52 49 49 49 47 43 43 45 44 45 46 46 46 45 44 45 46 43 41 39 37 37 34 31 31 31 31 31 34 34 35 35 36 35 36 36 36
40 40 40 39 39 38 38 38 39 43 42 43 45 46 48 50 53 52 51 50 51 48 43 42 44 44 44 44 44 46 45 45 42 43 43 41 39 37 37 35 34 32 31 31 31 33 33 34 36 36 35 35 36 36
40 40 40 38 39 38 38 38 39 42 42 44 44 46 50 51 53 51 46 50 51 50 46 39 44 43 44 43 42 42 42 43 43 44 43 41 40 39 35 35 36 33 34 35 33 35 35 36 36 36 36 36 36 36
39 40 40 38 39 39 38 37 40 41 43 43 44 46 48 52 52 47 45 48 51 51 44 39 39 43 43 44 44 44 44 44 44 43 42 41 40 40 39 37 36 34 35 35 35 35 35 35 35 36 36 36 36 33
40 40 40 40 40 39 37 38 40 41 42 43 45 47 49 52 50 47 49 51 50 46 44 37 38 41 43 43 42 43 43 44 43 42 41 40 39 39 36 38 35 35 35 35 35 36 36 36 36 35 34 33 31 31
41 40 40 40 39 38 37 39 41 42 43 43 45 48 50 48 45 46 49 49 48 46 38 38 35 35 42 41 41 42 43 40 42 40 40 39 38 34 39 39 35 35 35 35 37 36 36 35 35 34 33 30 29 29
40 40 40 39 38 37 38 40 42 42 42 44 45 45 41 45 48 47 45 43 41 41 41 38 41 37 40 39 38 38 38 37 34 37 38 36 34 39 39 38 36 37 37 36 35 34 35 32 33 32 28 27 29 29
41 40 39 39 37 37 39 41 40 42 43 46 42 40 45 48 43 42 38 37 39 35 38 39 40 37 40 37 36 37 34 34 33 33 35 33 33 36 36 36 38 37 37 36 36 36 36 35 31 27 28 29 30 30
40 39 38 37 37 38 39 41 41 39 35 38 42 44 43 39 38 35 35 34 34 33 36 37 38 38 37 38 35 35 33 32 31 33 33 29 32 30 33 35 37 36 36 36 36 35 34 29 28 28 29 29 31 32
39 38 38 37 37 39 38 40 41 41 41 43 41 36 38 35 32 30 28 30 31 35 35 35 34 34 35 35 33 33 28 31 31 29 28 29 29 32 33 35 35 36 36 32 30 28 27 27 28 28 28 30 31 31
38 37 36 37 38 38 37 40 41 39 37 36 32 32 33 31 31 31 31 31 34 35 36 35 34 34 34 32 32 23 28 29 22 20 22 28 28 33 34 34 30 28 27 27 27 27 27 27 27 28 29 29 29 28
37 35 36 37 37 37 38 41 39 38 35 32 33 32 32 32 31 32 33 33 36 38 36 34 33 33 30 27 28 27 24 17 24 24 28 28 28 32 32 30 27 26 26 26 26 26 26 26 25 25 25 25 24 22
36 36 36 36 37 38 39 38 36 38 32 32 32 31 32 31 29 30 33 34 37 37 35 34 29 23 23 26 21 19 20 19 24 28 27 27 31 32 30 26 25 25 25 25 24 24 24 23 22 21 20 19 20 19
36 34 36 37 37 38 39 35 34 32 32 32 31 32 32 29 29 31 33 36 37 35 32 30 23 20 29 21 20 24 23 27 27 25 26 26 30 30 27 26 25 24 24 24 24 24 24 23 22 20 17 16 14 14
33 36 37 37 37 37 36 33 32 32 30 32 31 31 30 31 31 33 35 36 35 32 32 32 30 26 21 19 21 27 27 22 25 27 27 30 30 26 25 25 25 24 25 26 25 24 24 24 23 20 19 18 16 15
35 34 36 37 37 35 32 33 32 29 29 31 31 32 32 33 34 35 36 34 32 32 32 32 28 23 24 25 26 25 25 24 26 26 27 27 26 27 28 28 27 26 25 24 24 25 24 23 21 19 17 17 15 14
34 34 36 36 36 32 30 31 33 31 28 30 32 31 32 31 33 32 32 32 34 33 31 26 24 23 25 26 28 30 28 27 26 26 27 28 29 29 28 27 25 25 24 23 23 23 20 18 18 18 17 16 15 15
34 35 34 35 34 32 30 29 29 30 30 30 31 32 31 33 32 32 32 34 33 32 28 26 26 27 28 28 29 29 27 25 25 27 27 26 27 27 26 25 24 24 23 22 21 22 19 18 19 18 16 13 12 12
33 33 32 32 27 27 29 31 28 30 30 29 30 32 31 30 31 31 32 31 29 29 30 28 28 27 25 25 26 27 28 27 27 27 28 27 25 25 25 24 24 24 24 23 21 19 18 17 15 16 17 15 12 9
30 29 28 24 17 19 23 31 26 27 25 26 28 27 26 27 29 32 27 27 26 27 29 27 27 27 24 23 23 23 25 25 24 24 24 24 24 25 25 25 25 23 21 20 20 18 17 19 18 16 16 13 10 8
25 20 15 15 16 11 21 23 27 25 26 24 23 22 21 24 27 26 22 22 24 27 26 26 25 22 22 22 21 21 22 22 22 22 22 22 21 20 21 21 21 20 20 20 18 16 15 15 17 13 12 10 9 8
11 8 11 2 12 11 10 17 21 22 20 21 21 21 21 24 24 21 19 18 19 18 22 26 23 22 20 20 20 20 22 22 21 20 20 19 18 18 17 18 18 18 19 17 15 14 12 12 12 11 11 9 6 4
1 7 7 8 8 9 12 11 16 19 21 20 20 23 23 24 18 13 12 12 14 14 14 15 20 20 19 20 19 18 18 20 20 18 18 20 20 18 16 16 15 14 16 16 14 12 12 11 11 9 9 9 12 5
0 4 17 20 17 15 13 15 16 18 17 16 19 21 21 16 12 11 13 11 12 13 15 16 20 18 17 16 16 17 17 19 18 16 15 16 16 18 18 17 14 14 16 14 13 12 11 10 9 8 7 5 3 3
13 13 6 9 12 12 7 8 7 8 14 16 20 14 13 10 8 9 10 12 13 14 16 17 18 18 17 17 17 17 16 16 16 16 15 15 16 16 16 17 17 18 14 13 12 12 11 10 9 7 6 4 1 2
13 16 15 2 4 8 5 6 8 12 12 13 14 12 9 7 7 7 9 11 13 17 15 15 15 17 17 17 18 18 19 19 17 14 12 11 10 12 14 15 15 15 14 14 17 13 9 8 8 6 4 4 2 -1
11 15 9 1 1 4 5 7 7 10 10 9 10 9 9 7 8 10 10 9 10 11 13 14 17 18 16 15 14 14 14 14 16 16 13 11 10 12 13 14 15 15 13 14 14 15 17 9 8 3 2 2 2 1
15 10 5 7 3 3 5 9 9 11 5 2 6 6 6 6 8 9 7 7 9 13 15 13 14 16 17 16 16 14 13 13 13 14 14 13 13 11 11 10 11 12 11 9 8 6 3 1 -2 -3 -3 -6 -6 -3
16 7 3 3 0 4 5 2 1 0 1 0 -1 -1 2 8 7 5 6 7 12 12 16 15 13 11 13 14 14 16 17 13 14 13 12 11 9 9 9 9 8 8 8 6 4 3 -1 -3 -2 -3 -2 -7 -8 -8
8 5 1 -1 -3 -2 3 -1 -0 -3 -2 -5 -3 -1 -3 1 0 1 5 5 4 7 10 12 13 13 14 14 14 15 14 13 15 18 17 15 14 13 10 9 9 8 7 6 4 2 -1 -5 -5 -5 -6 -9 -11 -10

GFSWCAN_sfc_dewp_021.txt.gz
Dewpoint
40 40 40 40 40 41 40 40 37 38 41 43 44 45 46 49 50 51 48 50 48 44 44 43 41 38 42 42 38 41 41 42 42 39 38 38 36 37 35 36 34 35 35 35 35 33 28 32 29 26 32 34 36 36
39 40 41 41 40 40 40 38 38 38 40 43 44 44 46 48 50 52 47 50 51 46 46 47 44 43 42 46 43 42 42 42 44 40 38 40 36 33 35 34 37 34 36 36 34 34 36 35 34 36 36 35 36 36
39 39 40 41 40 40 40 38 38 38 39 42 43 44 46 48 49 52 48 49 48 45 44 45 43 44 45 46 48 42 43 45 43 44 42 40 35 36 30 31 34 35 34 33 33 33 33 34 35 36 37 37 37 36
39 39 40 41 40 39 40 38 38 38 40 42 43 45 46 48 49 51 48 49 49 47 42 42 45 43 46 47 47 48 46 45 46 45 43 40 38 37 37 33 32 31 32 32 31 34 34 34 35 36 36 36 36 37
41 40 40 40 40 39 39 39 37 38 40 42 43 44 45 48 50 52 50 50 51 48 43 42 44 44 44 46 46 47 47 46 45 44 42 41 41 36 37 35 33 31 30 31 31 33 31 33 36 36 35 36 36 36
40 41 39 40 40 40 40 40 37 38 40 42 43 43 45 47 49 50 45 50 51 50 45 39 44 42 43 44 45 45 46 45 45 44 43 42 41 40 33 32 35 33 34 34 33 35 35 36 36 36 36 36 36 36
41 41 41 40 41 40 40 38 37 39 41 43 42 43 44 47 49 47 44 46 51 51 45 37 39 43 43 43 44 44 44 45 44 42 42 40 39 39 39 36 37 34 35 35 36 35 35 35 35 36 36 36 36 34
42 41 41 41 40 40 39 37 38 40 43 41 42 43 45 47 50 47 49 51 51 47 45 35 37 40 43 43 41 43 43 44 42 42 40 40 38 39 36 38 34 35 35 35 36 36 36 36 35 34 34 33 33 32
42 41 41 41 40 39 38 37 40 41 41 41 42 44 46 48 46 46 48 48 48 46 39 37 35 34 42 41 41 41 41 38 40 38 38 38 38 35 36 37 34 35 35 35 36 36 36 34 33 32 31 31 31 31
41 41 40 40 39 38 37 38 39 42 42 43 43 43 41 45 49 48 45 43 41 41 41 38 41 37 40 39 38 37 37 36 34 37 36 34 34 39 40 39 36 36 36 35 34 32 33 31 32 30 29 29 30 30
40 40 39 39 38 37 37 39 39 42 40 40 40 40 45 48 44 42 38 37 38 35 39 40 39 37 39 36 36 35 33 34 33 34 35 33 34 36 34 34 36 37 36 36 36 35 35 33 31 28 29 29 30 30
40 39 38 37 36 37 38 38 38 40 37 35 35 39 43 40 37 35 35 34 35 34 37 38 39 39 39 40 36 35 33 32 30 33 32 30 32 30 33 34 35 36 36 36 36 35 33 28 28 29 29 30 31 31
38 38 37 36 37 37 37 38 39 41 39 39 37 35 35 35 32 32 29 32 32 35 36 36 34 34 36 37 33 31 25 25 30 26 27 29 29 31 32 34 35 36 36 35 33 29 29 29 29 30 30 31 32 31
37 37 37 37 37 37 37 37 40 39 34 33 32 30 31 29 30 30 31 30 32 33 35 36 34 34 34 33 32 24 28 27 22 22 21 26 28 32 33 33 31 30 29 28 28 28 28 29 29 30 30 30 30 29
37 37 37 36 36 37 37 39 40 38 33 31 32 31 32 30 30 31 31 35 34 37 35 33 32 30 27 30 27 26 23 19 23 22 26 23 26 29 28 27 27 27 27 26 26 27 27 27 27 26 26 25 23 20
37 36 34 35 37 37 37 39 37 37 32 31 32 31 32 30 28 30 32 33 35 37 33 31 26 19 21 22 19 16 19 18 23 27 25 25 30 29 27 26 26 26 25 25 26 25 25 24 23 21 20 20 19 17
37 32 35 37 36 37 38 35 34 32 32 32 30 32 32 23 24 29 34 35 37 34 30 26 19 18 23 16 16 20 20 24 29 23 23 24 29 26 25 26 25 25 25 24 24 23 21 20 18 17 16 14 15 15
32 34 37 36 36 35 36 33 32 32 29 30 30 30 31 31 29 32 35 37 35 30 30 25 26 19 19 16 17 22 23 18 20 25 27 28 26 25 25 24 25 25 25 25 24 23 22 20 18 16 16 16 15 14
34 34 35 36 36 35 31 31 32 28 28 30 30 32 32 33 34 34 35 33 31 33 32 28 22 19 22 23 23 18 18 22 26 27 27 25 25 26 26 27 27 26 25 24 24 23 23 21 18 16 15 15 13 13
34 35 35 35 35 31 21 25 33 29 27 29 32 31 31 31 33 32 32 32 32 31 27 21 23 24 24 25 25 24 25 27 28 27 26 27 27 27 27 26 24 24 23 22 22 22 19 18 17 17 15 15 14 15
34 33 33 32 29 31 21 22 24 29 29 28 31 31 31 32 32 32 32 33 33 31 23 25 26 27 27 27 29 29 27 28 28 28 27 26 26 26 26 25 25 24 22 21 20 21 19 18 18 18 17 13 13 12
30 33 28 28 18 17 20 26 24 29 28 28 29 30 29 30 31 31 32 30 27 27 28 28 27 27 25 24 26 27 27 28 28 29 29 27 24 25 25 25 24 22 20 19 19 19 17 16 16 15 14 14 10 6
30 26 20 15 11 10 14 22 18 23 22 24 27 25 25 26 28 31 25 25 24 27 27 27 26 25 23 23 25 26 27 27 26 26 26 25 25 25 25 24 23 21 19 18 18 17 17 20 18 13 12 11 10 9
24 16 12 10 8 6 15 11 22 20 23 22 22 20 22 23 26 25 19 19 20 23 25 26 26 25 25 23 22 22 23 24 23 23 24 24 23 21 22 21 20 20 19 18 18 17 17 17 18 11 9 7 7 7
6 3 4 -3 2 7 4 7 8 15 15 20 19 19 21 23 22 18 14 13 15 15 15 21 24 24 22 21 22 22 22 23 22 20 20 20 20 19 19 19 19 19 18 17 15 15 13 12 11 9 8 7 6 4
-3 -0 2 0 1 5 7 3 5 10 17 18 20 22 23 22 14 10 10 9 11 12 12 13 15 21 19 21 20 20 20 21 21 19 19 20 20 20 18 18 17 17 17 15 14 12 11 11 9 7 7 10 13 4
-3 -1 14 19 15 14 10 12 12 11 9 12 17 18 20 14 10 10 12 10 10 12 14 15 18 19 17 17 18 17 17 18 18 17 18 17 18 19 20 18 16 15 15 15 14 12 11 11 10 8 5 3 1 2
10 10 4 4 9 7 3 3 2 0 8 13 16 11 11 8 9 8 9 12 12 13 16 17 19 19 18 18 18 17 17 17 17 17 17 16 16 17 17 17 17 19 15 13 12 12 11 9 7 6 4 3 -1 -0
10 13 11 -0 0 1 0 1 3 9 11 10 10 10 8 7 7 7 9 10 13 16 16 15 16 18 18 18 18 18 19 19 18 15 14 13 13 14 14 15 15 16 16 15 17 13 8 8 7 6 4 4 1 -3
8 9 4 -5 -1 1 1 4 3 7 7 6 8 10 8 7 8 10 9 9 10 11 14 16 18 18 16 16 15 14 15 16 19 17 14 12 12 13 14 14 14 14 15 15 15 15 17 10 9 3 2 1 0 -1
12 3 0 -0 -2 -3 -0 5 4 9 -0 -4 -4 3 7 5 8 9 7 7 10 15 15 15 15 17 17 17 16 15 13 14 15 15 14 14 13 13 14 14 14 13 11 9 8 7 4 0 -1 -4 -4 -7 -6 -4
11 1 1 -1 -1 -0 1 -3 -6 -7 -7 -7 -7 -8 5 8 5 5 6 7 13 12 16 15 13 12 15 16 17 17 17 15 14 14 13 12 12 12 12 12 11 9 7 6 4 3 1 -1 -2 -3 -4 -9 -9 -9
3 0 -8 -8 -6 -5 -1 -3 -5 -7 -8 -11 -7 -5 -7 2 5 4 7 8 7 8 10 12 13 14 14 15 15 15 15 13 15 17 17 16 16 14 10 9 8 7 5 4 3 1 -2 -5 -6 -6 -8 -10 -13 -12

GFSWCAN_sfc_dewp_024.txt.gz
Dewpoint
40 41 40 39 41 41 41 41 40 38 37 40 41 44 45 47 48 49 49 49 48 44 44 42 40 41 43 42 38 41 41 41 42 38 37 38 36 36 34 34 32 35 34 34 33 29 24 33 29 26 29 36 36 35
40 40 40 39 40 41 40 40 40 38 38 39 41 44 45 46 48 49 47 50 51 47 45 47 45 44 42 44 43 43 42 42 43 40 40 38 37 34 33 31 34 33 36 35 34 32 34 35 35 36 35 36 36 36
40 41 41 41 40 41 40 39 40 39 37 38 40 43 44 45 47 49 48 49 49 45 44 45 43 45 45 47 48 42 43 45 45 45 42 39 37 35 34 34 34 35 36 36 35 34 35 34 36 36 36 36 36 36
41 41 40 41 40 41 40 40 40 40 37 38 41 43 44 44 47 49 49 50 49 46 41 42 45 43 46 47 48 48 47 47 47 46 42 39 38 37 36 32 34 36 33 32 32 33 34 35 36 36 36 36 36 35
41 41 41 41 41 40 41 40 40 39 38 39 41 43 43 44 47 48 50 50 51 47 42 43 43 44 45 46 46 47 47 46 45 44 42 41 41 37 36 34 33 31 32 32 33 33 31 32 36 36 36 36 36 35
41 40 41 42 41 41 41 40 40 38 38 39 41 43 42 43 46 46 45 50 51 50 44 40 44 43 43 45 45 46 46 45 45 44 43 42 41 39 33 32 34 33 32 34 32 35 35 36 36 36 36 36 36 36
42 42 42 41 41 41 40 40 38 37 40 40 42 41 42 43 45 45 44 47 50 50 45 37 39 43 43 43 44 44 45 45 45 43 42 40 39 40 38 36 37 34 35 35 36 35 35 35 35 36 36 36 36 35
43 42 41 41 41 40 39 38 37 39 40 40 42 42 42 43 47 45 49 50 51 47 45 35 37 40 43 42 41 45 44 44 42 41 40 40 39 38 36 38 35 35 35 36 36 36 36 36 35 34 34 34 34 33
41 40 40 40 40 38 37 37 38 39 39 42 42 43 44 45 45 46 49 49 49 45 39 37 34 33 42 41 41 41 42 40 41 39 38 38 37 34 36 36 34 35 35 35 35 35 35 34 34 33 32 32 31 31
40 40 40 38 38 37 37 38 38 37 41 42 43 42 39 45 49 48 47 44 41 41 41 38 40 38 40 39 38 38 38 37 33 37 38 34 34 38 39 39 36 36 36 35 34 31 32 31 32 31 30 30 30 30
40 39 38 37 36 37 38 37 37 39 41 38 34 37 39 47 46 43 38 38 38 35 39 40 39 36 39 36 36 37 34 34 32 33 35 31 33 35 33 34 36 36 36 35 35 34 34 32 30 29 30 30 30 30
39 38 38 37 37 38 37 37 38 39 40 38 36 36 38 40 38 36 35 35 35 34 37 38 38 38 39 40 36 35 31 32 31 32 33 31 33 30 32 33 33 35 35 35 35 34 31 29 29 29 29 30 30 30
38 38 38 38 37 37 37 38 37 40 39 38 35 32 33 34 32 32 30 32 33 35 36 36 35 36 38 38 34 33 31 31 30 28 27 29 29 30 31 34 34 35 35 34 31 29 29 29 30 30 30 31 31 30
38 38 38 38 34 35 38 38 38 40 36 32 31 29 30 30 32 32 32 31 32 32 36 36 34 34 34 33 32 22 29 27 22 23 23 25 28 32 33 33 34 33 32 30 29 29 30 30 30 31 31 31 31 29
39 39 40 36 35 37 37 38 39 39 34 30 31 28 31 32 31 31 31 33 34 37 35 33 33 32 31 30 26 26 24 22 23 23 25 23 25 28 30 29 29 29 29 28 28 29 29 29 29 28 28 28 27 25
39 37 33 35 37 37 37 38 38 37 32 31 31 30 33 31 30 31 32 33 35 36 32 33 28 29 28 25 18 18 20 19 24 25 23 23 29 28 27 28 28 28 28 27 28 27 27 27 25 22 20 19 18 18
38 31 34 38 37 37 37 36 34 32 31 31 29 32 32 31 29 31 33 35 38 35 31 24 24 22 21 14 16 19 20 22 21 22 21 24 27 26 26 26 26 26 26 25 25 24 22 21 20 19 16 15 15 15
32 33 38 36 35 35 34 34 30 31 27 28 28 26 33 32 31 31 33 36 35 31 30 26 27 24 19 16 17 22 25 24 19 23 25 26 25 26 26 25 25 25 25 24 24 22 21 20 18 16 16 16 15 13
36 36 35 35 35 32 31 30 30 20 22 30 29 31 33 33 34 33 33 33 32 33 31 29 21 19 22 22 18 21 14 20 25 27 26 25 25 25 26 27 27 26 25 24 21 20 19 18 16 15 14 14 13 11
36 34 35 34 34 29 20 20 29 24 18 24 31 30 31 31 33 33 32 32 32 32 27 22 22 25 25 25 24 23 23 26 28 25 25 25 26 26 26 26 25 24 23 23 22 21 18 16 16 15 14 14 13 12
32 32 32 30 26 30 23 24 17 25 25 21 27 30 30 32 32 32 32 33 33 29 23 25 25 26 26 25 28 28 28 30 30 28 26 25 26 26 25 25 25 23 22 21 20 21 19 16 16 18 18 15 13 9
29 32 28 24 16 13 16 23 20 23 22 20 25 28 28 28 30 31 32 29 26 24 27 27 26 25 25 25 26 27 28 29 28 28 29 27 24 25 25 25 24 23 22 21 20 18 17 16 15 15 15 14 13 10
29 24 18 13 8 7 10 17 13 11 14 16 22 24 24 25 27 30 24 23 23 23 25 26 23 24 24 25 27 27 29 28 27 26 25 25 25 25 25 24 23 21 19 18 18 17 17 19 18 13 13 10 10 10
23 15 11 8 6 3 11 5 15 13 11 16 15 20 22 23 26 23 17 18 18 18 17 19 26 24 25 24 22 23 25 26 25 25 25 24 23 22 22 21 20 20 19 18 19 19 16 15 17 11 10 9 7 6
6 1 3 -6 -1 4 0 4 2 8 5 9 12 18 21 23 20 15 13 12 13 13 13 14 20 24 22 21 22 22 23 25 24 22 23 22 21 20 19 19 18 18 19 18 17 17 15 12 11 9 7 7 5 4
-1 -2 -0 -2 -2 3 4 2 1 2 8 7 13 18 22 20 14 10 10 9 10 12 11 11 12 14 19 21 21 21 22 24 23 21 22 25 24 23 20 18 17 16 17 18 17 14 12 10 9 8 8 10 14 4
-1 -1 13 18 14 12 8 10 10 7 0 5 10 12 15 11 11 10 10 11 10 12 13 14 14 18 18 18 19 20 20 21 23 20 20 19 19 21 22 20 18 16 16 17 15 13 11 9 9 9 8 5 3 2
9 8 5 4 7 6 2 1 -1 -1 4 10 12 5 7 7 7 7 9 12 11 12 13 17 19 19 18 18 19 19 19 19 19 18 17 17 17 18 18 18 18 20 15 14 14 13 11 11 9 7 5 4 0 -1
9 11 10 -1 -0 -1 -1 1 2 8 10 8 2 8 6 7 5 5 8 10 11 14 16 16 16 18 18 18 18 19 21 22 22 19 16 15 15 14 17 18 17 16 16 16 18 14 10 9 7 6 5 4 1 -5
8 9 4 -7 -1 1 -0 3 1 5 6 5 7 7 7 4 4 9 8 8 9 10 14 17 18 18 17 17 16 16 16 19 22 21 18 16 14 15 16 15 15 15 15 14 14 14 17 13 11 4 2 1 -0 -2
11 3 -2 -2 -3 -5 -2 4 4 8 -2 -7 -6 -2 1 4 7 9 7 6 9 14 16 15 15 17 18 17 17 17 15 16 17 17 17 15 15 15 15 15 15 15 14 13 11 10 8 1 -0 -2 -2 -5 -6 -5
11 -1 -0 -2 -2 -1 0 -4 -9 -9 -9 -8 -8 -8 -4 4 5 5 6 7 12 11 16 15 14 13 15 16 17 19 19 16 16 16 15 14 14 14 13 12 11 10 9 7 5 3 1 -2 -3 -4 -5 -10 -10 -9
1 -3 -11 -9 -6 -5 -2 -4 -5 -8 -9 -12 -8 -7 -8 2 5 4 7 9 8 9 11 12 13 14 14 15 16 16 16 15 17 19 19 18 18 15 11 9 8 7 5 4 3 1 -1 -5 -6 -6 -8 -11 -13 -12

GFSWCAN_sfc_dewp_027.txt.gz
Dewpoint
41 41 41 42 41 40 41 41 40 40 40 38 38 40 44 45 46 48 47 50 48 44 43 42 41 42 43 40 37 40 40 41 41 38 36 36 34 34 33 33 35 33 33 32 31 28 22 32 29 26 28 35 36 35
40 40 41 41 41 41 40 41 40 40 40 38 38 39 43 44 45 48 46 50 51 46 45 48 46 44 43 45 43 43 41 41 43 39 39 39 37 36 32 29 33 32 35 33 32 31 34 35 35 37 35 35 35 35
41 42 41 41 40 41 41 41 41 40 40 38 38 40 43 44 45 46 47 50 49 46 44 44 43 45 45 48 48 41 43 45 45 45 41 40 37 35 32 32 32 34 36 35 35 33 34 35 36 36 36 35 36 36
42 41 41 40 41 42 41 41 41 40 40 38 39 41 42 43 43 45 46 49 49 46 41 41 45 44 45 48 49 48 47 47 47 46 43 40 37 37 34 33 34 36 35 34 33 33 34 35 36 36 36 36 35 35
41 42 42 42 42 42 41 41 40 40 38 38 39 41 44 42 43 45 46 50 50 47 42 43 44 44 45 46 47 48 47 46 45 44 43 41 40 37 36 34 33 32 34 33 33 34 32 32 36 36 36 35 34 33
42 42 42 42 41 41 41 40 39 38 37 39 40 40 42 42 43 45 45 50 50 50 44 39 44 43 43 45 45 45 46 45 45 44 43 43 41 39 33 33 36 34 33 35 34 35 35 36 36 36 36 35 35 34
42 41 40 40 40 40 40 38 37 37 38 39 39 39 40 42 43 41 43 46 50 50 45 38 38 43 43 43 44 44 45 45 45 44 43 41 39 40 38 34 37 34 34 35 36 35 35 35 35 36 36 36 36 35
41 40 40 39 39 38 37 37 38 39 37 38 39 41 42 43 43 43 46 49 50 47 46 35 37 40 43 42 41 45 44 44 43 42 41 40 40 38 35 37 36 35 35 35 36 36 36 36 35 35 35 35 34 33
41 40 39 39 38 37 37 38 37 37 37 40 42 43 43 43 43 47 50 49 48 45 39 38 34 33 42 42 41 41 42 40 41 39 39 39 37 34 36 36 35 35 35 35 35 36 35 35 34 34 34 34 33 33
41 40 39 38 38 37 37 38 37 38 40 42 42 42 39 44 47 49 47 44 41 42 41 39 38 37 39 40 38 38 38 37 34 37 38 35 35 37 38 38 37 36 35 35 34 31 33 32 32 32 32 33 33 32
41 40 39 38 38 38 36 37 37 39 40 39 35 34 37 40 44 44 38 38 38 35 39 38 38 37 38 36 37 37 34 34 32 30 35 33 32 34 33 35 37 36 36 34 35 34 34 33 31 30 30 30 30 30
40 39 39 39 38 36 36 36 38 38 38 39 38 37 36 38 38 35 34 35 35 35 38 38 37 37 37 39 36 35 31 32 29 31 33 30 31 30 32 33 33 36 35 35 34 33 32 31 30 30 30 29 29 26
40 39 39 39 39 34 36 38 37 39 39 38 35 31 33 34 31 32 30 33 32 35 36 36 35 37 37 38 34 30 33 32 30 28 27 29 28 29 31 33 33 34 35 33 31 30 30 30 30 30 30 29 27 24
40 39 40 39 35 36 38 37 38 39 37 32 31 28 29 31 32 32 32 33 32 31 36 36 34 34 35 34 33 32 29 27 23 23 22 25 27 30 31 32 33 33 31 30 30 30 30 29 30 30 30 28 27 25
39 39 40 35 36 38 37 37 39 39 34 30 31 26 31 33 32 31 32 33 34 37 34 34 33 33 32 30 27 27 26 23 24 25 23 22 22 26 30 31 31 30 30 29 29 29 30 30 30 30 30 28 26 22
39 39 30 36 38 37 36 37 38 37 32 30 30 29 33 31 31 31 32 32 35 37 34 34 30 30 29 29 19 19 20 21 26 24 22 19 27 28 28 29 29 29 29 29 29 29 29 28 27 25 24 23 21 17
39 31 33 39 37 36 36 36 34 32 31 30 29 32 31 31 31 31 33 34 38 34 33 31 28 25 22 14 16 19 21 27 22 20 20 22 24 27 27 27 28 28 28 28 27 26 24 24 23 22 19 16 16 15
32 33 39 37 35 34 33 34 30 28 25 19 25 26 30 32 31 32 32 35 36 33 30 28 26 22 19 17 17 22 22 26 20 21 24 24 24 26 26 26 26 26 25 25 25 25 24 22 19 17 17 16 15 14
35 37 36 35 34 29 29 30 31 24 17 27 29 29 30 31 34 35 33 34 33 34 31 29 21 20 23 23 22 20 21 21 25 27 25 25 25 25 26 26 26 25 25 24 22 21 19 18 17 16 14 14 12 11
37 34 34 34 33 24 24 17 25 26 20 19 28 25 27 29 33 33 33 33 32 32 31 29 24 24 26 27 26 25 25 25 26 24 24 24 25 25 26 25 24 24 22 21 20 20 17 15 15 14 14 13 11 11
32 31 32 28 26 29 24 25 18 24 26 24 16 22 26 31 31 32 32 33 32 32 29 26 25 26 27 27 27 28 27 29 28 27 25 23 25 25 25 25 25 23 21 19 18 20 18 15 15 17 17 12 10 8
29 31 25 22 14 10 14 25 22 21 24 16 16 16 20 23 28 28 29 29 24 23 24 25 26 25 25 25 26 28 28 28 28 28 28 27 25 24 25 25 24 23 23 22 20 18 17 17 16 15 14 13 12 11
27 23 17 12 7 5 7 13 11 8 12 10 11 10 17 21 27 29 22 22 19 20 19 22 22 25 24 25 27 28 28 28 26 26 26 25 25 26 25 24 24 22 20 18 18 17 17 20 18 14 14 11 11 11
22 14 10 7 4 1 9 3 12 9 7 9 4 6 13 19 25 22 17 16 17 18 16 16 17 24 25 24 23 25 26 26 25 25 25 25 24 22 22 22 21 21 20 19 19 19 17 16 18 13 12 11 9 7
9 2 4 -6 -3 0 -2 1 -3 6 2 2 5 4 14 19 18 16 13 14 13 13 13 14 15 16 20 22 22 23 25 25 25 24 23 23 21 20 20 19 19 19 20 19 17 17 16 13 13 12 10 9 7 5
2 -1 1 -4 -4 1 3 0 -1 0 3 1 7 12 13 15 10 11 11 10 10 11 11 11 10 12 15 20 22 23 23 24 24 22 23 23 23 22 20 19 18 18 19 19 18 15 14 13 11 9 9 11 14 5
0 -0 10 16 13 11 8 8 8 5 -2 -1 1 3 8 5 7 9 11 11 10 12 13 13 12 13 15 19 20 20 21 22 23 21 22 23 25 26 24 22 20 18 19 19 17 15 13 11 9 10 11 9 7 5
10 8 6 5 6 4 0 1 -2 -1 2 9 9 -0 3 10 9 5 5 11 11 11 12 14 17 18 18 18 19 19 19 20 20 21 21 20 21 21 20 19 19 21 18 17 15 13 11 11 11 11 9 5 2 -1
9 10 10 -2 -1 -1 0 2 2 6 9 6 2 2 3 8 -0 -2 3 5 8 11 13 15 17 18 18 19 19 20 21 22 22 19 17 16 16 16 19 19 19 20 20 18 18 15 12 12 11 8 6 4 2 0
9 8 3 -8 -0 1 -0 2 0 3 5 4 6 4 5 1 -0 2 3 1 1 6 11 16 17 18 17 18 17 17 18 20 22 21 19 17 15 17 19 19 19 18 17 16 16 16 19 14 12 7 4 4 3 1
9 2 -3 -2 -3 -6 -4 1 3 7 -3 -9 -7 -3 -2 -3 2 4 2 5 6 11 15 15 15 16 17 17 18 18 16 17 19 19 18 17 17 18 18 18 17 16 16 14 13 12 9 5 4 2 1 -1 -1 -3
9 -2 -0 -3 -3 -3 -3 -7 -10 -9 -11 -8 -7 -11 -7 -1 1 -0 4 6 10 11 15 14 13 13 15 16 18 20 20 18 18 18 17 16 16 15 15 14 14 13 11 10 8 5 4 2 1 -0 -2 -5 -7 -8
-3 -5 -11 -10 -7 -6 -3 -6 -6 -10 -10 -11 -9 -9 -10 -1 1 -1 5 7 8 9 11 12 14 15 15 15 16 17 18 18 21 23 22 21 19 16 12 11 10 9 7 5 4 2 1 -2 -3 -4 -6 -9 -12 -12

GFSWCAN_sfc_dewp_030.txt.gz
Dewpoint
40 41 40 42 41 41 41 42 41 41 41 41 40 38 40 43 45 45 45 48 48 43 42 42 42 42 42 41 37 40 39 41 41 36 36 36 35 34 32 32 34 32 34 32 32 30 22 33 31 27 29 34 35 35
41 42 41 41 42 40 41 41 41 41 41 41 39 39 40 43 44 45 44 48 51 46 45 47 46 44 45 44 42 43 41 42 42 37 39 39 37 34 30 29 32 31 33 31 32 31 33 35 35 36 35 35 34 34
42 43 42 42 42 42 42 42 41 41 40 40 38 39 40 44 43 44 44 46 49 45 44 43 43 47 47 48 49 42 43 43 44 43 40 39 35 35 32 31 29 33 35 34 34 33 34 35 36 36 36 36 36 36
42 42 42 42 41 41 42 42 41 40 40 39 38 39 41 42 43 43 43 45 47 46 40 40 45 45 47 49 49 48 46 47 46 46 43 40 37 37 33 33 33 35 36 34 34 34 34 34 35 35 35 35 35 34
42 42 42 40 40 40 40 40 40 39 38 38 38 40 41 40 41 43 44 45 49 47 42 42 44 45 46 47 47 48 47 45 45 43 43 41 41 37 35 33 32 33 35 34 33 35 33 33 36 36 35 34 34 33
42 41 41 40 39 38 38 37 37 37 38 39 39 38 39 40 41 42 43 48 50 50 44 39 45 43 44 44 45 46 46 46 45 44 43 44 42 39 36 33 36 34 33 36 35 35 35 36 36 36 35 34 34 32
41 40 40 40 39 38 37 37 37 38 37 38 39 39 39 40 42 39 41 45 46 47 45 38 38 43 44 44 43 44 45 45 45 44 43 42 40 40 38 33 35 36 35 35 36 36 35 36 35 36 35 35 34 32
41 41 40 40 39 38 37 37 37 37 38 39 39 41 43 43 43 41 45 46 46 47 46 36 36 40 43 42 41 45 43 44 43 43 42 41 40 39 36 38 37 35 35 35 35 36 36 36 36 35 34 33 32 31
41 41 40 39 39 39 38 37 37 37 39 40 42 44 43 42 41 45 50 50 50 46 39 38 34 32 42 42 41 42 42 40 42 40 40 39 38 35 36 36 37 35 35 35 35 36 36 35 35 34 33 32 31 30
40 41 41 39 39 39 38 36 37 38 39 41 41 40 39 41 41 46 47 44 42 42 42 39 38 36 39 40 38 38 38 37 34 37 38 35 35 38 38 37 37 36 35 35 34 33 33 32 33 33 32 32 31 30
40 41 40 40 40 39 38 36 38 38 39 39 35 34 38 40 43 43 38 37 38 35 40 39 36 36 39 36 37 37 34 34 32 31 35 33 32 33 33 36 37 36 35 35 35 35 35 34 33 32 32 32 31 29
40 41 40 40 40 38 35 38 37 36 37 38 37 38 36 37 38 35 34 35 35 34 38 38 37 37 37 39 34 35 31 32 28 31 32 30 30 31 32 33 34 35 35 34 34 34 33 32 32 31 31 29 26 24
40 40 40 40 39 35 38 38 37 38 39 38 35 32 33 34 31 31 30 32 33 34 36 36 34 37 37 36 32 30 32 31 31 28 28 27 27 29 30 33 33 34 35 33 32 32 31 30 31 30 28 25 24 22
40 40 40 40 36 38 38 37 37 39 36 32 30 26 27 30 31 32 32 32 32 33 35 37 34 35 36 34 34 33 31 29 23 23 22 26 25 29 31 32 32 31 31 30 30 30 30 30 29 28 26 24 23 21
39 40 40 34 38 39 37 37 37 39 35 30 30 24 29 32 32 32 32 32 33 36 35 34 34 33 32 32 29 28 27 25 25 24 24 23 21 25 30 31 31 30 30 30 30 30 30 29 28 27 25 24 22 20
39 39 29 36 39 37 36 36 38 38 33 30 29 25 32 30 31 29 30 32 35 37 35 34 32 30 30 27 24 23 21 22 27 24 22 17 26 28 29 29 29 30 30 30 30 30 30 29 27 25 23 20 19 17
38 33 33 39 37 36 35 35 34 32 31 28 29 32 31 31 30 31 34 33 37 35 33 32 29 28 24 14 17 22 23 27 23 19 19 20 23 27 27 28 29 29 29 29 29 27 26 25 24 22 19 16 16 15
33 33 38 38 35 32 31 33 30 27 25 25 25 19 28 30 30 32 34 34 35 34 31 30 28 21 19 17 19 23 20 17 23 20 22 24 24 25 27 27 28 28 27 26 26 25 26 25 22 19 18 17 16 15
35 37 36 35 33 27 22 27 30 23 24 27 27 28 28 29 30 32 34 35 35 34 32 30 27 22 23 22 20 17 13 21 24 26 24 24 25 26 26 25 25 25 25 25 25 24 22 22 19 17 16 15 13 13
38 34 34 33 32 21 22 16 25 25 22 17 26 26 26 27 29 31 32 33 32 32 31 30 28 24 25 26 25 24 23 24 25 24 23 23 24 23 25 25 24 23 21 20 21 21 18 16 15 15 14 14 13 12
31 30 31 28 26 28 24 24 17 23 25 23 22 21 24 23 29 30 31 32 31 32 30 28 27 27 27 27 27 27 27 26 26 26 25 20 24 24 23 23 23 22 21 20 18 20 18 15 15 17 17 11 10 8
29 30 24 22 13 9 14 26 20 19 22 23 19 10 22 21 12 23 27 28 21 19 20 20 22 22 24 25 25 27 28 28 27 27 28 27 24 23 24 24 23 22 21 23 21 18 16 17 16 13 12 12 12 12
26 22 17 12 8 4 5 12 10 14 10 11 5 5 6 12 18 22 18 21 18 19 19 19 18 20 21 25 26 28 28 27 25 25 27 24 24 25 25 24 24 22 21 20 19 18 18 20 17 14 13 12 12 12
21 13 10 7 3 -1 7 1 11 5 4 6 1 3 4 7 14 12 11 13 16 18 16 15 16 17 23 26 25 25 25 26 25 24 25 25 24 23 24 23 23 23 20 19 19 20 18 17 18 14 13 13 11 7
11 4 4 -5 -3 -0 -2 -2 -4 4 2 -2 2 2 5 10 9 8 7 7 13 13 14 13 13 14 15 20 23 24 26 26 25 24 22 24 21 21 20 20 20 20 20 20 18 18 18 15 14 14 12 10 8 7
3 0 1 -2 -4 -0 3 -2 -2 -0 -1 -3 0 3 1 9 4 4 9 8 6 11 12 11 10 10 11 17 18 21 23 25 26 22 22 22 22 22 21 20 19 19 20 20 19 17 15 15 14 13 12 13 14 7
2 1 8 13 11 9 8 7 8 4 -4 -2 -1 -0 -1 -1 -0 10 12 9 6 8 11 12 12 11 12 14 18 21 22 23 24 22 23 24 26 25 25 22 21 20 20 20 19 17 15 14 13 13 13 12 8 6
11 8 5 5 6 3 -0 0 -2 -0 3 8 7 -2 -3 2 6 5 4 5 4 7 9 12 14 15 17 18 19 20 20 21 21 22 22 21 22 23 24 23 23 25 21 19 17 16 15 15 13 12 10 6 5 5
8 10 10 -2 -3 -1 1 2 2 6 9 7 3 2 3 7 -1 -2 2 1 3 3 6 11 15 19 18 19 19 20 21 21 21 20 19 16 17 18 24 24 22 20 20 19 21 19 16 13 11 9 7 5 4 3
8 7 4 -7 -0 2 -0 1 -1 -1 4 4 5 4 4 2 -1 -2 -1 -4 -3 2 5 8 14 17 17 17 17 17 18 19 23 23 19 17 16 19 21 21 20 20 21 20 20 19 21 15 13 7 5 4 4 3
8 2 -2 -2 -3 -7 -6 -1 1 5 -5 -9 -8 -3 -1 -3 1 0 -2 -3 -0 5 9 10 12 14 16 16 17 18 17 18 20 21 20 19 19 19 20 20 20 21 21 18 15 12 10 7 5 5 4 4 5 -0
9 -1 -1 -3 -4 -5 -4 -9 -11 -9 -11 -8 -8 -11 -8 -4 -2 -2 -2 -6 1 8 14 13 11 12 15 16 17 19 20 19 19 19 18 18 18 19 19 19 19 18 15 11 9 7 7 6 5 3 2 0 -2 -4
-4 -9 -13 -11 -9 -7 -5 -7 -7 -11 -10 -11 -9 -9 -10 -3 1 -0 -1 -1 1 6 10 12 14 15 16 16 17 18 19 19 21 23 23 22 21 20 16 15 12 10 8 7 6 5 5 4 2 1 -1 -3 -4 -6

GFSWCAN_sfc_dewp_033.txt.gz
Dewpoint
40 40 42 42 42 42 42 42 41 42 41 40 41 39 39 42 45 44 43 47 46 41 42 42 42 41 42 40 38 40 39 40 39 36 34 35 34 34 32 31 33 33 33 34 33 30 25 34 32 29 31 34 35 35
39 41 42 42 42 41 41 42 42 41 40 41 40 38 38 41 44 44 42 45 46 46 43 47 46 45 44 43 42 42 40 41 42 38 36 38 34 35 30 28 32 31 34 31 31 31 34 36 34 36 36 35 35 35
39 42 42 42 41 40 40 40 40 40 40 39 38 38 39 41 42 42 43 45 47 45 43 42 42 47 47 48 48 42 43 44 43 44 41 38 36 36 33 32 29 32 35 35 35 34 35 34 35 35 36 36 35 35
40 42 42 41 40 39 38 38 38 37 37 37 37 38 40 40 40 41 41 44 43 45 40 39 46 45 48 49 49 48 47 47 46 45 40 40 37 36 33 33 33 34 35 35 34 35 35 34 35 35 35 35 33 31
41 42 41 41 40 39 38 37 37 37 37 38 37 37 38 39 40 41 42 43 44 44 41 42 44 45 46 48 48 49 47 45 43 43 42 40 40 37 36 34 32 34 35 34 33 35 33 33 36 36 35 34 32 30
41 41 41 41 40 39 38 38 37 37 37 37 38 39 39 39 40 41 41 47 48 48 44 39 45 43 45 45 46 46 46 45 45 43 43 43 41 39 37 35 35 35 34 36 35 35 35 36 36 36 34 34 32 30
42 41 41 41 40 39 39 38 38 37 37 37 39 40 40 40 40 38 40 44 45 44 44 38 38 43 44 44 44 45 46 45 44 44 43 43 40 42 39 33 35 35 36 34 35 36 35 36 35 35 34 33 32 29
41 40 40 41 40 39 39 39 38 37 38 39 39 42 43 43 42 41 44 46 45 44 45 36 36 39 43 42 41 45 43 44 44 43 42 41 40 39 36 37 36 35 35 35 35 36 36 36 35 34 33 32 30 28
41 40 40 41 40 40 39 39 37 37 38 39 41 43 42 41 40 44 44 47 47 46 39 38 32 30 42 42 41 42 42 39 42 40 40 39 39 35 37 37 36 35 35 35 36 36 36 35 34 33 33 31 29 28
41 40 41 41 40 40 40 37 37 38 38 40 40 39 38 40 41 43 46 44 42 43 42 39 35 34 38 40 39 38 38 37 34 37 38 36 36 39 39 38 37 36 36 35 34 34 35 34 34 32 31 30 29 27
41 40 41 41 40 40 37 38 38 38 38 36 35 34 39 40 42 43 38 38 39 36 40 38 34 34 37 35 37 36 34 34 32 32 34 33 32 34 34 34 37 36 36 35 35 35 35 34 33 32 31 30 29 26
40 41 41 41 40 40 36 39 38 35 37 37 37 39 37 38 38 35 33 35 35 34 37 38 37 35 36 37 32 34 32 33 29 31 32 29 31 31 31 34 34 35 35 34 35 35 34 33 33 32 30 28 25 23
40 40 41 41 40 37 39 38 37 37 38 38 36 33 33 34 31 31 30 33 29 33 35 36 35 38 35 36 32 30 31 31 32 30 28 27 29 30 30 33 33 34 34 33 33 32 32 32 32 30 26 25 24 22
40 40 40 40 37 39 38 37 36 38 36 31 29 21 21 29 31 31 31 30 31 33 35 37 35 35 36 34 33 32 30 30 27 25 21 25 24 28 31 31 32 32 32 31 31 31 31 30 28 26 25 23 22 20
40 40 40 35 39 39 37 36 37 39 34 29 29 19 23 32 32 32 32 32 32 35 36 34 34 33 32 32 30 30 28 26 26 24 25 22 21 23 30 31 30 29 30 30 30 30 29 27 25 24 23 22 20 18
39 39 30 36 40 37 35 34 38 38 33 31 29 22 28 29 30 28 24 30 32 36 35 34 32 31 31 25 28 28 22 23 26 26 22 16 25 28 29 29 29 30 30 30 30 29 28 26 24 22 21 19 18 16
38 33 34 39 38 35 35 34 34 32 31 28 28 30 30 27 28 28 34 33 36 35 33 33 30 30 25 16 18 22 23 27 24 19 18 19 22 27 27 29 29 30 30 30 29 28 26 23 21 20 18 17 16 15
33 34 38 39 34 32 29 33 29 27 25 26 26 18 28 28 27 29 31 35 34 33 32 32 29 25 19 17 19 23 20 16 25 23 22 23 23 25 27 28 29 28 28 27 27 26 25 23 21 18 18 18 17 16
35 36 37 35 32 26 17 21 28 23 24 26 26 27 27 27 29 29 30 31 34 34 32 31 28 27 24 21 19 22 20 22 24 26 24 23 25 26 26 25 25 25 25 25 26 25 23 21 19 18 17 16 15 14
37 34 33 33 31 20 19 15 27 24 21 18 26 24 26 26 26 27 29 31 32 32 30 29 30 26 25 25 25 26 25 25 25 24 24 24 23 21 23 24 25 24 22 21 22 22 20 18 17 17 16 15 14 14
30 31 29 29 26 26 23 24 16 23 24 22 24 22 21 23 21 22 30 31 31 31 29 25 24 22 25 25 25 27 27 26 25 26 26 21 24 22 21 21 22 22 22 21 20 21 20 17 16 18 19 13 11 10
29 28 24 22 15 12 19 25 19 18 18 19 19 12 19 20 20 18 26 23 20 15 18 17 18 19 18 21 23 25 26 28 28 28 28 27 23 22 22 22 23 21 21 22 22 19 17 17 16 14 13 13 14 13
27 22 18 15 10 5 3 12 11 16 12 9 1 3 3 5 11 14 11 10 11 16 18 18 17 18 18 21 25 28 29 28 27 27 27 25 24 24 24 23 23 22 22 21 20 19 18 19 17 14 14 13 13 13
21 14 12 9 6 -1 7 1 10 4 3 4 12 0 1 1 11 6 7 5 9 15 15 13 15 14 16 20 22 24 26 27 27 26 26 25 24 23 24 24 23 23 22 20 20 20 18 16 18 15 15 14 12 8
13 7 7 -1 -2 1 -2 -2 -5 4 1 -4 10 3 2 7 4 -2 3 5 5 6 8 10 12 13 12 14 17 20 24 25 24 25 25 25 22 22 21 21 20 20 21 21 19 18 18 16 15 15 13 11 10 9
7 5 4 2 -4 -1 1 -3 -2 -1 -2 0 4 1 -3 3 2 2 7 5 2 2 3 4 7 9 10 14 14 15 18 22 21 24 24 24 23 23 21 20 20 20 21 21 21 18 17 16 15 14 13 14 16 10
7 5 7 11 10 8 7 7 7 4 -6 2 -2 -1 -3 -3 -4 6 8 5 2 1 2 3 7 9 10 12 15 17 20 22 21 23 25 25 25 24 24 23 22 21 22 22 21 19 17 16 15 14 15 15 12 9
13 10 6 6 6 3 0 0 -2 0 2 7 7 -2 -1 2 6 7 5 1 -2 -4 -1 5 7 10 12 14 17 18 19 21 21 22 23 22 23 25 26 26 25 27 24 23 22 20 17 16 16 15 13 10 8 7
8 8 10 -2 -3 -2 1 3 2 5 9 8 4 2 3 7 1 -1 2 -0 -7 -8 -4 1 7 8 15 18 19 19 20 20 18 18 19 16 17 19 25 25 26 25 25 24 24 20 18 17 16 14 10 7 6 5
7 6 3 -6 1 2 1 1 -3 -3 3 3 4 4 4 3 0 -3 -2 -5 -5 -4 -4 -0 4 8 12 15 17 18 19 19 20 20 20 18 18 21 22 22 22 23 23 21 20 22 25 19 16 8 5 5 4 3
8 0 -2 -1 -2 -7 -7 -3 -2 4 -6 -10 -9 -4 -0 -2 1 -2 -4 -6 -8 -9 -6 -0 4 8 10 10 14 15 18 19 20 23 21 20 21 21 21 22 22 23 23 21 17 15 14 10 7 5 4 3 5 2
8 -2 0 -3 -5 -7 -6 -10 -12 -9 -12 -10 -9 -12 -8 -5 -1 -1 -4 -8 -6 -3 6 5 6 9 12 14 16 16 20 19 20 21 21 20 21 21 22 22 21 20 18 16 15 13 10 8 6 6 5 4 1 0
-7 -10 -13 -9 -9 -8 -6 -8 -8 -11 -11 -12 -9 -9 -11 -4 2 1 -3 -5 -4 -2 -1 8 12 14 16 17 17 18 19 19 22 24 24 23 23 22 20 19 18 17 15 13 10 8 7 7 6 4 2 0 -1 -2

GFSWCAN_sfc_dewp_036.txt.gz
Dewpoint
38 39 40 40 41 40 40 40 40 41 41 41 40 39 39 40 43 43 43 46 43 43 43 43 42 41 41 41 38 40 39 40 40 36 36 32 31 33 32 32 33 32 32 34 35 32 28 34 36 32 34 36 35 36
39 39 41 41 41 40 39 38 38 39 39 39 38 38 38 39 41 42 41 44 45 43 45 47 46 45 44 43 42 42 40 40 40 38 38 37 34 35 33 29 35 32 33 32 32 31 35 36 37 36 36 36 36 36
39 39 41 40 40 39 39 38 37 37 37 37 37 38 40 39 39 40 41 43 44 46 44 44 42 46 47 46 47 41 42 43 43 45 42 38 36 38 33 33 34 35 36 35 35 35 36 35 36 36 36 36 35 36
39 40 42 40 40 39 39 38 38 37 37 37 38 38 37 38 39 40 41 43 42 41 41 40 46 45 48 48 49 48 46 47 46 45 42 41 36 38 36 35 35 35 37 36 36 36 36 35 36 35 35 33 32 31
38 41 40 41 40 40 39 39 38 38 38 38 37 37 37 39 39 40 42 43 43 41 41 41 45 45 46 48 48 49 47 45 44 42 41 38 41 38 38 37 36 36 35 34 32 35 35 34 36 36 35 32 31 30
38 41 40 40 40 40 39 39 39 39 38 37 38 38 40 41 39 40 41 46 47 46 43 39 45 43 45 46 46 46 46 45 45 43 42 43 44 40 39 35 37 36 36 37 36 35 36 36 36 35 33 32 30 29
39 42 41 39 40 40 40 40 39 39 38 38 39 40 41 42 41 37 40 44 45 44 43 39 40 43 44 44 44 45 46 45 45 43 42 43 42 42 40 35 36 36 37 36 36 36 36 36 35 34 33 30 29 26
40 41 41 39 40 40 40 40 39 38 38 39 40 42 43 43 41 40 44 45 46 43 45 38 38 39 43 42 41 44 43 44 44 43 43 42 41 40 38 40 39 38 36 35 35 36 36 36 34 33 31 29 28 25
40 41 41 40 41 40 40 40 37 39 39 39 41 42 43 41 39 43 44 46 47 46 41 38 36 36 43 42 42 43 43 40 43 41 41 40 39 37 39 39 38 38 37 36 37 37 36 36 35 33 32 30 27 25
40 41 40 41 41 40 40 39 38 38 38 39 40 40 39 41 42 43 45 44 43 44 44 39 39 36 40 41 40 40 40 38 34 38 39 37 38 41 41 39 38 38 37 37 36 36 37 36 35 33 31 30 28 25
40 41 40 41 40 40 40 38 39 38 38 38 35 35 39 41 42 43 38 38 39 37 41 40 39 36 40 38 38 38 37 36 34 34 35 35 34 36 35 36 37 39 37 37 36 37 37 35 33 32 30 28 26 23
41 40 40 40 40 40 38 39 38 37 37 37 38 39 38 39 38 36 34 36 35 35 39 38 39 38 39 40 38 37 36 35 32 33 33 31 34 34 32 35 36 36 36 35 35 36 35 34 33 31 29 27 24 21
41 40 40 40 40 38 39 38 37 36 38 38 36 33 34 35 32 32 30 33 33 34 36 37 36 38 38 39 35 36 33 32 33 32 29 32 34 31 32 34 35 35 35 34 34 35 34 33 32 30 27 24 22 20
41 40 40 40 39 39 38 37 36 37 37 33 32 26 29 30 32 32 32 33 34 34 36 38 36 37 37 36 36 34 32 31 30 28 29 30 29 27 32 34 35 34 33 33 33 33 33 32 29 27 25 23 21 19
40 40 39 37 39 39 36 35 36 39 35 30 31 26 28 32 33 34 33 34 35 36 36 36 36 34 34 34 32 32 31 29 29 30 33 32 27 27 32 34 34 33 32 32 32 32 30 28 26 25 24 23 21 19
39 39 33 35 40 37 35 35 38 38 33 32 31 29 30 30 32 31 30 33 36 37 36 35 34 33 33 33 31 32 29 28 33 35 34 27 27 31 32 33 32 32 31 31 31 29 28 26 25 23 22 20 19 18
38 35 34 39 38 35 35 36 35 32 32 28 29 29 29 29 29 30 31 31 34 34 34 33 31 33 30 28 28 31 29 34 33 31 28 27 28 31 31 31 31 31 31 30 29 28 26 24 22 21 19 18 18 17
36 35 37 39 35 32 31 35 31 28 25 28 26 27 27 28 28 28 29 32 34 32 33 32 31 30 28 27 29 28 28 28 27 27 28 28 28 28 29 30 30 31 30 29 28 26 26 25 23 20 20 20 19 18
36 36 37 34 33 29 25 26 30 24 25 26 27 26 26 27 28 28 28 29 32 34 32 32 30 30 29 27 26 27 27 27 26 26 27 27 26 28 29 29 29 29 29 28 26 24 24 23 20 19 18 17 16 15
38 36 35 34 31 26 20 22 28 24 22 24 26 24 24 24 26 27 27 30 31 32 31 30 29 26 25 25 26 25 26 27 27 26 27 27 26 26 28 28 27 27 26 25 25 24 21 19 19 19 18 17 15 15
32 32 31 30 28 27 24 24 21 24 24 22 24 23 22 23 24 25 29 31 31 29 30 22 21 20 20 20 21 25 26 26 26 27 27 28 26 26 25 26 26 25 24 24 22 22 21 19 18 19 23 16 14 13
31 29 24 23 20 18 22 24 21 22 20 20 21 17 19 20 22 25 25 25 26 20 19 17 18 18 18 18 19 22 23 25 28 29 30 30 27 25 25 25 26 26 26 26 25 23 19 19 19 16 15 15 15 15
27 23 20 18 13 11 11 16 18 18 15 17 11 14 15 17 19 19 22 19 18 18 18 18 17 17 16 17 19 24 26 26 25 27 28 28 27 26 26 25 26 26 25 24 23 21 21 21 19 16 16 15 15 15
21 19 16 13 12 7 10 8 12 11 12 14 15 12 9 13 16 17 19 16 16 17 17 15 13 12 13 16 16 18 20 22 22 24 28 28 26 25 25 25 24 25 25 22 22 21 20 18 20 17 16 16 15 11
19 15 12 3 6 6 5 7 6 10 6 4 12 9 11 11 14 12 13 16 13 14 14 13 11 10 11 11 12 14 18 20 19 18 20 27 27 25 25 24 23 23 22 23 21 20 20 19 17 17 16 14 12 12
13 11 7 10 7 6 6 4 6 6 5 8 9 8 7 11 9 11 12 15 14 12 11 10 9 8 9 10 11 13 14 18 19 18 20 27 26 26 25 23 21 21 22 22 21 20 19 18 17 17 15 16 17 12
12 10 9 9 9 7 8 9 8 7 4 3 8 7 7 3 5 10 13 12 12 10 10 9 8 8 8 10 12 13 15 18 20 19 21 22 25 28 28 25 23 22 22 22 22 21 20 17 17 16 16 16 13 12
16 13 12 13 10 7 6 6 5 5 6 8 9 3 4 6 10 13 13 10 9 7 6 6 7 7 8 10 12 14 17 19 21 22 22 23 24 27 29 29 27 26 27 27 25 25 20 19 18 17 16 14 14 14
14 11 13 5 4 6 6 7 6 8 10 11 9 7 7 9 10 9 8 6 2 4 5 7 8 7 8 11 14 17 19 19 17 15 17 19 20 22 26 26 27 28 27 27 28 24 22 20 19 16 14 12 12 13
13 13 9 6 6 7 7 4 4 2 6 6 6 8 8 8 7 3 4 3 5 7 6 3 3 3 6 9 11 14 18 20 20 18 17 20 22 23 25 26 25 26 26 25 24 25 26 21 18 12 11 9 8 9
10 9 5 5 5 -2 -3 -2 0 4 -2 -1 -4 4 6 4 5 3 2 3 3 -1 1 6 6 6 7 9 10 11 12 19 21 21 21 23 23 23 24 24 25 25 24 24 23 19 17 15 14 12 10 8 8 5
10 7 6 2 -1 -5 -4 -6 -7 -4 -5 -4 -1 -6 -2 3 4 7 2 0 1 5 9 8 6 8 10 13 14 15 18 18 18 20 22 23 22 23 23 24 25 25 23 20 18 16 15 14 13 11 9 8 6 5
-0 -2 -6 -5 -8 -6 -4 -5 -5 -6 -7 -8 -3 -4 -4 1 5 6 1 -0 4 5 5 5 7 10 14 16 19 19 19 19 21 24 24 25 25 24 22 22 21 19 18 17 16 15 15 13 11 9 7 5 5 5

GFSWCAN_sfc_dewp_039.txt.gz
Dewpoint
40 39 39 41 42 40 40 39 38 38 37 38 38 38 38 40 41 41 42 46 42 39 44 44 42 39 40 40 37 41 39 40 39 36 35 31 27 29 29 30 32 32 33 33 34 32 29 34 35 33 35 36 35 38
39 39 39 41 41 40 40 39 38 38 37 37 37 37 39 38 39 40 41 43 43 41 45 48 46 46 44 44 43 42 40 39 40 38 37 36 32 32 30 27 34 31 31 37 36 33 35 36 37 37 37 36 37 37
39 39 39 42 41 40 40 39 39 38 38 37 37 37 38 37 39 39 41 43 42 44 44 43 41 46 47 46 46 42 42 43 42 45 42 36 35 36 30 29 32 34 35 34 35 35 35 36 37 36 36 35 35 37
39 39 40 43 39 40 40 40 39 39 39 38 37 37 38 37 37 39 39 43 41 40 40 41 46 45 47 48 49 48 46 46 46 46 42 40 35 38 35 35 34 35 36 34 35 35 35 36 36 36 34 33 32 33
39 39 39 42 39 40 41 40 40 39 39 39 37 38 39 38 38 39 39 43 42 40 39 42 44 45 46 48 48 49 47 45 44 42 40 38 41 38 37 37 34 35 34 31 30 36 35 35 36 36 34 32 32 32
39 39 39 42 40 40 40 40 40 40 39 38 38 40 41 41 38 38 41 45 45 44 41 39 45 43 45 46 46 46 46 45 44 42 42 43 42 40 37 34 34 35 36 36 34 36 36 36 36 35 33 32 31 30
39 39 40 42 41 40 41 40 40 39 38 39 40 40 41 41 40 37 39 43 45 44 42 40 40 43 44 44 44 45 46 45 44 42 42 42 43 42 39 35 34 35 37 37 37 37 36 36 35 34 31 30 30 27
39 39 41 42 40 41 41 40 40 39 40 39 40 43 43 43 41 39 44 45 46 43 44 39 39 39 44 42 41 45 43 44 44 43 43 42 41 42 38 39 39 38 38 37 37 36 36 36 34 31 29 29 28 26
39 40 41 41 40 41 41 40 39 39 39 39 41 42 41 40 39 43 44 45 47 45 41 39 37 37 43 41 43 43 44 39 43 40 41 40 40 38 38 38 38 39 38 38 37 37 36 35 34 31 30 29 26 24
39 40 42 41 41 41 40 40 39 39 38 40 41 41 39 42 42 43 45 43 45 44 44 40 41 36 40 40 41 40 40 39 34 38 39 37 38 40 40 41 40 39 38 38 37 37 39 38 36 32 30 29 27 24
38 39 42 40 41 41 40 39 39 38 38 38 37 36 39 41 43 43 38 40 40 37 41 40 40 38 41 38 38 39 38 37 34 34 35 36 34 37 36 35 37 38 39 38 38 38 38 36 34 32 31 28 26 23
39 41 41 40 40 40 39 39 38 37 37 37 37 39 39 40 39 36 35 37 36 36 39 39 39 39 40 41 39 38 37 36 33 34 33 32 36 35 32 33 36 37 37 37 36 36 37 35 34 32 30 27 25 21
39 41 40 40 40 39 39 37 36 36 38 39 36 35 37 36 33 32 31 34 34 36 36 36 38 39 39 40 37 37 34 33 34 32 30 33 37 30 32 34 36 36 36 35 35 36 36 34 33 31 28 25 21 19
39 41 40 40 39 39 38 36 35 37 38 35 33 30 33 32 32 33 33 34 36 36 37 37 37 38 38 38 37 34 34 33 31 29 31 33 32 28 31 35 36 35 34 34 35 35 34 33 31 29 26 22 20 19
40 41 40 39 38 39 35 35 36 39 36 33 33 29 29 33 34 34 34 34 37 37 37 37 37 35 36 34 34 34 32 29 30 32 37 34 31 30 32 34 35 35 34 33 34 33 33 31 28 26 24 22 21 19
40 40 36 36 39 36 34 35 38 38 35 34 32 30 31 32 33 34 32 34 37 36 37 36 35 34 34 36 32 32 29 30 35 36 35 31 29 30 32 33 33 33 33 33 33 32 31 29 27 25 23 21 20 19
39 37 34 37 37 34 35 36 36 34 32 31 29 30 31 30 31 31 31 30 32 34 34 34 32 33 33 32 31 33 32 33 31 31 31 31 30 30 31 32 32 32 32 32 31 30 29 27 25 22 21 21 19 18
38 37 36 38 35 32 33 36 33 31 26 31 28 29 28 28 28 29 29 31 33 33 33 32 32 31 31 31 32 31 30 31 31 29 29 28 28 28 30 31 32 32 32 31 31 28 28 27 24 22 23 22 21 19
39 38 37 35 34 31 30 30 32 25 26 28 28 28 27 27 28 27 28 28 30 33 32 32 31 30 30 30 28 29 27 27 26 27 27 28 28 28 29 31 31 31 31 30 27 26 26 25 22 21 20 19 18 17
40 38 35 35 32 30 25 27 30 26 25 26 26 26 25 25 25 26 26 28 30 32 31 28 28 27 25 25 26 26 25 26 26 26 27 28 28 29 30 30 30 30 29 28 28 26 22 21 21 20 20 19 17 17
35 34 33 31 29 29 27 26 24 25 25 24 25 24 23 24 24 26 28 31 31 29 28 28 24 22 22 21 21 22 23 24 25 25 26 27 29 30 29 28 29 28 27 26 24 23 23 21 20 21 24 18 17 15
32 31 25 25 26 24 25 25 24 24 23 23 23 20 21 22 23 25 26 25 26 28 24 21 21 20 19 18 18 19 20 22 24 26 28 29 28 29 29 29 28 29 29 29 27 25 22 21 21 22 19 18 17 16
29 24 24 23 19 18 17 20 21 20 19 20 19 19 20 21 23 23 22 24 24 21 21 20 20 18 17 16 17 18 21 23 23 23 23 24 26 29 30 29 28 30 29 28 28 24 23 23 22 18 18 17 17 18
23 24 22 20 18 15 14 16 17 18 18 18 18 16 17 20 20 22 21 23 23 20 20 20 16 14 15 18 15 15 16 18 19 20 21 21 24 26 29 28 27 28 28 26 24 23 22 21 22 21 18 18 18 16
25 22 18 15 13 12 13 14 14 15 15 14 15 14 16 17 19 18 18 22 21 21 21 18 16 14 15 15 13 13 18 16 17 18 18 19 21 25 27 28 27 26 25 25 22 22 22 21 20 19 19 18 16 15
20 18 14 16 13 13 12 11 11 13 14 12 13 14 15 17 14 14 17 22 22 22 20 19 18 15 13 13 12 13 14 15 15 16 17 19 22 23 25 26 25 25 25 24 24 23 23 22 20 20 18 19 19 15
20 18 11 9 10 8 9 10 10 12 11 9 13 13 14 10 12 15 18 18 20 20 18 17 15 13 13 13 13 14 15 16 17 17 18 19 20 21 22 23 26 28 28 28 26 25 24 23 21 20 19 19 17 15
19 15 13 13 11 11 11 11 11 10 11 11 14 10 10 11 12 19 20 18 19 15 14 13 13 12 12 13 14 14 15 16 18 19 20 20 21 23 24 26 29 31 29 29 28 27 26 24 23 22 19 18 16 16
17 15 15 12 11 11 12 12 11 11 11 14 15 14 13 13 18 18 14 12 12 11 11 13 14 14 12 13 14 15 16 17 17 14 14 14 17 22 27 28 29 29 28 28 30 28 27 25 25 22 19 18 17 17
17 18 14 11 10 10 13 10 11 9 10 10 10 11 12 13 15 12 11 9 9 11 13 12 11 9 10 10 12 13 15 17 18 18 16 16 18 25 26 26 27 28 28 28 27 27 30 27 25 19 16 15 15 15
15 15 13 13 13 8 5 3 5 7 7 8 5 10 12 11 11 11 9 9 10 9 8 10 12 13 11 11 12 12 11 15 18 19 20 20 21 22 24 26 27 27 27 26 26 25 22 18 16 15 13 13 15 13
15 15 13 10 9 3 3 5 6 8 7 7 9 3 7 9 11 16 8 7 8 10 13 13 11 12 13 14 14 15 19 17 17 18 18 18 20 24 25 26 26 26 26 25 21 19 18 17 17 15 14 14 12 11
6 6 5 6 5 5 4 5 5 6 5 6 6 4 5 6 9 12 5 6 10 11 11 11 12 12 12 13 16 20 23 22 21 23 24 24 25 25 25 25 25 24 21 20 19 19 18 17 16 15 13 12 10 9

GFSWCAN_sfc_dewp_042.txt.gz
Dewpoint
41 41 40 40 40 43 41 40 40 39 39 38 38 37 38 39 39 39 42 45 41 39 41 44 43 41 40 40 37 41 40 40 39 36 35 33 27 30 28 34 33 32 33 32 30 29 25 35 36 34 36 37 36 41
41 41 40 39 40 43 41 40 40 39 39 39 39 38 38 38 38 40 41 43 43 40 42 47 47 46 45 44 43 42 40 39 40 38 38 37 34 31 31 27 33 30 32 34 33 31 35 37 37 37 36 36 36 38
41 40 39 39 41 43 41 40 40 40 39 39 38 38 38 38 38 38 40 43 42 42 45 46 44 47 47 47 47 42 42 42 41 43 41 39 34 36 32 30 32 34 35 34 35 36 36 36 37 36 35 34 35 37
41 40 39 39 40 43 40 41 40 40 40 39 39 38 38 37 37 37 39 43 41 40 39 42 46 45 47 48 48 48 45 46 46 45 41 39 37 40 35 36 35 36 36 35 34 35 36 36 36 35 34 33 33 34
40 40 39 39 40 43 40 40 40 40 40 40 39 38 38 40 37 38 40 43 42 40 38 41 44 46 46 47 48 48 46 45 44 42 40 37 40 39 38 37 36 36 35 33 31 35 35 35 36 36 33 32 33 33
40 40 39 39 41 42 41 40 41 40 40 39 39 41 41 41 41 38 39 44 45 44 40 39 45 43 45 47 47 47 47 45 44 42 40 41 41 40 35 34 35 34 35 35 35 36 36 36 35 34 32 32 32 31
40 40 39 39 41 42 41 40 41 41 40 40 41 41 42 41 41 37 39 43 44 44 41 38 41 43 44 45 44 45 46 44 44 41 40 41 42 41 38 35 34 35 36 39 38 37 36 36 35 31 31 30 30 28
40 40 39 40 42 41 40 41 41 41 40 40 41 43 43 41 40 40 45 44 45 43 43 37 37 40 44 42 41 45 43 43 42 41 42 42 42 42 37 39 39 39 39 38 37 37 37 35 31 30 29 29 29 27
40 39 39 40 42 39 41 41 41 40 40 39 41 42 42 41 39 43 44 45 46 44 39 39 35 35 43 42 43 43 44 39 42 39 40 40 39 37 38 38 39 38 39 37 37 37 36 34 32 30 30 29 26 24
40 39 39 40 42 41 41 41 40 40 39 40 41 41 39 42 42 43 43 42 42 44 43 39 41 37 40 40 40 40 41 38 34 38 39 37 37 39 39 39 38 40 39 38 36 34 34 32 32 31 30 28 25 24
40 39 39 41 41 41 41 40 40 38 39 39 37 38 40 41 43 42 38 39 40 37 41 40 39 38 41 37 38 39 36 35 32 34 35 34 35 37 34 33 36 37 38 39 38 37 38 36 33 31 30 27 24 22
39 38 39 42 40 40 40 40 38 37 37 37 37 39 39 40 39 36 34 36 35 35 39 39 39 39 41 41 38 38 34 34 31 34 33 31 35 34 32 33 35 36 37 38 37 37 38 36 34 32 28 25 23 20
39 39 40 42 40 40 40 39 36 37 38 39 38 34 37 36 33 32 31 33 33 35 35 35 36 39 39 40 36 35 33 33 34 32 30 32 32 29 29 34 35 36 36 36 36 37 37 35 34 30 27 24 20 19
39 39 40 41 40 39 40 37 36 38 38 34 32 25 31 31 33 33 33 33 35 35 36 37 36 37 38 36 36 32 34 32 30 27 27 32 30 30 31 34 35 35 34 35 35 35 34 33 31 29 25 20 19 19
39 38 40 41 38 39 37 35 36 39 35 32 30 26 29 33 34 33 33 34 36 37 37 36 34 35 34 33 33 32 31 27 28 27 33 31 30 30 31 32 33 34 33 34 34 33 32 31 28 25 22 20 19 19
38 39 38 38 39 36 34 36 37 38 32 32 29 29 32 32 32 32 31 33 35 36 36 35 34 33 29 32 30 29 27 27 30 29 28 29 29 30 30 30 32 33 32 33 33 33 31 28 25 23 22 20 19 19
38 37 36 36 37 33 35 36 35 32 30 27 27 31 32 31 31 31 31 31 32 33 33 33 32 31 32 30 29 31 30 30 27 26 26 27 27 28 29 30 32 32 32 32 31 30 29 27 24 22 20 20 19 18
38 38 37 38 36 33 34 33 29 28 25 28 26 28 29 29 29 29 28 31 32 32 32 32 31 30 29 30 29 29 28 27 24 25 26 27 27 28 28 28 29 29 30 29 26 25 25 24 23 22 21 21 20 19
39 39 38 37 34 33 30 28 30 24 27 27 28 27 29 28 29 28 28 28 29 32 31 31 29 29 29 29 28 26 24 26 26 26 26 27 28 27 27 27 28 26 26 25 26 26 25 25 23 22 20 19 17 17
40 40 37 35 32 31 26 26 30 26 24 26 28 27 25 25 25 26 25 27 27 29 28 27 28 28 26 25 23 24 25 25 25 24 25 27 28 25 27 25 27 27 27 26 25 26 22 21 22 21 20 19 17 17
37 36 33 32 31 30 28 26 25 26 26 24 26 25 23 24 23 24 26 30 27 18 19 25 24 23 22 21 22 21 22 22 22 23 23 23 26 27 28 28 23 27 27 26 25 23 24 21 21 21 25 20 18 17
35 31 28 28 28 26 25 25 25 25 23 24 22 21 19 17 19 21 26 25 24 21 22 22 20 20 20 18 18 18 18 19 20 23 26 25 24 26 27 28 27 22 24 25 27 25 24 22 22 22 20 20 18 18
31 27 27 27 23 21 17 22 22 22 20 19 18 15 14 19 22 22 20 22 20 20 19 19 16 16 15 16 17 17 18 19 20 21 21 21 22 23 25 27 28 26 26 26 26 27 25 24 24 20 19 18 19 19
27 28 25 24 23 17 15 16 19 20 19 18 17 12 11 12 14 19 18 17 18 18 17 14 14 13 14 11 13 15 16 16 16 17 17 17 19 20 21 22 26 27 28 27 24 24 24 24 23 21 19 20 20 18
25 23 23 17 14 11 13 13 15 16 15 16 14 11 9 12 9 8 9 13 13 13 14 14 13 11 7 7 13 14 15 16 14 14 14 15 17 18 18 20 24 27 27 26 24 23 23 22 21 20 20 20 20 19
21 20 17 15 8 10 13 13 14 14 15 9 10 10 9 10 4 4 10 13 13 15 17 16 12 9 13 14 12 10 12 14 13 13 13 15 16 18 19 18 17 20 26 29 27 25 25 24 24 23 22 22 25 20
20 17 14 11 12 12 11 12 13 14 12 8 10 7 7 2 1 9 14 14 15 13 13 14 14 12 11 9 12 12 12 9 10 12 14 15 16 17 17 17 16 18 25 28 28 27 25 25 24 24 23 24 24 20
19 13 9 12 12 14 13 12 11 11 12 14 14 5 5 5 5 12 13 12 10 7 6 7 7 7 6 6 7 9 8 9 9 12 16 17 17 18 18 19 21 24 24 27 29 28 27 26 25 24 23 23 21 21
15 16 16 14 14 13 13 11 11 13 13 14 11 10 9 13 11 10 10 7 4 4 3 3 4 3 3 4 7 10 10 7 9 10 10 10 11 12 15 20 22 25 26 28 31 30 27 27 26 25 24 22 21 20
18 19 16 13 13 12 13 12 11 8 9 9 9 10 10 9 9 7 6 2 2 2 1 2 0 -2 -2 -1 2 4 7 11 13 13 12 12 11 11 12 15 21 23 28 28 28 29 31 29 29 24 21 20 19 19
19 19 16 15 13 9 5 4 5 8 5 2 0 1 5 4 7 7 4 3 2 -2 -3 -3 -2 -1 1 3 -0 7 9 7 9 11 15 17 17 15 16 17 21 24 27 27 27 26 27 24 20 18 18 18 19 16
16 14 12 9 8 2 -0 -1 1 2 1 -2 -1 -3 -0 1 2 7 1 -1 -3 -2 6 4 0 3 4 4 7 11 18 16 16 17 17 17 16 15 16 19 23 26 26 26 26 23 19 19 18 18 17 17 14 14
7 9 9 6 -1 -3 -0 -1 1 -1 -1 -1 1 -0 -2 1 3 5 2 -0 1 2 2 2 2 3 4 6 10 14 18 18 21 25 27 26 26 24 23 24 25 25 23 21 20 19 18 18 17 17 16 15 14 14

GFSWCAN_sfc_dewp_045.txt.gz
Dewpoint
42 41 41 40 40 40 41 43 41 40 39 39 38 38 38 38 39 39 40 44 40 39 40 43 44 40 39 39 35 40 39 40 39 35 33 32 29 29 30 35 33 32 32 32 33 29 24 32 35 33 35 37 36 39
42 41 41 40 40 40 42 42 41 41 40 38 39 37 38 36 37 38 39 43 43 39 40 45 46 46 45 43 42 40 38 38 40 37 37 34 32 32 31 30 34 31 33 32 30 29 31 36 37 36 36 36 36 38
42 42 42 41 40 40 41 42 41 41 41 38 38 37 37 36 37 36 38 42 42 40 43 45 44 47 47 47 47 39 41 41 39 42 39 38 33 35 30 30 32 34 36 35 35 36 37 36 35 35 34 34 34 40
42 41 42 41 39 40 41 42 39 40 41 39 38 38 37 37 37 37 36 42 41 38 38 42 46 45 47 48 46 45 43 45 44 44 40 38 36 39 36 35 35 34 35 34 34 35 35 36 36 34 33 33 33 36
42 43 42 41 40 40 42 42 39 40 40 40 40 39 41 41 40 36 37 41 42 37 37 40 43 44 46 46 46 46 44 44 43 42 40 37 38 37 37 36 34 36 35 34 33 34 35 35 36 35 32 33 33 33
42 42 42 40 39 40 42 41 38 40 40 41 40 42 42 42 42 37 37 44 44 43 39 38 44 42 44 47 45 46 47 45 44 42 40 41 41 40 37 34 36 35 36 36 34 36 36 36 34 33 32 32 32 32
42 42 42 40 39 41 43 40 39 39 40 40 40 42 42 42 40 37 38 43 44 44 40 38 39 43 44 44 44 45 46 44 43 41 40 40 40 41 37 33 35 34 35 38 37 37 36 35 34 31 31 31 30 27
42 42 41 39 39 41 41 39 39 40 40 40 40 43 41 38 39 38 43 44 44 42 42 36 36 38 44 42 41 45 43 43 42 41 42 39 41 40 37 38 39 40 40 38 38 37 36 33 31 29 29 28 27 25
43 41 40 40 40 42 41 40 40 40 40 39 40 43 41 41 39 42 45 45 45 43 38 38 34 34 43 41 43 43 43 39 42 38 39 40 39 36 37 39 38 39 38 37 37 35 33 32 29 29 29 28 25 24
42 41 40 39 40 42 41 40 40 40 39 40 41 40 38 42 42 43 43 42 41 42 42 39 40 36 40 40 38 40 41 38 33 37 39 37 36 40 33 33 34 36 37 37 35 33 31 29 30 29 29 27 25 23
41 40 40 39 41 41 40 40 40 38 39 36 36 37 39 42 42 41 38 38 39 36 41 40 38 37 41 36 38 39 35 35 32 34 35 33 34 32 30 30 34 36 37 37 38 37 37 34 31 30 29 26 24 22
42 40 40 40 42 40 40 40 38 35 36 35 36 39 39 39 38 35 34 35 35 34 38 38 39 39 39 41 38 37 34 34 30 35 33 30 34 30 30 31 34 35 36 36 38 37 38 36 33 31 28 25 22 19
40 41 40 40 41 40 39 39 36 36 38 39 37 34 36 35 32 32 30 33 33 35 35 35 36 38 39 39 34 34 33 32 34 31 31 32 30 30 30 32 33 35 35 36 36 37 38 38 38 34 26 23 19 18
41 41 39 40 41 39 39 37 36 37 37 34 32 26 30 30 31 32 32 32 34 34 35 37 35 36 38 35 35 31 34 31 28 28 27 31 30 30 30 31 32 33 33 34 34 35 36 36 34 28 23 20 19 18
40 41 40 40 39 38 38 34 36 37 34 30 30 25 29 31 33 32 33 33 35 36 36 36 35 34 33 32 31 31 30 26 27 28 29 26 28 29 29 29 30 32 32 33 34 33 32 30 27 23 21 20 20 19
40 38 39 39 39 36 34 36 36 35 30 30 27 28 31 31 31 31 32 33 34 35 35 34 33 33 32 32 30 28 27 25 30 27 23 24 27 27 28 29 30 32 32 32 32 33 31 27 24 22 21 20 19 18
38 38 39 37 37 33 35 35 33 28 23 26 27 30 30 30 29 31 32 31 33 33 33 33 31 30 32 30 29 31 29 29 28 22 22 24 25 26 27 28 29 30 30 31 30 30 30 27 23 21 19 20 20 19
37 39 38 37 36 33 34 33 27 26 24 27 25 28 29 29 29 30 30 31 32 32 32 32 31 30 29 29 27 29 28 28 23 22 24 25 26 27 27 27 28 28 28 28 26 25 24 24 22 21 21 21 20 19
39 39 39 38 34 32 27 27 28 23 23 27 28 28 29 29 29 28 29 29 30 33 31 31 28 28 28 29 29 27 18 21 23 24 26 26 26 26 26 27 29 26 26 25 27 26 25 24 23 21 20 19 18 18
40 40 40 35 32 29 23 23 29 23 22 24 27 26 27 26 26 26 26 27 27 27 26 26 27 26 25 24 22 21 22 23 23 21 22 24 24 22 25 28 29 27 26 26 24 26 21 22 22 21 20 19 18 18
39 37 35 32 30 29 25 24 22 22 24 23 24 25 24 25 24 22 23 25 26 19 14 21 24 23 21 20 22 21 21 20 20 20 19 18 22 25 25 27 28 28 27 25 25 25 26 22 22 22 22 20 18 18
35 36 30 28 26 24 23 24 22 24 20 20 21 22 19 19 20 22 21 24 23 18 21 21 18 19 19 18 18 18 18 17 18 19 22 24 20 19 21 23 24 26 26 27 24 25 26 25 23 22 23 21 20 18
33 30 27 26 21 18 13 20 16 17 17 15 17 17 16 17 20 24 20 22 19 19 18 17 14 13 14 15 16 15 17 17 16 18 19 19 19 20 20 20 21 23 25 25 25 27 28 26 25 23 22 20 19 20
31 30 25 23 20 17 14 9 17 14 16 16 15 15 14 15 18 18 17 16 18 15 16 12 11 11 11 8 10 13 16 16 15 14 14 13 14 17 18 18 19 19 22 24 26 27 27 25 25 23 21 20 20 21
25 22 20 12 10 7 3 8 9 16 15 17 16 14 10 14 8 6 13 13 9 9 11 10 10 9 4 0 10 12 13 14 13 12 11 14 14 15 15 16 17 19 22 23 26 25 26 27 26 22 20 21 21 20
19 17 15 13 6 7 7 10 12 13 16 15 15 11 12 13 7 8 12 10 9 11 12 15 13 6 9 12 10 8 11 12 11 10 11 12 13 12 8 14 15 15 18 21 25 25 24 26 26 23 21 22 24 20
17 12 17 16 12 12 11 12 13 14 13 12 10 12 11 5 7 10 13 14 14 13 13 15 14 13 13 8 10 10 9 4 7 9 11 11 13 14 14 13 12 14 17 17 20 25 25 25 25 24 24 25 25 23
17 12 9 9 10 13 11 11 10 8 11 13 13 11 9 7 8 12 14 10 6 1 1 1 3 4 4 3 3 6 4 2 1 5 10 12 14 14 14 16 17 21 20 21 22 21 24 26 26 25 25 24 24 23
12 13 13 9 12 13 13 10 10 13 14 15 12 10 10 14 12 10 10 6 -2 2 2 1 2 -5 -3 -2 -1 0 1 1 2 6 6 8 9 8 9 13 16 19 20 22 25 27 26 27 27 26 26 25 23 22
11 16 12 12 12 12 12 12 12 11 11 10 11 11 12 12 10 6 4 -1 2 5 -0 -3 -5 -2 -2 -4 -3 -0 0 5 8 9 9 8 8 8 5 10 14 15 16 19 22 25 29 32 30 28 24 21 20 20
18 18 14 14 12 9 7 6 7 8 7 6 4 7 9 8 8 6 3 -1 -3 -8 -4 -4 -7 -11 -5 -4 -5 -5 5 4 3 7 10 13 14 15 15 15 14 15 16 18 21 25 26 27 25 21 20 19 20 20
15 15 15 11 8 5 5 5 5 5 5 2 3 -2 -0 2 3 7 -1 -4 -6 -3 7 1 -5 1 1 2 -0 6 16 14 14 14 13 15 16 17 17 16 14 15 17 19 23 26 24 20 20 19 19 19 19 17
7 5 8 7 5 1 2 4 2 0 -1 -5 -4 -4 -7 -1 4 6 1 -4 -1 -0 0 1 1 -2 -1 -1 4 8 15 13 13 21 23 24 24 25 19 16 18 20 21 23 23 21 20 20 19 19 19 17 16 16

GFSWCAN_sfc_dewp_048.txt.gz
Dewpoint
42 42 42 41 41 40 40 42 43 40 40 40 38 38 37 38 37 37 39 44 40 37 39 41 44 38 39 39 35 40 38 39 38 35 33 31 30 29 30 32 30 29 29 31 31 29 24 30 35 33 35 36 36 38
43 43 42 41 40 41 40 41 42 40 41 40 38 39 38 38 36 36 38 42 44 38 38 42 43 45 44 43 42 40 38 38 39 37 36 33 31 32 30 31 34 30 31 31 32 29 30 33 36 37 36 35 36 37
43 42 42 41 41 41 41 40 43 38 40 40 40 39 40 38 36 35 37 40 41 38 41 42 42 47 47 47 47 40 41 41 38 40 37 35 33 34 30 30 33 34 35 34 33 34 33 34 36 35 34 34 34 38
44 43 41 41 41 42 40 41 43 39 40 41 40 39 40 37 36 36 36 41 40 38 36 42 47 44 46 47 46 45 43 45 43 43 40 38 36 39 35 35 35 34 35 34 35 35 36 36 36 35 33 33 33 40
44 43 42 41 40 42 40 41 43 39 40 41 40 40 40 42 42 40 37 40 40 37 36 40 42 44 45 45 45 45 44 44 43 41 40 38 39 37 36 35 33 35 35 34 34 35 35 36 36 35 32 32 34 36
44 43 42 41 41 42 40 41 42 38 40 40 40 41 42 42 42 37 36 42 41 42 38 37 44 40 44 46 46 46 46 45 44 42 40 41 40 40 36 35 34 37 36 36 35 36 36 36 35 33 32 33 33 33
43 42 40 41 42 40 40 42 38 41 39 39 40 42 43 42 40 35 37 42 44 44 39 37 37 43 44 44 44 45 46 44 43 41 40 40 40 40 37 33 34 38 39 38 38 37 36 35 34 32 32 32 32 29
44 41 41 41 40 40 41 42 38 39 40 40 40 41 40 40 38 37 41 42 44 41 42 36 35 38 44 42 41 45 43 43 43 41 41 39 40 39 36 38 37 37 38 37 37 36 35 33 31 30 29 27 26 25
42 40 41 40 41 40 41 41 39 40 40 39 40 42 39 41 38 41 45 45 45 42 38 38 34 32 44 42 43 43 43 39 42 38 39 40 39 35 32 29 30 33 35 37 37 34 32 32 30 28 28 27 25 24
41 41 40 40 40 40 41 40 39 40 38 41 40 39 38 41 43 43 43 41 41 42 41 38 39 35 39 40 39 40 41 38 33 37 40 37 37 35 30 30 31 34 35 36 36 33 31 29 29 28 28 27 26 24
42 41 39 40 40 41 41 40 40 38 38 35 36 36 40 42 42 40 37 37 38 36 40 40 39 35 40 35 36 39 35 35 32 34 34 32 33 31 30 30 32 34 35 36 36 37 37 36 32 29 29 27 25 23
41 40 40 39 40 42 40 40 38 35 34 34 35 38 39 39 38 35 34 35 35 34 38 38 38 39 39 41 38 37 34 34 30 36 33 30 34 30 29 30 31 33 34 35 36 36 37 37 34 31 29 26 24 20
40 40 40 38 41 42 39 39 36 37 38 39 37 34 36 36 32 31 30 32 33 35 35 36 35 38 39 39 36 34 33 32 34 31 30 33 30 29 29 29 30 31 33 34 35 37 38 36 34 31 28 25 20 18
41 41 42 41 42 42 40 38 35 36 38 33 27 29 31 30 31 32 26 31 34 34 35 37 35 36 38 35 35 32 33 31 28 28 27 30 29 28 29 29 29 30 32 32 34 35 35 39 38 36 31 27 23 18
41 41 41 40 42 40 38 34 35 36 33 27 30 24 29 31 32 32 33 34 34 36 36 36 35 35 33 33 33 31 29 26 26 28 29 25 27 27 27 28 28 30 31 31 32 33 32 31 31 25 23 21 20 18
41 41 40 41 39 37 35 36 36 34 29 27 26 25 31 31 31 31 32 33 34 35 35 35 33 32 31 32 30 28 26 25 25 29 23 22 25 26 27 27 28 29 30 31 30 31 31 29 26 23 21 21 20 19
40 38 41 39 38 35 36 35 32 26 19 19 20 29 27 25 31 31 32 32 33 33 33 33 31 30 32 30 29 31 29 30 29 25 21 23 24 25 26 27 28 28 28 29 29 27 28 27 23 21 20 20 20 19
38 40 41 38 37 33 33 32 27 24 20 23 20 22 29 30 30 30 30 31 33 32 32 32 31 30 29 29 24 24 29 29 28 27 27 24 24 25 26 26 27 29 27 27 26 26 25 24 23 22 22 22 21 20
39 40 40 40 35 32 28 27 27 21 22 26 27 27 29 29 29 28 29 29 31 33 31 31 28 28 27 24 28 27 27 27 25 25 25 26 26 24 24 24 27 28 26 25 26 26 27 25 24 22 21 20 19 18
40 41 41 37 33 28 23 24 28 23 20 24 27 26 27 27 26 27 27 28 29 26 26 26 27 28 26 25 22 26 23 24 23 21 20 21 22 18 21 22 26 26 27 27 25 28 23 24 23 22 20 20 18 18
38 37 36 31 29 27 22 21 19 20 21 21 22 24 21 25 24 23 24 27 26 21 17 21 23 24 21 21 23 23 22 20 20 19 18 15 19 19 20 19 17 23 24 25 26 27 27 26 25 23 24 21 20 19
36 35 31 29 24 21 18 22 20 23 20 19 20 21 17 17 18 21 21 23 22 20 21 22 20 20 19 19 18 18 19 19 17 18 20 21 18 16 17 17 17 15 16 22 25 25 25 26 27 24 23 23 22 19
33 30 27 23 14 11 10 20 16 17 16 14 17 15 14 15 17 23 17 17 21 22 21 20 16 14 17 14 16 15 16 15 15 16 17 17 17 18 17 16 17 11 16 18 20 22 23 27 29 28 24 24 20 19
32 29 21 16 12 11 13 10 18 18 15 16 15 13 11 9 17 17 11 18 22 14 16 16 15 14 13 10 10 12 14 15 14 11 12 11 11 13 16 17 17 16 17 19 19 23 23 25 28 28 24 22 21 20
26 19 16 7 10 7 3 6 8 12 8 13 14 13 11 11 8 8 9 18 13 10 13 13 13 10 9 4 9 11 11 14 12 11 10 12 11 12 12 13 14 15 17 14 18 17 20 24 25 25 23 22 22 23
21 17 18 11 3 6 7 5 9 9 13 12 13 11 9 8 3 5 12 19 15 13 14 16 17 11 11 11 9 6 11 12 11 9 8 11 11 9 3 9 12 13 16 17 13 15 18 20 23 23 23 23 27 25
19 13 17 18 12 11 9 11 13 14 10 10 7 7 8 6 5 10 16 17 17 16 15 18 17 16 14 9 10 9 7 5 8 8 8 7 9 11 11 11 11 13 15 13 13 15 17 18 20 23 23 23 25 25
18 14 12 11 8 9 4 8 8 9 11 14 12 8 7 5 6 13 14 13 11 11 7 6 8 10 8 6 4 6 2 -2 -3 -0 4 8 10 11 11 13 14 18 17 18 18 18 19 19 18 21 23 23 24 26
11 11 11 2 4 5 7 9 11 13 14 14 9 9 9 13 14 10 11 9 6 9 10 9 7 -3 -2 -4 -3 -3 -3 -1 1 1 4 8 6 5 6 8 11 11 15 17 21 22 22 23 22 22 24 24 25 25
8 12 6 1 4 5 11 12 11 10 11 11 11 9 10 12 11 4 5 3 6 11 11 6 -1 2 1 -0 -2 -2 -4 -0 4 6 5 8 7 4 2 6 10 12 13 11 13 14 20 21 25 28 28 25 22 21
15 8 5 7 7 6 6 7 6 8 3 0 0 3 8 7 9 10 10 6 5 2 2 -1 -4 -11 -4 -7 -7 -7 1 -0 -2 2 5 9 11 12 12 13 15 16 15 14 13 13 15 18 22 24 20 19 20 20
10 7 11 8 6 6 6 3 5 2 -1 -3 -1 -3 2 4 7 12 3 2 2 -0 8 3 -3 1 -1 -1 -3 -1 13 9 8 10 10 12 13 13 14 15 18 18 15 14 13 14 17 19 20 20 20 19 20 20
4 6 6 2 -1 0 3 8 2 -2 -2 -2 1 1 1 4 7 9 1 -4 -1 0 0 1 -1 -3 -3 -1 0 1 11 6 10 18 20 21 23 25 25 24 19 16 15 15 16 18 20 20 20 20 20 20 19 18

GFSWCAN_sfc_dewp_051.txt.gz
Dewpoint
44 44 42 42 42 42 41 41 42 43 40 41 40 38 37 37 37 36 36 43 40 37 38 39 42 39 37 38 33 38 36 39 38 34 33 30 29 30 30 31 31 30 29 29 29 28 24 30 37 33 34 36 37 37
45 44 42 43 42 42 40 41 41 43 39 40 40 40 38 40 35 36 33 41 42 38 38 41 41 42 43 43 41 40 37 38 39 36 35 34 31 31 29 31 32 29 28 28 29 28 30 31 35 37 36 35 35 37
45 44 43 42 42 42 41 41 40 41 42 39 40 41 38 40 38 35 35 38 40 38 39 40 42 46 45 46 47 38 40 40 40 39 37 34 32 33 29 29 32 33 34 33 33 34 34 34 35 36 35 34 34 35
45 45 43 42 42 41 42 41 40 42 42 39 39 40 39 41 40 36 36 38 39 37 35 40 47 45 47 46 46 44 43 44 43 42 39 38 36 37 34 33 34 35 35 34 34 35 35 36 36 36 34 33 33 39
45 45 44 43 42 41 41 41 40 42 39 38 40 40 41 41 42 42 38 38 41 35 34 38 43 45 46 45 43 43 43 44 43 41 40 38 39 37 35 36 33 34 34 33 33 35 35 35 35 36 34 32 33 38
45 45 44 43 42 41 41 40 41 42 38 40 40 39 41 42 42 36 33 40 41 40 36 36 43 42 42 45 46 45 44 44 43 42 40 41 41 38 36 35 34 36 37 36 35 37 36 36 35 35 33 32 33 36
45 45 44 42 41 42 40 40 43 39 39 40 40 41 42 42 38 32 36 41 42 41 37 36 37 43 44 45 44 45 46 45 44 42 40 40 40 39 37 32 36 35 34 37 37 37 35 35 35 33 32 32 33 31
46 44 43 41 41 41 40 40 42 38 38 40 40 42 41 42 38 35 39 42 45 40 41 35 36 38 43 41 41 44 43 43 43 41 41 39 40 40 35 33 29 31 34 36 35 36 34 34 32 31 30 28 28 27
45 44 42 42 41 40 39 42 41 38 40 39 41 39 39 40 37 40 46 45 44 41 37 38 34 32 44 42 42 43 43 39 42 38 39 40 37 35 33 29 30 31 33 34 36 37 34 32 31 29 28 27 26 25
45 42 42 41 40 40 41 42 40 40 38 40 40 39 37 41 44 44 43 40 40 41 40 37 38 34 39 39 39 40 41 38 33 37 40 37 36 35 33 30 31 32 33 34 34 33 35 31 31 29 28 27 26 25
43 42 41 40 39 41 43 40 40 38 37 35 37 37 40 42 42 40 37 37 37 36 40 37 37 35 39 34 35 39 35 34 32 34 35 33 33 34 30 29 30 32 33 33 34 35 36 37 36 32 29 28 26 24
43 41 40 39 37 40 43 39 38 34 33 33 35 38 39 39 37 34 33 35 35 31 38 38 38 38 39 40 36 36 34 34 31 36 33 29 34 29 29 29 29 30 32 33 34 35 36 37 38 35 31 29 26 23
42 40 40 39 38 41 43 39 36 36 38 39 37 34 36 35 31 32 29 31 33 35 35 36 35 38 39 39 35 35 32 32 35 32 28 32 29 28 28 29 29 30 33 32 34 35 36 36 33 32 28 26 22 21
41 41 41 41 41 42 42 39 34 37 38 34 31 30 31 30 30 31 26 31 34 34 36 37 36 36 38 35 35 32 33 31 29 27 27 28 27 27 28 28 29 29 30 31 33 33 35 38 39 35 31 28 25 19
41 41 41 41 41 41 38 34 36 36 33 29 30 24 29 31 32 32 33 33 34 36 36 36 34 35 33 33 33 32 30 27 26 26 28 25 26 26 27 28 28 29 29 30 30 30 30 32 33 31 32 30 28 22
42 41 40 40 40 38 36 37 36 33 26 26 26 22 30 31 30 31 32 32 34 35 36 34 33 31 30 32 30 29 26 24 24 29 29 24 25 25 26 27 27 29 28 28 29 29 28 28 27 25 28 26 23 20
41 38 40 41 38 38 36 34 32 26 21 18 18 25 29 18 23 30 33 32 33 34 33 33 31 28 32 30 29 30 28 29 23 28 26 23 23 24 24 26 26 28 28 28 28 28 28 26 25 22 21 21 22 23
38 40 41 40 38 34 33 32 27 24 21 22 21 19 28 28 30 30 31 31 33 32 32 32 32 30 30 28 28 28 29 29 29 28 27 25 23 24 25 25 26 27 28 27 26 26 26 27 25 24 22 23 22 21
40 41 41 40 36 33 28 28 28 22 23 26 26 26 26 28 29 28 29 30 33 34 31 30 27 28 24 24 23 15 18 22 26 26 25 25 24 23 23 22 25 24 24 24 25 26 26 26 25 24 23 21 20 19
41 41 41 40 34 29 25 25 29 24 22 25 27 26 26 26 26 27 28 29 30 28 26 26 26 26 26 25 22 22 22 25 23 21 19 19 21 15 19 19 21 21 22 22 23 27 27 26 26 25 22 21 20 19
38 37 36 32 30 28 25 24 23 23 24 23 24 25 23 23 24 24 25 28 27 25 20 23 24 25 20 20 24 25 23 21 20 19 16 13 17 17 17 16 13 19 20 20 20 22 24 24 25 27 27 23 22 20
36 36 31 29 23 19 21 23 21 24 21 21 21 22 19 17 17 19 25 24 24 23 22 21 19 21 20 20 18 18 20 20 19 18 20 19 17 15 15 15 14 9 11 10 16 18 20 22 23 25 28 25 25 21
34 30 26 19 14 12 11 20 16 17 13 14 16 13 13 14 15 23 21 19 21 24 20 20 16 15 20 16 18 17 17 16 14 15 16 16 16 16 14 14 14 6 10 14 16 17 16 22 23 25 26 27 23 21
33 26 20 14 11 10 13 9 17 14 12 14 11 9 10 10 16 16 12 15 21 19 17 15 14 14 13 11 12 14 15 16 14 11 11 10 8 12 13 14 16 15 16 16 15 15 18 20 22 22 24 26 23 22
27 18 17 8 10 6 1 5 5 9 5 7 9 7 7 8 5 5 10 17 19 16 15 15 14 13 15 11 10 11 12 15 13 13 11 11 9 8 8 11 13 14 15 10 14 15 14 14 20 20 22 24 23 23
17 14 19 12 3 7 7 -0 2 3 5 3 5 4 2 3 1 5 10 13 10 11 13 15 18 13 10 11 9 8 12 14 13 10 10 12 12 8 2 6 10 11 15 16 11 12 13 12 13 13 17 20 25 26
15 13 18 17 14 10 8 9 10 8 2 4 6 6 3 0 2 8 13 14 14 12 12 17 19 18 18 15 13 11 8 10 11 10 9 8 9 11 10 9 9 12 13 11 10 12 13 14 14 15 15 17 20 23
21 15 13 12 8 7 3 5 3 5 7 13 12 6 6 3 5 12 13 12 9 7 4 9 9 12 13 9 8 11 6 2 2 4 4 7 8 7 9 11 12 17 16 14 14 15 15 15 15 16 16 17 19 20
15 11 12 0 1 3 5 5 6 10 14 13 9 8 9 12 13 10 12 9 3 7 8 8 7 -1 -0 -2 -2 1 4 6 6 4 5 9 3 5 3 5 6 7 8 10 17 20 20 19 19 19 19 19 20 23
9 10 5 -1 3 4 6 8 6 6 10 10 10 9 9 10 12 6 3 2 7 11 10 7 4 8 6 6 6 1 -2 2 7 9 6 8 5 1 -2 3 8 10 8 11 13 12 18 16 15 14 16 19 23 21
12 5 2 4 4 -0 -2 2 3 8 -0 -3 -3 2 5 4 7 8 9 7 5 -0 0 -1 -4 -6 4 0 0 -2 4 1 -0 1 2 2 4 7 9 10 11 12 12 14 14 13 12 10 8 12 16 19 20 22
6 3 6 2 1 -4 1 0 -1 -2 -6 -4 -3 -7 -2 0 3 9 4 -1 1 6 11 10 8 9 4 2 -2 -2 11 0 1 3 3 7 9 10 11 13 14 14 14 16 15 13 12 10 11 13 17 17 20 20
8 2 -1 -1 -3 -2 2 4 1 -4 -6 -7 -4 -4 -5 1 4 9 4 -2 4 7 7 5 1 -2 -3 -2 -1 -1 9 -0 3 17 19 20 20 21 21 21 21 21 19 16 14 13 12 12 13 16 18 19 20 18

GFSWCAN_sfc_dewp_054.txt.gz
Dewpoint
46 45 44 44 42 41 41 41 42 42 43 41 41 40 38 37 38 36 35 42 40 37 37 39 40 40 37 36 33 35 33 36 37 33 31 31 30 32 30 31 32 29 28 29 28 27 23 30 36 34 34 36 35 35
47 45 44 44 42 43 42 41 41 41 42 43 40 39 41 38 39 38 32 39 41 37 37 40 39 40 42 41 39 40 34 37 37 35 34 34 32 32 29 31 33 29 27 26 28 25 29 32 34 36 37 35 34 35
47 45 45 44 44 43 42 42 42 42 41 43 41 39 40 39 38 39 36 36 35 36 36 39 38 40 42 41 45 38 41 40 39 40 38 34 30 32 28 28 29 33 32 32 33 34 34 35 35 35 36 35 35 35
47 46 45 44 44 43 42 42 42 41 41 43 40 39 40 39 41 41 35 39 35 36 32 36 45 46 48 47 45 43 41 43 43 42 39 37 35 35 31 31 33 34 33 32 32 35 35 36 36 37 35 34 33 37
47 47 45 45 44 43 42 42 42 41 41 42 38 39 39 40 41 42 40 39 39 35 31 35 40 44 46 46 44 43 43 43 42 40 39 37 38 36 33 33 31 34 35 35 33 35 35 35 36 36 35 34 33 35
48 47 46 45 44 43 42 42 41 41 43 40 40 40 40 41 41 37 32 36 39 39 33 32 44 42 44 45 45 44 44 44 43 41 40 40 41 39 35 33 35 36 36 37 36 37 37 37 36 35 34 34 33 35
47 47 46 45 44 43 42 41 41 41 42 39 40 39 41 42 37 30 32 41 41 39 34 32 38 44 45 45 45 45 46 44 43 42 41 40 40 41 38 31 34 31 33 33 37 36 35 34 35 35 33 33 34 33
47 47 46 45 44 42 41 41 40 42 40 38 39 41 42 42 38 35 41 43 41 37 37 34 36 39 43 41 41 44 43 43 43 41 41 39 40 39 35 34 30 31 32 34 34 36 36 35 32 31 30 30 30 29
47 47 46 44 42 42 40 40 41 41 39 40 40 38 39 38 35 39 43 44 43 39 35 37 33 31 43 42 42 42 43 38 42 38 38 40 38 34 34 30 30 31 32 32 34 35 36 35 33 31 29 28 28 28
47 46 45 43 42 40 40 41 42 40 39 39 41 38 36 41 45 45 42 38 37 39 39 37 38 35 40 40 40 41 41 38 33 37 40 36 36 35 32 30 30 30 32 32 32 33 34 31 35 32 29 29 28 27
47 45 43 42 41 40 40 43 39 38 37 35 36 36 40 42 41 40 37 36 37 34 38 37 37 35 38 35 36 37 35 35 32 34 34 33 33 35 31 29 29 30 31 32 33 34 33 34 35 36 35 30 28 26
45 43 42 41 39 39 41 41 38 34 34 34 35 39 39 39 37 33 33 35 34 30 36 38 37 37 39 40 35 35 34 34 31 36 33 28 33 28 27 28 29 29 31 34 33 34 35 35 36 37 37 32 29 26
44 43 41 40 38 39 40 41 38 36 38 39 37 33 35 35 30 29 28 31 32 35 35 36 35 38 38 38 35 35 32 32 35 32 28 30 28 27 27 28 28 29 34 33 33 34 35 35 37 31 31 29 26 23
43 41 41 40 39 38 40 40 36 37 38 34 32 29 30 30 30 32 25 24 33 35 36 37 36 36 38 35 35 32 34 32 29 27 27 29 27 27 27 28 28 28 29 30 30 31 32 34 35 37 30 26 23 23
42 42 41 41 41 41 39 36 37 36 34 30 30 23 29 31 32 32 33 33 34 36 37 36 34 35 33 33 33 32 30 28 28 26 27 28 25 25 27 27 27 28 28 28 28 29 29 28 30 33 33 33 30 28
42 41 40 42 41 40 37 37 36 33 27 28 28 25 28 31 30 31 32 32 34 36 36 34 33 28 31 29 30 29 27 23 22 27 28 27 24 25 26 26 26 28 29 28 28 28 28 28 26 25 27 31 30 28
41 38 41 41 40 40 37 34 33 26 22 18 18 24 29 27 28 31 33 33 34 34 33 33 30 28 32 30 29 30 28 25 21 29 28 27 24 24 23 24 25 27 27 27 26 27 27 27 26 24 23 23 23 26
38 40 42 41 39 37 34 32 27 24 21 20 20 20 27 29 30 31 31 32 34 32 32 32 32 30 29 27 23 25 22 20 26 28 27 25 23 23 24 23 24 25 24 24 24 24 26 26 26 25 24 23 22 21
40 40 41 40 36 33 29 28 28 22 22 26 26 23 25 27 28 28 30 32 34 34 31 30 29 28 24 24 20 16 14 21 24 26 26 25 24 23 22 21 23 22 20 20 22 23 25 27 25 25 24 22 21 20
42 41 41 39 35 30 26 26 29 25 23 25 27 25 24 24 25 25 28 29 30 29 27 26 26 27 26 25 23 22 22 25 24 22 20 19 20 14 18 18 20 18 18 19 18 22 20 23 24 25 25 26 24 22
38 39 37 35 31 29 26 24 24 24 25 24 25 26 23 24 21 19 25 28 27 26 19 22 23 25 21 21 25 25 24 23 22 21 17 14 18 16 15 14 11 17 17 16 15 16 18 20 21 22 20 26 26 23
36 38 32 29 23 22 22 24 23 25 23 22 22 23 20 19 19 20 23 21 23 24 24 21 19 21 20 21 20 19 21 21 19 19 20 20 16 14 14 14 12 6 6 8 12 14 15 17 19 22 23 24 27 25
34 30 22 19 15 13 11 20 16 17 16 16 17 17 17 16 17 22 19 21 22 25 22 19 15 14 19 17 20 18 19 18 17 15 16 16 15 15 13 13 12 6 7 12 14 14 11 18 20 21 21 23 24 24
32 22 17 12 11 9 12 7 16 14 13 15 11 11 12 12 17 16 14 15 20 19 18 17 15 13 12 12 14 15 16 15 13 11 12 14 12 12 13 13 14 13 14 15 12 12 14 15 19 16 20 21 22 24
21 16 17 8 11 6 4 4 2 9 7 7 7 7 9 10 5 6 10 16 14 12 14 13 14 14 14 11 12 13 13 15 13 13 12 13 11 9 10 11 12 13 15 8 13 13 12 11 12 13 13 15 15 17
19 14 19 18 7 7 6 -2 2 5 5 4 6 5 2 3 0 5 10 10 8 6 6 13 15 12 12 13 13 10 12 14 13 10 9 12 12 10 7 8 10 11 13 14 8 10 11 10 11 10 11 13 19 17
12 12 19 18 14 10 7 8 9 6 0 4 5 4 2 -2 -1 6 12 11 11 9 7 10 17 18 18 15 12 11 8 14 11 11 10 9 10 11 10 9 10 12 12 10 10 11 11 12 12 11 11 11 10 12
20 16 14 12 7 6 3 4 2 4 5 10 10 2 1 3 6 11 12 11 8 3 3 5 6 11 12 11 9 12 5 1 4 6 9 10 9 8 7 10 11 17 15 12 11 12 13 13 12 13 13 12 13 12
16 12 13 -0 -0 1 4 6 5 9 12 13 9 6 6 10 11 11 10 7 0 5 10 9 9 3 0 -1 -1 0 3 9 9 7 8 10 4 6 0 3 3 3 5 7 16 18 15 16 17 16 15 15 15 15
11 10 6 -2 5 6 8 7 4 1 8 10 9 8 9 9 10 5 4 1 5 10 13 11 7 11 10 9 5 2 -1 2 8 11 10 10 9 1 -4 -2 3 7 8 7 8 8 17 15 13 10 10 11 13 14
11 4 1 3 4 1 -2 -1 -1 6 -2 -5 -6 2 5 3 6 8 9 9 7 -1 1 1 -3 -3 3 3 2 0 5 3 4 6 4 -0 -1 -1 2 5 7 9 8 10 10 10 11 11 8 9 9 7 8 16
4 6 5 1 1 -5 -6 -5 -6 -4 -8 -6 -3 -10 -3 -1 3 10 2 -1 -1 2 10 8 5 6 5 2 2 4 11 4 1 1 -1 1 3 6 8 10 11 11 11 12 13 13 12 10 10 10 10 7 8 13
-5 -6 -8 -3 -2 -4 -3 -3 -4 -5 -7 -8 -4 -5 -6 1 6 9 3 -3 1 2 2 2 1 1 2 3 3 1 7 -4 3 16 19 20 21 20 20 21 18 18 17 17 15 15 12 10 10 10 11 11 14 15

GFSWCAN_sfc_dewp_057.txt.gz
Dewpoint
50 48 47 45 45 43 42 41 42 42 42 42 43 41 41 39 37 36 35 40 38 36 35 38 39 40 39 35 32 34 33 34 35 33 31 31 29 31 30 30 29 27 27 25 26 24 19 30 36 35 36 36 36 36
50 48 46 45 45 44 43 43 43 42 42 42 42 43 40 40 39 38 34 39 41 34 36 39 39 40 41 44 38 36 31 34 35 34 34 34 31 34 29 31 33 29 28 26 25 24 28 32 35 36 37 36 35 35
51 48 46 45 45 44 44 43 43 42 42 42 43 43 40 39 41 38 36 36 36 32 32 34 31 35 39 39 41 36 38 39 39 39 36 35 29 31 28 28 29 32 32 31 32 33 32 33 36 35 36 36 35 36
50 48 47 46 45 45 44 44 43 42 42 42 42 43 39 40 39 39 37 38 36 33 28 30 40 39 46 42 42 43 40 42 41 40 38 37 34 34 30 30 31 33 33 31 32 33 35 36 37 37 36 35 34 35
50 49 48 47 46 45 44 44 43 43 42 41 43 40 39 39 39 40 38 37 38 32 29 29 35 38 46 46 46 44 42 42 42 40 38 36 38 36 33 32 31 34 34 34 35 35 35 35 36 37 36 35 34 34
50 49 47 46 46 45 45 44 43 42 41 42 42 40 40 40 41 37 34 35 39 38 31 28 39 43 45 46 45 44 43 42 41 41 39 40 40 38 35 32 33 34 36 36 35 35 36 37 38 35 34 34 34 33
49 48 47 47 47 45 45 44 42 41 41 42 40 40 40 40 37 31 29 40 40 40 33 29 33 44 46 45 45 44 44 44 43 41 40 39 40 40 38 33 33 32 32 33 36 35 34 35 35 34 33 33 33 33
49 48 47 47 46 46 45 43 42 41 41 41 39 40 42 41 40 37 40 41 40 36 34 31 33 40 45 42 41 45 43 43 43 41 41 39 40 40 34 37 30 31 32 32 33 35 35 36 36 33 31 31 30 30
48 48 48 47 46 45 43 42 40 40 42 40 39 41 38 36 34 37 42 42 41 37 33 35 32 33 43 41 42 43 42 38 42 39 38 40 37 34 36 33 31 30 31 32 33 34 35 34 35 35 31 30 29 29
48 48 47 47 46 44 42 41 40 41 39 38 40 37 35 39 43 45 41 36 36 37 36 35 38 36 39 39 38 40 40 38 33 38 40 36 35 35 31 29 29 30 31 31 32 32 32 33 34 34 35 32 30 29
48 48 47 47 44 43 41 41 42 38 38 37 36 36 40 43 41 39 35 34 35 34 38 37 37 37 40 36 37 38 35 35 32 34 35 33 33 34 29 29 29 29 30 31 32 33 34 34 34 34 35 36 33 29
48 47 47 45 43 42 41 42 40 33 34 36 36 39 39 38 36 33 33 34 33 29 35 37 37 38 39 40 34 35 33 34 29 36 33 30 32 28 28 27 28 28 31 34 34 34 34 35 35 35 35 37 35 30
47 47 45 43 42 40 42 41 40 35 38 38 37 33 35 35 29 29 27 31 32 36 36 36 35 38 38 38 34 34 32 32 35 32 29 28 29 27 27 28 28 29 33 34 34 33 33 34 36 35 29 28 29 26
46 45 44 42 40 39 40 42 38 38 37 34 31 28 30 30 30 31 27 30 31 34 36 37 36 36 38 34 35 33 34 33 29 27 27 29 28 27 27 27 28 28 28 29 30 30 30 30 32 35 34 28 24 23
44 44 42 40 39 39 41 38 38 37 35 31 31 25 29 31 32 32 33 33 35 36 37 36 35 35 33 33 33 32 30 27 28 24 25 28 27 26 26 26 26 28 28 28 28 28 28 28 27 26 31 34 32 29
43 42 40 41 41 41 39 39 36 33 28 29 29 25 26 29 29 31 32 33 35 36 36 35 33 26 31 28 30 27 25 20 22 23 25 27 25 25 25 25 25 27 28 27 26 27 28 27 27 25 24 25 29 32
41 39 41 42 41 40 39 34 32 27 25 19 18 25 28 25 21 27 33 33 34 35 32 33 30 28 31 28 27 29 22 23 22 22 25 28 27 24 24 24 25 26 25 24 25 26 27 27 27 26 24 24 23 22
38 41 41 41 39 37 34 30 27 23 18 17 21 22 26 28 27 29 30 33 34 33 32 32 32 30 29 27 23 24 20 16 20 24 25 26 24 24 24 23 24 23 20 22 21 22 23 26 25 25 25 24 22 22
39 41 41 40 37 33 29 28 26 19 21 25 26 26 26 25 28 27 28 32 34 34 31 30 29 28 26 24 21 15 16 19 24 25 25 24 24 26 23 21 22 20 18 16 19 20 21 23 24 24 24 25 25 23
42 41 40 39 35 29 25 24 29 25 21 25 26 25 25 24 24 23 25 27 30 29 26 24 24 26 26 25 23 22 22 24 24 23 22 21 20 14 18 18 19 17 16 16 15 18 16 18 21 21 21 23 26 25
39 39 39 35 31 29 27 25 24 25 25 24 25 26 25 24 20 17 17 24 27 25 19 23 24 25 22 20 25 26 25 23 23 24 23 16 20 17 14 12 9 15 15 14 14 14 15 15 17 19 16 22 24 25
36 37 32 29 23 22 21 24 24 25 24 23 23 23 21 20 20 21 23 21 21 23 25 23 19 20 21 21 20 19 21 22 20 20 20 20 16 14 14 14 11 6 5 7 9 12 13 14 17 18 20 20 23 22
34 28 22 19 14 11 10 19 15 16 16 17 18 19 18 18 18 21 16 17 21 25 24 19 15 13 19 18 21 19 19 18 18 18 18 16 15 15 14 13 13 6 6 11 12 12 10 16 18 18 18 18 20 21
30 21 19 15 10 8 11 6 15 13 13 15 12 12 13 14 18 16 14 17 21 19 18 17 16 15 15 15 16 16 17 17 14 11 11 13 10 11 14 14 13 13 14 15 12 12 12 13 17 14 14 13 14 15
22 18 21 14 12 5 2 3 2 8 6 7 8 9 10 12 11 11 13 17 15 14 14 14 15 14 15 12 14 14 13 15 14 12 11 12 11 9 9 10 12 13 15 9 13 13 12 10 10 10 11 11 11 10
13 15 18 19 15 7 5 -1 -0 3 4 3 4 5 3 6 6 8 12 14 12 11 10 10 12 11 14 16 16 13 15 15 14 12 11 14 14 10 5 8 7 10 13 14 9 10 10 9 8 7 9 10 16 14
12 12 19 17 13 10 7 7 7 5 -1 4 4 4 2 -0 1 7 13 13 12 13 10 8 13 18 18 17 15 13 11 15 14 13 11 12 13 13 13 11 10 12 13 11 9 10 9 9 9 9 9 9 7 8
21 15 14 12 7 5 3 3 1 2 4 9 9 3 3 5 11 13 12 12 10 4 2 5 8 12 13 14 9 11 5 1 1 4 8 9 6 5 5 10 10 16 14 12 10 8 10 12 11 10 10 10 11 10
20 16 13 1 0 0 3 5 5 8 11 12 9 6 7 10 9 8 10 6 -2 2 6 6 6 0 2 0 -1 -0 2 10 11 8 8 12 7 9 0 1 3 2 2 3 15 17 12 12 14 14 13 14 14 12
15 14 6 -3 3 6 8 8 3 0 7 9 9 8 8 8 8 3 3 -0 5 10 12 8 6 9 11 10 9 6 3 5 10 14 13 14 11 2 -5 -3 -2 -1 -1 1 5 6 16 13 12 10 11 10 10 10
11 6 2 3 5 2 -3 -3 -3 5 -4 -6 -7 1 5 2 6 7 8 10 12 -1 1 3 -2 -1 7 6 8 6 11 6 6 5 2 -0 -3 -3 -2 -0 2 3 3 4 6 8 9 9 8 9 9 7 5 13
4 5 5 1 2 -6 -9 -6 -8 -5 -9 -7 -4 -13 -5 -2 2 9 2 -2 -2 3 9 8 7 9 6 3 2 1 12 1 -1 1 0 1 -1 1 4 5 5 6 6 9 10 10 10 9 10 10 9 6 7 8
-5 -7 -11 -6 -3 -3 -4 -3 -5 -5 -8 -8 -3 -3 -5 2 7 10 0 -4 -0 1 1 4 1 -1 -0 2 2 0 7 -3 1 14 18 19 20 18 17 16 15 12 10 11 12 13 11 11 11 9 9 8 10 11

GFSWCAN_sfc_dewp_060.txt.gz
Dewpoint
53 52 50 48 46 45 44 44 42 42 42 42 42 43 41 40 40 38 37 41 38 34 34 36 38 37 40 37 34 37 37 37 37 34 30 28 27 29 29 28 28 26 27 26 25 25 21 29 36 35 36 37 36 36
53 52 50 49 47 46 45 44 44 43 42 42 42 42 43 41 40 40 37 39 40 34 30 37 37 38 39 39 40 40 35 35 37 35 35 34 30 34 30 28 33 27 27 26 26 24 27 31 34 35 36 35 36 36
53 52 51 49 47 46 46 45 44 43 43 43 42 42 43 42 39 41 37 38 38 34 30 31 27 28 31 38 40 40 40 40 39 40 38 35 30 35 31 30 32 32 32 29 30 31 30 29 32 36 37 37 37 36
53 52 51 50 48 47 46 45 45 44 43 43 43 41 42 40 39 40 40 40 38 33 27 24 31 36 37 38 38 40 41 43 42 43 39 37 32 35 32 31 32 33 33 31 31 32 34 35 37 38 37 37 35 35
52 52 51 50 48 48 47 45 45 44 43 43 42 42 42 40 40 42 42 40 40 34 26 26 28 28 29 43 39 42 41 42 43 41 39 35 38 35 36 35 34 35 33 31 28 33 35 36 38 39 38 37 37 35
52 52 51 50 49 48 47 45 45 44 43 42 41 43 40 41 40 39 33 39 40 38 33 24 34 36 41 45 43 43 44 44 44 41 40 40 40 36 33 30 32 34 36 36 35 37 37 37 38 36 35 35 34 34
49 51 51 50 49 47 46 46 45 44 42 41 41 41 40 40 40 36 31 39 40 40 33 29 31 37 42 45 45 45 45 45 44 41 40 39 40 39 36 31 32 36 35 33 35 35 36 36 36 35 35 34 34 34
48 49 50 49 48 47 47 46 45 43 42 41 41 39 40 41 40 38 40 42 41 37 36 30 31 39 44 37 41 46 43 44 44 42 41 39 40 40 35 36 35 33 32 32 34 34 35 34 35 36 34 32 32 32
47 48 49 49 48 48 47 45 44 43 41 41 40 39 40 38 36 38 42 41 42 37 32 33 32 33 44 41 43 43 43 38 42 39 39 39 38 34 36 36 35 32 32 33 32 33 34 35 35 35 36 32 31 32
46 47 48 49 48 48 46 44 43 41 41 38 39 36 34 37 41 42 40 35 35 36 34 32 38 35 40 40 39 39 40 37 34 37 40 37 35 37 31 30 30 30 30 31 31 32 34 35 35 34 35 35 35 32
45 46 47 48 48 47 46 44 42 42 40 39 36 36 41 44 42 38 34 32 33 32 36 37 37 37 41 37 37 39 34 35 33 35 35 34 34 35 30 29 30 30 30 31 32 33 33 34 34 34 35 36 36 36
45 46 47 48 47 46 43 42 42 36 37 38 38 39 39 38 35 32 32 34 34 31 34 37 36 38 39 41 37 37 35 35 31 37 34 31 33 29 28 28 29 30 32 34 35 35 34 34 35 36 36 32 35 37
46 46 47 48 46 44 43 42 41 35 39 39 36 33 34 34 30 30 28 31 32 36 37 38 37 38 39 39 36 36 33 32 37 33 29 31 30 28 28 28 29 31 34 35 35 35 33 32 34 35 34 27 27 29
46 47 46 46 44 42 42 42 39 39 38 33 32 29 30 30 32 32 31 32 35 36 37 38 37 37 38 36 36 32 34 35 31 29 29 31 29 27 28 28 29 29 28 29 29 30 30 30 30 30 33 34 27 24
47 46 45 44 43 42 41 42 39 39 36 32 32 27 30 33 33 34 34 35 36 37 38 37 35 36 35 34 33 33 31 29 29 26 31 32 29 28 26 25 27 28 27 26 27 28 28 28 27 26 25 30 33 32
45 43 41 42 41 41 42 40 37 34 31 31 30 27 28 30 32 33 33 34 36 37 37 37 33 32 31 31 30 28 27 25 29 33 32 29 27 26 25 24 25 27 27 24 24 26 27 28 27 26 26 25 24 26
41 39 42 42 42 41 38 36 34 31 29 25 24 27 28 29 30 32 34 35 35 36 33 33 29 29 32 28 27 30 30 33 34 31 30 29 28 27 27 24 25 26 21 22 24 25 26 27 27 26 26 26 25 23
39 41 43 42 39 37 35 33 29 26 23 25 23 25 26 29 29 31 34 35 35 34 33 32 33 32 29 29 29 33 32 30 28 29 29 28 27 26 26 23 24 22 18 21 22 23 25 25 25 25 23 24 27 27
41 41 41 39 37 33 30 29 30 22 23 26 27 27 28 28 28 28 29 34 35 35 34 32 31 30 29 31 32 32 29 29 29 28 27 26 25 26 25 26 25 23 19 20 19 18 18 20 22 21 19 21 24 27
41 41 40 38 35 30 26 25 30 25 23 26 28 27 27 26 26 25 28 29 30 31 30 28 28 29 29 29 29 30 29 27 27 26 25 24 24 24 24 24 21 20 16 17 17 18 18 15 17 17 20 23 23 23
40 39 38 34 31 30 27 25 25 26 26 25 26 27 25 26 25 25 26 27 28 27 25 26 26 28 27 26 27 28 27 27 27 27 26 25 22 23 22 21 21 17 14 13 13 13 15 14 15 17 22 21 21 22
36 37 33 31 26 24 23 24 25 26 25 24 24 24 23 22 22 24 25 25 25 26 25 25 24 25 25 25 25 25 27 26 24 22 23 24 21 21 20 20 20 19 18 18 17 16 15 15 15 18 20 20 21 21
33 27 22 21 15 15 15 20 19 19 19 20 21 20 21 20 21 24 21 22 23 25 26 24 23 20 22 22 23 23 23 24 22 20 20 16 16 19 19 19 19 19 18 16 15 16 17 16 17 17 19 19 19 19
28 22 19 17 13 10 12 10 16 16 17 17 16 15 16 17 19 19 17 20 23 23 22 23 20 20 19 19 22 22 22 22 20 18 17 16 17 14 16 16 15 16 16 16 16 16 16 15 17 17 16 17 17 16
23 19 21 17 14 9 5 6 6 11 9 10 12 13 14 14 15 15 16 21 21 21 20 18 19 21 23 22 20 19 19 21 20 19 16 15 14 12 14 14 13 14 16 17 15 15 16 15 15 16 15 14 15 15
16 18 19 19 16 10 9 5 4 6 7 5 9 9 10 12 11 13 16 20 20 20 20 20 20 19 18 19 21 20 20 18 18 17 17 16 16 17 19 15 15 16 14 15 16 15 15 15 14 14 13 14 16 16
19 18 19 16 14 11 9 9 8 8 3 6 9 9 8 5 7 12 16 16 18 19 19 19 19 20 21 20 20 19 14 19 19 18 14 16 18 17 19 17 15 16 14 16 16 15 15 14 14 14 14 15 14 13
21 16 14 13 10 8 7 5 4 5 8 10 11 7 8 10 14 18 16 16 16 14 15 14 14 15 18 20 20 16 13 12 10 13 14 14 13 14 14 15 15 16 16 16 16 16 15 15 15 15 14 13 14 15
21 17 15 6 3 4 5 9 8 10 11 13 11 10 11 12 15 13 13 12 8 12 15 16 17 10 11 10 9 11 12 13 14 11 11 12 15 18 13 12 11 12 13 14 17 19 15 15 15 16 16 16 16 16
18 14 8 -1 4 9 13 10 9 5 9 11 10 11 10 11 13 10 9 8 11 14 17 16 14 13 16 15 17 13 9 12 16 17 17 18 18 14 9 10 10 10 9 10 11 12 15 16 15 13 13 13 14 14
11 8 5 4 6 7 1 -1 1 6 2 2 -1 8 10 9 9 10 10 13 15 11 10 12 10 9 12 12 13 15 16 14 12 12 12 10 9 9 9 9 10 10 10 10 10 10 10 11 11 11 11 11 10 14
7 7 8 4 6 -1 -3 -3 -4 -1 -2 -1 4 -5 1 3 6 12 9 5 5 8 13 14 10 12 10 12 11 13 14 10 8 8 7 11 10 10 9 9 9 9 9 9 9 10 10 10 10 11 11 10 10 9
0 -2 -7 -3 -0 1 -0 0 -2 -2 -4 -2 3 1 1 5 8 13 4 1 6 7 7 7 8 7 5 4 7 8 11 6 6 14 16 16 18 17 14 13 13 12 11 11 12 12 11 11 11 12 12 12 11 11

GFSWCAN_sfc_dewp_063.txt.gz
Dewpoint
54 54 53 52 50 48 46 45 45 43 43 43 43 43 43 42 40 40 37 39 35 30 29 29 31 34 37 39 35 38 37 37 37 33 30 27 25 26 27 26 26 26 26 25 25 24 22 27 33 29 37 37 36 36
54 54 53 52 51 49 47 46 45 44 44 43 43 43 43 43 43 41 36 39 38 34 29 32 31 29 29 33 37 40 37 34 35 33 31 31 27 31 26 24 30 25 26 25 25 25 28 31 34 34 36 37 38 37
52 53 54 53 51 50 49 46 46 45 45 44 43 43 42 43 43 40 38 40 39 34 30 30 28 28 28 29 38 38 40 40 38 40 36 32 29 32 28 26 29 29 29 27 28 29 29 28 32 35 37 37 37 37
50 51 53 53 52 51 49 48 46 45 45 43 43 43 43 42 43 41 41 41 39 35 28 23 24 27 32 35 29 37 39 41 42 42 39 35 29 33 30 31 30 32 32 30 29 30 33 36 36 38 38 38 37 36
49 50 51 52 52 51 49 48 48 47 45 44 44 43 42 43 41 43 42 40 40 35 28 27 28 27 27 29 33 35 36 36 41 41 37 34 35 33 33 34 31 32 31 31 28 31 31 35 39 39 38 38 37 37
46 48 49 51 51 51 50 49 48 47 46 44 44 42 42 42 40 38 32 40 41 40 34 25 29 28 35 33 27 37 39 40 43 41 38 38 37 35 31 28 29 30 32 34 32 37 37 37 38 37 36 36 36 35
45 47 48 48 50 51 50 49 48 46 45 44 43 42 42 41 41 35 30 39 41 40 35 28 29 37 34 37 39 42 42 43 44 41 39 38 38 38 34 30 29 31 34 35 35 36 36 37 37 36 35 36 35 34
43 45 46 47 48 49 49 49 48 46 45 43 42 41 40 40 40 38 38 42 41 38 36 29 29 35 41 37 36 42 40 42 43 41 41 38 38 38 34 33 33 33 35 34 34 35 35 35 35 35 36 35 34 34
43 44 45 46 46 48 49 48 48 47 44 42 41 39 41 39 36 37 42 42 42 36 31 32 30 32 40 37 41 42 43 35 43 39 38 39 37 35 35 34 36 35 34 34 34 33 34 34 35 35 35 36 34 34
43 44 45 46 46 47 48 48 47 45 43 42 38 36 33 36 42 42 39 35 35 34 34 29 35 34 39 38 38 39 41 38 34 37 41 37 35 37 36 33 32 33 32 32 32 33 34 35 35 34 34 35 35 36
43 43 44 44 45 46 46 48 46 44 42 38 34 35 41 43 39 37 33 31 31 31 33 34 37 35 41 37 37 39 36 37 33 35 36 33 33 36 32 30 30 31 31 31 32 33 33 34 34 34 35 35 37 36
44 44 44 45 45 46 46 47 44 40 39 38 39 40 40 37 35 32 32 33 32 31 36 36 37 39 40 41 37 37 35 35 32 37 34 30 34 32 30 29 29 30 32 33 34 35 35 34 34 34 36 36 31 30
45 46 45 45 45 47 47 44 44 40 41 39 36 33 34 34 29 29 28 32 33 36 38 39 37 39 40 40 37 37 33 33 37 33 30 31 32 29 28 29 30 32 35 35 35 35 35 32 32 33 34 35 31 26
46 46 46 45 46 46 45 45 41 40 38 33 32 29 30 30 31 32 32 35 37 39 38 39 38 37 37 37 36 32 35 35 30 28 28 32 31 28 28 29 33 33 31 30 30 30 30 30 30 31 30 34 34 27
46 46 46 46 46 45 44 42 41 39 37 33 33 27 30 33 35 34 35 36 37 39 38 37 36 37 36 34 33 33 30 28 28 27 33 35 30 29 28 29 32 28 26 25 25 27 28 28 28 27 26 25 25 31
46 45 43 44 43 44 43 41 39 37 34 33 31 29 30 31 33 34 34 34 38 38 37 37 34 33 32 32 31 29 27 26 31 38 36 31 28 27 25 25 26 26 25 22 23 24 24 26 27 27 27 27 26 23
40 39 43 43 43 42 39 37 35 32 32 28 27 29 30 31 32 34 35 36 37 37 34 33 31 29 33 29 28 30 30 37 39 35 34 31 30 27 24 23 25 25 19 21 22 22 23 24 26 25 24 24 27 27
39 42 43 41 39 38 35 35 33 29 24 27 25 28 27 30 33 34 34 35 35 34 34 32 34 31 28 26 29 36 37 36 33 33 32 30 30 29 28 24 25 22 18 20 22 23 23 24 20 20 20 21 24 28
41 41 41 40 37 35 32 31 33 25 25 28 27 28 29 29 30 30 30 34 34 35 34 33 32 29 29 34 36 37 36 34 30 29 29 28 28 27 27 28 27 24 21 21 18 15 16 17 18 18 17 20 21 23
42 41 39 37 34 32 28 28 31 28 25 27 28 28 29 28 27 28 29 31 33 33 32 29 28 30 30 31 32 32 31 30 29 28 27 26 25 29 28 26 23 23 16 17 19 19 17 16 16 15 18 21 21 20
39 38 37 34 32 31 29 27 26 27 27 26 27 27 27 28 28 29 29 30 30 29 27 27 28 30 30 30 28 29 29 28 29 29 28 28 25 26 26 25 25 19 14 12 11 12 17 14 15 16 21 20 20 20
36 36 33 30 28 26 25 25 26 27 26 26 26 27 25 24 25 26 26 27 28 29 27 26 27 26 26 27 27 28 29 29 28 25 26 27 24 24 24 25 23 23 21 23 19 18 17 16 16 17 19 19 20 20
33 28 26 24 21 20 19 23 22 22 22 23 24 23 23 23 23 25 23 26 26 27 29 27 27 25 24 25 24 25 26 27 27 25 23 23 21 26 25 25 24 25 23 21 18 18 20 18 17 18 18 19 18 18
28 25 23 20 19 16 16 16 18 19 20 19 19 18 19 21 22 22 21 24 27 26 24 26 23 22 22 22 22 25 25 25 26 25 22 20 20 16 17 18 17 20 21 18 19 19 18 17 17 18 18 17 17 17
26 21 24 19 18 16 15 15 14 15 15 15 15 16 16 17 18 19 20 25 25 25 25 23 20 21 23 25 23 23 24 24 25 24 23 21 19 15 17 16 14 15 17 21 17 16 17 18 17 17 17 17 16 17
18 20 21 20 19 18 16 15 13 14 13 13 14 13 15 16 15 17 21 25 26 26 26 25 24 22 20 21 22 23 23 22 23 23 24 21 19 20 23 20 19 19 17 17 20 18 17 18 17 17 16 16 18 18
21 20 20 17 16 14 12 11 11 13 12 11 14 13 14 10 14 18 21 21 23 26 24 24 24 23 24 24 23 23 20 22 24 22 18 20 21 20 24 23 19 20 18 19 19 18 18 18 17 17 17 17 17 16
22 19 18 18 14 14 13 12 12 12 14 13 14 11 12 15 19 24 22 21 23 21 21 20 20 21 22 23 24 22 20 18 17 17 19 18 18 20 20 21 20 18 20 20 19 19 18 17 17 17 17 16 16 17
22 19 18 7 10 14 14 16 16 15 14 15 17 16 17 17 22 21 20 19 16 18 20 21 24 19 18 17 17 18 20 18 18 16 16 19 22 21 19 19 19 19 20 20 20 21 18 17 17 17 17 17 18 19
20 21 16 10 9 15 20 16 17 12 12 15 14 15 15 17 20 19 17 15 16 18 21 23 24 20 19 20 20 19 17 18 19 21 21 20 22 21 17 16 15 15 15 15 15 16 17 18 17 15 15 15 15 15
17 18 16 15 16 19 13 7 8 8 10 12 11 13 16 17 16 17 16 18 19 20 21 19 19 18 17 17 18 17 18 19 17 18 20 19 17 17 17 16 17 16 15 14 14 14 14 14 13 12 12 11 11 14
16 16 16 10 16 11 7 10 12 12 12 10 14 10 10 11 13 19 20 17 17 16 19 20 18 19 18 18 19 20 18 18 16 15 13 17 17 16 15 14 13 13 13 13 13 13 11 10 11 11 12 11 10 10
11 10 8 10 12 14 10 10 11 11 9 10 12 12 12 12 13 19 11 9 14 14 14 14 14 13 11 9 12 14 15 12 11 15 15 15 15 16 15 15 15 15 13 13 13 13 12 11 11 11 11 11 11 11

GFSWCAN_sfc_dewp_066.txt.gz
Dewpoint
55 55 54 54 53 52 50 48 47 46 45 44 44 43 43 43 43 41 39 41 35 30 28 27 27 26 29 35 37 39 39 37 37 34 34 29 26 27 25 25 26 25 26 26 27 26 20 32 31 29 36 36 37 37
53 54 54 54 53 53 51 49 49 48 47 45 44 43 43 43 43 44 39 39 39 36 30 32 31 31 31 31 35 38 39 38 38 34 33 30 27 29 26 24 28 25 26 25 25 26 30 31 34 35 37 38 37 37
51 52 53 54 53 53 52 51 50 48 47 45 45 44 43 44 43 43 41 42 40 36 31 30 28 29 29 29 31 32 39 42 40 42 39 34 29 32 27 25 29 29 29 27 27 29 29 28 33 37 38 37 37 37
49 50 51 51 53 53 52 52 50 49 47 46 46 43 43 44 43 43 41 42 40 37 29 24 25 25 28 30 30 33 33 39 38 41 39 35 31 32 29 31 31 31 30 29 29 29 31 36 33 36 38 38 37 37
44 46 48 49 50 51 52 52 51 49 48 47 46 44 44 43 43 43 43 41 41 35 27 27 30 29 28 27 29 33 33 34 35 38 39 35 35 33 32 34 31 33 32 30 29 33 32 38 39 38 38 37 37 37
43 44 45 45 47 49 50 50 51 50 49 48 46 45 43 42 42 40 34 40 40 40 34 26 31 25 27 32 27 32 32 34 36 40 39 38 38 35 30 29 29 29 32 32 33 37 37 37 37 37 36 36 36 36
41 42 43 44 45 46 48 49 50 50 49 48 46 45 42 42 42 36 32 39 41 40 33 26 28 34 39 34 29 32 36 36 37 38 40 38 39 38 34 30 30 31 32 34 36 36 36 37 37 36 36 36 36 35
41 41 41 42 43 44 46 47 49 49 49 47 46 43 41 42 41 37 38 41 41 36 36 26 25 33 39 35 33 36 35 38 38 40 40 38 39 39 34 34 33 32 34 35 34 35 35 35 35 35 36 36 35 34
41 41 41 41 42 43 43 44 48 48 48 47 44 41 40 39 37 38 42 42 42 37 31 29 27 29 40 37 38 36 39 34 40 38 38 39 36 34 35 35 34 35 34 34 35 34 34 34 34 35 35 35 35 35
41 41 40 41 41 43 43 44 46 47 47 44 40 37 34 38 43 41 39 35 34 35 34 27 31 30 38 37 35 35 38 35 32 36 40 36 35 36 37 33 32 33 33 34 33 31 32 32 34 34 34 35 35 35
41 41 41 41 43 44 44 44 45 46 42 39 35 33 41 42 38 36 32 30 31 29 32 30 31 33 41 34 34 39 34 35 32 34 34 33 32 35 31 30 30 31 31 32 32 33 33 34 34 34 34 35 36 37
41 41 42 43 44 45 44 45 45 41 39 38 38 41 40 36 34 31 30 31 30 28 34 34 36 37 40 41 37 37 33 33 31 37 34 28 32 32 30 29 29 30 32 33 35 35 35 34 33 33 35 36 35 30
42 42 43 44 45 46 45 45 43 41 39 39 36 33 33 33 27 27 24 30 31 35 37 37 36 39 40 40 36 35 31 31 36 31 29 32 32 30 29 30 32 35 36 35 35 35 35 34 33 33 32 33 35 32
43 44 45 45 46 46 46 45 42 40 37 32 30 27 28 29 30 30 30 33 36 37 37 38 36 36 38 36 36 31 34 34 29 27 26 31 31 29 29 31 33 33 34 34 34 31 31 30 29 32 31 30 31 33
44 45 45 45 46 46 44 43 41 39 36 31 32 26 28 30 34 33 34 34 36 38 38 37 35 37 34 33 33 31 30 27 28 26 29 30 29 29 29 31 33 28 27 25 25 26 27 28 28 28 27 27 26 25
45 45 44 45 46 46 43 40 38 38 33 32 32 29 30 30 30 32 32 33 37 38 37 36 33 32 32 32 30 28 27 23 26 30 29 29 29 28 28 29 28 26 24 22 23 23 24 26 26 27 27 27 28 26
46 41 44 46 45 42 39 36 35 32 31 29 27 30 31 30 30 33 35 35 36 36 32 32 30 29 32 29 27 30 25 29 30 28 28 28 29 26 25 25 26 25 20 21 22 23 24 24 25 24 21 21 22 27
40 44 44 42 39 37 35 34 32 28 23 25 25 28 28 29 31 34 35 34 33 32 32 32 33 29 28 26 25 28 28 27 27 28 28 29 28 27 24 24 25 21 19 21 21 21 21 20 19 19 18 19 20 22
41 40 41 40 38 35 31 31 32 23 23 28 28 29 28 28 30 30 32 35 34 34 32 32 31 29 29 30 29 31 26 27 27 28 28 29 28 28 26 25 24 22 20 20 19 15 16 17 16 18 17 19 21 22
42 41 39 37 35 32 28 28 31 26 21 26 29 27 27 27 27 27 28 31 32 32 31 29 29 30 31 29 27 26 26 28 28 26 26 26 26 22 24 23 24 22 18 18 18 19 17 17 16 16 16 21 21 20
39 37 36 35 33 31 28 27 26 27 27 26 27 27 25 27 26 27 28 29 26 23 23 26 29 30 29 27 27 28 28 28 27 27 27 23 25 23 23 21 19 19 15 13 13 13 16 16 15 17 12 19 20 20
36 36 32 31 28 26 24 25 26 26 26 25 24 25 23 22 23 25 25 25 24 27 28 25 25 25 24 24 23 24 25 26 26 25 26 27 23 21 21 22 21 17 16 14 15 15 17 17 17 17 18 18 20 20
32 30 28 27 19 18 16 23 18 18 21 21 17 17 14 14 15 20 17 22 25 28 28 25 22 20 20 21 22 22 23 22 23 25 25 24 23 22 21 22 22 18 16 17 17 17 15 19 18 18 17 18 18 18
28 26 23 19 18 12 16 12 18 16 15 15 12 12 14 17 19 18 16 21 25 27 25 23 21 18 18 15 17 19 21 22 22 20 19 18 16 18 22 22 21 20 19 18 16 15 15 16 18 16 16 14 14 13
23 21 21 15 15 11 8 8 7 11 8 10 8 9 11 13 15 18 20 25 26 26 26 25 23 22 19 16 19 20 19 20 19 19 19 19 17 14 14 15 15 16 18 13 15 15 14 13 14 14 14 14 12 10
16 20 17 15 14 11 11 4 4 5 6 3 7 8 9 11 9 10 18 22 23 24 24 23 23 22 22 22 20 21 22 21 21 20 22 21 20 18 15 14 12 15 17 17 15 15 14 14 14 11 12 14 19 14
18 19 20 17 16 13 11 11 11 10 1 1 5 5 5 2 4 14 19 19 19 22 22 23 23 23 23 23 23 22 20 20 21 20 18 18 19 19 19 18 16 17 17 16 16 15 14 14 13 12 12 9 9 10
20 17 10 13 12 12 7 8 4 2 7 13 12 1 3 8 12 18 17 16 16 15 16 18 19 20 21 22 22 21 19 17 15 15 18 18 18 17 16 16 16 20 14 14 14 13 13 13 12 10 8 9 8 7
16 17 15 3 5 7 7 8 8 14 14 13 9 9 10 16 14 14 15 13 11 11 11 14 18 18 16 13 13 15 16 15 14 13 12 16 14 17 16 15 15 13 12 12 19 17 11 9 9 10 9 11 12 11
13 17 10 3 6 8 10 11 10 7 11 13 13 11 12 12 14 14 11 8 8 11 15 17 18 15 16 13 13 12 15 17 18 19 18 17 17 12 8 9 9 7 7 8 8 7 18 13 13 9 8 6 5 6
16 14 9 9 7 9 4 4 4 8 6 3 4 6 9 9 11 12 14 15 17 17 11 16 18 11 13 11 12 10 14 14 16 16 17 10 8 7 7 7 7 8 7 5 5 5 4 4 3 2 3 3 3 12
12 6 7 6 7 4 1 1 1 1 2 -0 2 1 1 3 4 12 14 12 9 13 19 18 10 15 11 10 8 9 18 9 8 7 8 9 9 7 7 6 4 5 4 4 3 3 2 2 2 3 5 5 4 4
3 2 0 1 2 3 3 2 1 1 -1 -2 3 5 3 6 8 14 7 3 9 8 4 3 1 2 1 1 2 4 10 2 6 15 16 17 18 13 6 4 6 6 5 5 4 4 3 3 5 5 6 6 5 6

GFSWCAN_sfc_dewp_069.txt.gz
Dewpoint
55 55 55 54 53 53 52 52 50 49 47 45 45 44 43 43 43 40 37 39 34 30 30 29 27 27 27 28 30 36 37 40 38 34 33 32 27 28 25 26 27 26 26 27 26 26 21 33 31 31 35 36 36 37
54 54 54 54 54 53 53 52 51 50 49 47 46 45 44 43 44 43 40 40 39 36 32 33 32 31 31 31 31 34 36 36 40 35 33 31 27 27 26 24 27 24 27 24 25 25 28 32 33 36 37 38 37 37
52 53 53 54 53 53 53 53 51 51 50 48 46 45 45 43 44 43 39 41 40 36 32 31 30 30 32 31 32 29 32 34 38 37 39 36 29 30 26 27 28 29 29 27 26 28 28 30 34 38 38 37 37 38
50 50 51 51 51 52 52 52 52 52 51 49 47 46 45 44 44 43 40 42 40 37 31 26 27 26 28 30 31 31 28 29 33 34 33 37 33 32 29 29 27 30 29 28 28 29 30 31 32 36 37 37 37 36
46 47 47 47 48 49 50 50 51 50 51 50 48 48 46 44 42 42 41 41 41 36 27 27 31 30 30 29 28 31 31 31 33 30 34 36 35 32 32 32 31 33 31 29 29 31 31 36 38 38 38 38 37 38
43 43 43 44 44 45 45 47 49 50 50 50 49 48 46 43 41 39 34 37 41 41 34 26 31 29 27 29 29 28 32 33 34 31 32 38 39 35 30 30 31 31 32 33 32 37 37 38 37 37 36 36 36 36
41 41 40 40 41 42 43 44 46 47 49 49 49 48 46 43 42 35 32 38 40 38 32 26 23 30 37 34 31 33 34 36 34 33 32 33 36 39 35 30 30 30 32 35 37 36 35 37 36 36 36 36 36 35
39 39 39 40 40 40 41 42 43 44 46 49 49 47 44 42 40 39 39 42 40 35 33 27 22 27 38 34 28 33 34 35 34 34 36 37 39 38 35 36 33 31 32 35 35 35 35 35 35 35 36 36 35 34
39 39 39 40 40 40 40 41 43 43 45 48 48 44 41 39 35 35 42 43 40 36 29 28 18 18 38 37 36 33 35 30 35 33 34 38 36 33 35 35 35 34 34 34 35 34 34 34 34 34 34 34 33 34
40 40 40 40 40 41 41 42 43 44 45 46 41 36 34 37 43 40 39 35 35 35 34 28 28 25 34 37 35 34 34 34 30 32 39 36 34 36 36 35 33 34 35 35 33 31 31 30 32 32 33 35 34 34
41 41 40 40 41 42 43 43 43 44 41 38 36 34 41 42 38 36 32 30 31 27 30 30 27 26 36 34 34 35 33 34 31 34 33 32 32 35 31 30 31 31 31 32 33 33 34 34 34 33 33 34 36 36
41 40 41 41 42 43 44 45 44 40 38 37 38 41 40 36 33 30 29 30 28 24 31 30 32 33 36 40 36 37 32 33 30 37 34 30 32 30 29 29 30 31 33 34 35 35 35 34 33 33 34 35 35 35
40 40 41 41 42 43 44 45 44 42 40 39 36 32 33 32 26 25 15 27 29 33 35 36 35 38 39 40 36 35 31 31 37 32 28 30 32 30 29 31 33 34 36 35 35 35 34 33 33 33 32 32 33 34
41 41 42 43 44 44 45 45 44 40 37 31 30 26 28 26 27 27 28 32 35 36 37 37 35 34 37 36 36 29 34 34 28 27 26 30 31 29 29 32 34 34 34 34 34 34 34 33 32 32 29 27 26 26
43 44 44 44 45 45 46 44 41 39 35 29 30 21 23 27 32 33 33 33 35 37 37 36 34 36 33 32 33 31 28 26 28 27 29 30 29 29 30 32 33 33 33 29 28 27 27 28 28 28 28 28 27 25
45 45 44 45 45 45 45 41 38 37 32 32 31 28 28 26 27 32 32 32 37 37 37 36 32 32 32 32 27 26 25 24 25 30 30 28 28 28 29 32 29 26 23 23 23 23 24 25 26 26 25 21 24 28
46 42 45 45 46 44 40 35 35 32 30 29 23 30 28 27 28 30 35 35 36 35 32 32 30 28 32 28 26 30 28 27 32 29 26 27 29 28 28 28 27 23 21 22 22 22 23 23 24 20 16 18 20 25
41 44 45 45 40 38 35 33 31 27 22 23 24 24 29 29 29 32 33 35 33 32 32 32 32 26 28 26 26 29 30 30 24 25 26 27 26 25 25 25 25 22 20 20 21 21 20 18 18 18 17 18 19 20
43 44 45 41 38 34 31 30 31 21 19 24 27 27 26 28 30 29 31 34 34 34 32 32 30 21 26 32 31 32 29 26 27 27 27 28 27 25 24 23 23 20 20 19 18 15 16 16 15 17 16 19 20 21
42 41 40 39 36 31 27 24 29 19 16 23 24 24 24 26 27 25 25 29 30 31 30 29 27 28 29 32 30 29 28 27 27 26 26 26 26 19 22 23 23 20 18 18 17 19 16 16 16 16 16 18 21 19
38 37 36 34 31 29 26 27 26 27 27 24 25 27 25 27 25 25 26 28 25 22 21 26 29 29 27 28 29 28 28 28 27 27 26 23 25 23 20 20 17 20 17 14 13 13 18 14 15 16 8 16 20 20
36 36 32 30 27 25 22 24 25 27 26 25 25 25 23 22 23 24 24 23 24 21 25 26 25 25 23 23 23 23 25 25 25 26 28 27 23 20 20 21 19 18 17 15 15 13 13 16 17 17 17 17 19 19
35 32 29 27 21 19 18 22 18 22 20 21 15 19 10 7 9 12 16 14 19 21 22 23 22 20 20 20 21 21 21 21 22 23 24 24 23 21 19 20 21 19 16 17 17 15 12 19 18 17 16 17 16 16
31 27 24 21 19 16 16 11 17 13 10 13 6 7 6 6 8 7 9 14 21 23 22 22 20 20 18 15 14 17 19 20 20 17 17 18 16 18 22 22 23 21 21 18 16 15 13 15 20 15 13 13 12 12
26 22 22 15 15 13 11 8 5 7 2 1 3 3 4 6 6 6 11 19 23 23 24 24 23 23 21 19 20 19 17 19 17 16 17 17 15 13 13 15 18 18 19 14 15 15 13 11 13 13 13 13 12 9
17 20 17 15 14 12 11 7 3 3 2 -1 0 1 -0 3 3 6 12 16 17 20 21 20 21 21 22 22 21 21 23 21 20 18 20 20 20 18 16 14 13 15 17 18 14 14 13 13 13 11 12 13 19 15
17 18 19 17 16 13 11 10 10 7 -2 -1 -1 1 -2 -1 -0 10 16 15 15 16 18 19 20 20 19 21 23 23 21 21 22 21 18 16 17 20 20 18 17 17 17 16 16 14 14 13 13 13 12 7 8 9
19 16 11 11 10 9 6 5 2 2 4 10 8 0 1 4 9 15 15 13 12 10 11 12 16 19 19 19 17 18 16 14 13 14 16 18 19 19 18 20 20 22 17 16 15 14 14 13 12 11 9 9 7 4
14 15 14 5 4 5 6 7 7 10 14 11 6 5 7 13 11 10 12 10 4 7 8 11 15 11 14 9 10 11 13 14 14 13 13 15 15 19 16 18 17 16 12 13 20 17 10 8 8 9 8 8 8 4
12 13 9 1 6 7 8 8 6 3 8 11 12 9 10 10 12 9 7 4 6 10 14 14 12 9 15 9 12 9 11 16 17 17 16 16 17 13 7 9 12 12 11 12 10 9 20 13 13 11 12 6 2 2
12 6 3 2 4 2 1 0 -1 7 1 -1 -2 4 7 6 9 11 15 16 17 16 5 12 15 12 12 9 6 6 13 12 15 15 16 10 8 7 6 4 5 7 7 7 6 5 4 2 1 0 0 -2 1 8
9 2 4 6 5 1 -3 -4 -6 -4 -6 -5 -0 -8 -2 0 3 10 7 5 4 10 17 17 11 15 8 9 5 7 19 8 5 7 7 7 8 7 6 5 2 4 5 3 1 1 -1 -2 -2 -2 -0 0 1 1
-5 -6 -5 -4 1 1 -0 -2 -3 -2 -6 -7 -2 -4 -4 2 6 11 5 -1 4 3 2 0 -3 -3 -2 -1 -0 1 9 -1 4 15 16 17 18 13 3 2 3 3 3 1 -0 0 -1 -3 -3 -3 -2 2 3 3

GFSWCAN_sfc_dewp_072.txt.gz
Dewpoint
55 54 54 54 54 54 53 52 51 50 49 47 46 45 44 43 42 40 36 38 34 29 30 30 28 25 26 26 25 27 24 39 39 35 33 33 29 27 25 26 27 28 29 28 29 27 21 31 31 30 33 36 37 35
54 54 54 54 54 53 53 53 52 51 50 49 48 46 45 44 44 43 38 40 39 36 33 33 34 33 30 30 29 30 30 31 36 36 35 32 28 27 25 24 27 24 25 26 27 26 27 31 30 32 37 37 37 37
54 54 54 54 53 53 53 53 53 51 51 50 49 47 46 45 44 43 41 41 40 36 35 33 31 34 35 34 33 28 29 30 33 34 32 36 28 29 25 26 27 27 28 27 26 27 27 29 33 36 38 37 37 38
53 53 53 53 52 52 52 52 51 52 51 51 50 49 47 46 44 44 42 41 40 38 30 29 29 26 27 31 33 32 29 30 33 34 30 30 35 32 28 27 27 28 29 27 27 28 30 30 32 37 38 37 36 36
51 51 51 51 50 50 50 49 50 50 50 50 50 50 49 48 45 43 43 40 40 37 29 30 32 31 31 30 30 31 31 30 31 30 29 28 35 34 32 32 30 32 30 28 27 29 29 30 36 35 37 37 37 37
48 48 47 46 46 46 46 46 46 47 48 49 50 50 49 48 43 39 32 35 39 41 34 24 29 30 29 29 29 29 31 31 33 31 30 33 33 35 32 29 31 32 33 31 30 36 36 38 37 38 37 37 36 36
45 44 44 43 43 43 44 43 43 44 44 45 48 49 48 45 42 35 31 35 40 39 31 24 21 27 33 34 32 33 31 33 32 31 30 33 32 35 35 29 30 31 31 32 35 37 35 36 36 36 36 36 37 35
42 42 41 41 41 41 41 41 41 41 42 44 47 49 48 45 43 39 40 42 39 36 33 23 22 24 36 33 27 33 32 35 34 31 32 32 35 34 33 36 33 31 31 34 36 35 34 36 35 35 35 35 34 35
41 41 41 40 40 40 39 39 40 42 44 47 47 45 42 40 37 35 41 43 40 35 27 26 19 16 36 36 35 32 32 28 31 28 30 32 32 32 35 35 36 35 33 34 34 34 34 34 34 34 33 33 32 33
41 41 41 40 40 39 40 41 41 43 45 42 39 36 34 37 41 40 38 36 34 34 34 27 28 24 31 32 34 30 33 31 26 28 36 32 32 35 37 35 35 35 35 34 33 31 31 30 33 32 32 33 33 33
42 41 41 40 40 41 42 43 43 43 41 38 36 35 40 42 38 35 30 29 30 25 30 29 28 24 32 29 33 35 32 32 29 30 33 32 32 34 31 31 31 32 33 33 34 34 34 34 33 33 33 33 34 35
41 41 41 40 41 42 42 43 44 39 36 37 38 41 39 36 33 29 27 29 26 22 29 29 31 31 33 37 34 35 32 32 30 34 32 29 32 30 29 28 30 32 34 35 35 35 34 34 34 34 34 35 35 35
41 40 40 41 41 41 42 44 42 41 40 38 36 32 32 32 25 23 12 20 22 30 34 33 33 37 37 39 36 34 31 30 36 32 28 29 30 29 28 31 33 35 35 35 35 35 34 33 33 33 32 32 32 33
40 40 41 42 42 42 43 44 43 40 36 27 29 24 26 23 23 22 21 28 34 35 35 35 35 34 35 34 35 30 34 34 28 26 24 29 29 29 30 33 34 34 35 35 35 35 34 34 34 34 32 29 26 24
41 41 42 43 43 44 44 45 41 38 34 25 29 20 23 24 25 33 33 33 35 37 36 35 35 35 32 32 33 31 28 23 27 26 27 29 30 29 30 33 34 34 35 34 32 31 31 31 30 29 28 27 27 27
42 42 42 43 44 44 45 43 39 37 32 31 28 25 27 28 16 30 32 32 36 36 36 35 32 31 31 31 27 27 27 24 28 31 32 26 28 28 31 33 32 33 31 25 25 24 25 25 26 26 21 19 23 28
45 43 44 45 45 45 41 36 35 32 30 28 23 27 23 23 20 27 32 34 36 34 32 32 29 27 31 24 23 27 26 31 32 32 27 27 29 29 29 31 28 24 22 22 22 22 22 22 24 17 13 17 21 24
43 43 45 46 44 39 35 34 31 29 23 17 18 19 27 28 27 30 31 35 33 32 32 31 31 25 24 21 22 29 32 32 29 27 27 27 26 26 28 28 26 22 21 21 22 22 21 19 18 16 17 18 19 20
42 44 46 43 39 35 31 30 31 24 17 16 21 22 24 26 28 28 29 32 34 34 31 31 29 27 27 31 32 32 31 30 29 28 28 27 26 25 25 23 23 20 20 19 17 15 16 16 14 16 15 18 18 20
45 44 42 40 36 31 27 26 30 22 16 19 19 18 22 25 26 26 27 30 29 30 29 28 27 28 30 31 29 29 28 29 28 27 27 27 26 18 22 22 23 20 18 17 16 19 16 15 16 16 15 16 20 19
38 38 37 35 32 31 27 25 25 21 21 17 17 20 20 22 26 25 25 29 27 25 24 24 27 29 28 30 29 28 28 28 28 28 28 25 25 22 20 18 16 20 18 16 15 14 19 15 13 15 8 15 17 20
36 38 33 33 28 26 24 24 19 25 22 22 25 25 23 22 22 24 24 23 23 21 21 24 22 23 23 23 23 23 25 25 25 26 28 28 25 20 20 20 18 19 19 18 16 15 14 14 16 16 16 15 18 18
36 34 30 29 24 22 18 21 16 23 18 20 19 20 17 13 14 17 18 16 18 20 21 20 18 16 19 21 21 21 21 21 22 23 23 23 23 21 18 19 21 18 17 19 17 15 13 16 18 17 15 16 15 15
33 28 24 21 17 12 16 13 18 17 16 15 10 13 9 8 8 6 8 10 17 17 19 17 15 17 16 15 17 18 19 21 20 17 16 16 16 20 22 22 22 21 21 17 16 16 15 15 20 15 13 12 11 11
26 22 22 12 13 11 13 14 13 13 11 7 7 5 5 4 3 2 8 14 14 15 18 21 22 22 20 20 20 20 20 21 19 17 17 17 15 12 14 14 19 21 19 14 16 15 13 11 12 13 13 12 12 10
17 15 13 12 15 16 15 12 10 9 8 4 3 1 -1 0 0 4 8 10 11 14 15 18 18 19 20 21 20 20 22 22 21 20 21 18 18 17 13 13 13 18 17 20 16 16 14 12 11 11 12 13 19 16
13 14 18 17 17 14 12 11 11 10 3 3 3 1 -2 -1 -2 9 12 11 12 12 16 17 19 18 17 17 19 20 19 20 21 21 18 17 18 20 20 17 17 20 17 17 16 15 14 13 12 12 12 7 8 9
18 18 14 14 12 11 9 7 5 6 7 9 9 3 2 3 8 14 14 12 9 6 7 10 15 19 18 18 15 16 15 12 12 14 16 18 19 19 18 20 21 24 19 15 15 14 15 14 12 11 9 9 7 3
15 16 16 7 6 7 7 8 9 11 14 12 8 6 6 10 10 10 13 11 0 4 8 12 14 7 11 8 7 11 12 12 13 11 11 14 15 17 15 16 15 14 14 14 22 19 10 9 9 8 7 7 6 2
14 14 9 1 6 9 10 10 8 4 8 10 11 9 9 9 11 7 7 4 6 11 14 11 9 6 11 7 12 9 8 14 17 16 13 14 16 11 5 8 9 9 8 8 8 9 21 11 12 9 11 6 4 2
14 10 8 7 9 6 4 2 -1 6 -1 -4 -5 3 6 3 8 9 9 11 11 6 5 13 13 6 9 7 3 3 11 10 12 13 14 10 7 5 4 3 2 1 3 5 4 5 4 2 1 1 1 -2 -3 4
10 4 5 5 5 -0 -5 -6 -9 -5 -8 -7 -4 -12 -3 -0 2 10 5 1 2 4 11 7 4 11 3 4 1 4 17 5 2 5 5 6 7 6 4 0 -3 0 2 2 0 0 -1 -1 -3 -3 -2 -5 -5 -5
-5 -7 -8 -5 0 0 -2 -3 -4 -3 -7 -9 -5 -6 -7 1 6 10 1 -4 0 1 1 -0 -1 -3 -3 -4 -2 -1 7 -2 4 17 19 19 19 13 1 -1 2 3 3 1 -2 -3 -4 -5 -4 -5 -6 -6 -3 -0

GFSWCAN_sfc_dewp_075.txt.gz
Dewpoint
55 54 53 53 53 53 53 52 52 50 49 47 46 46 45 44 44 40 36 37 34 32 31 31 29 26 25 25 23 25 23 31 35 34 33 33 29 27 25 27 27 27 29 28 28 26 21 28 32 28 30 35 36 34
54 54 53 53 53 53 53 53 52 51 50 49 49 47 46 45 44 44 36 38 39 36 33 32 33 32 29 29 31 30 26 28 32 29 29 29 32 27 25 23 27 25 28 27 27 26 27 29 33 33 36 36 37 37
54 54 53 53 53 53 53 53 52 51 50 50 50 48 47 46 45 44 38 40 40 37 33 34 33 34 36 36 36 30 28 29 32 34 31 30 29 31 25 24 25 28 28 26 26 27 28 28 31 34 37 38 38 38
54 54 53 53 53 53 52 52 52 52 51 50 50 50 49 47 47 45 43 42 40 37 31 30 31 28 28 34 35 34 30 30 34 34 29 26 26 32 32 27 26 27 28 27 26 28 30 30 30 33 37 38 37 36
53 53 53 53 53 52 52 51 50 50 51 51 51 51 50 49 48 46 43 42 41 35 30 30 32 31 30 30 30 33 32 30 28 29 28 25 31 32 35 33 29 30 28 27 26 28 28 28 33 33 37 37 36 36
52 52 52 51 51 50 50 49 49 48 48 47 48 49 50 49 45 40 36 34 38 41 34 25 28 28 29 29 30 30 31 31 31 31 29 29 33 30 27 32 31 32 32 30 28 31 33 36 36 36 37 37 37 37
51 50 50 49 48 47 46 46 45 44 44 44 45 48 49 47 42 38 35 34 41 40 32 24 22 26 28 33 32 30 31 31 31 31 29 28 28 33 31 31 32 31 32 33 34 37 35 36 36 37 37 37 37 35
47 46 46 46 45 44 44 43 43 42 42 41 43 46 49 45 43 39 41 41 40 37 32 24 22 22 30 34 29 32 31 33 33 31 31 29 29 30 26 28 27 34 31 34 35 35 35 37 36 35 35 35 33 34
44 44 44 43 42 42 42 42 42 43 45 47 47 45 42 40 37 37 40 42 41 35 26 26 19 13 31 34 35 32 32 28 31 29 27 28 26 29 30 30 34 36 32 32 34 34 35 35 34 34 33 32 32 32
43 43 43 42 41 41 42 42 43 45 45 43 39 36 34 38 40 40 38 36 35 35 33 26 29 25 29 31 29 29 32 28 25 26 29 26 25 29 29 36 33 34 34 34 32 30 31 31 33 32 32 33 33 33
43 43 42 42 41 42 43 43 44 43 41 36 35 33 40 42 39 35 30 29 29 25 27 29 29 26 31 26 27 34 31 32 27 28 28 29 29 33 32 31 31 32 34 33 33 33 34 34 33 32 33 34 35 33
42 42 42 42 42 43 44 44 43 37 34 36 37 40 39 36 33 28 24 28 26 21 26 28 30 32 32 35 32 34 30 31 29 32 30 29 33 31 30 29 31 33 34 34 34 34 34 34 34 34 35 35 34 34
42 42 42 42 43 43 44 45 42 42 40 38 35 33 31 30 24 21 17 17 23 24 30 33 32 35 35 34 33 33 31 30 35 31 29 31 31 29 29 32 33 35 35 36 35 34 34 33 33 33 32 30 29 30
42 42 42 42 42 43 44 45 43 40 35 31 28 24 24 21 23 20 18 18 31 35 35 34 33 33 34 33 34 31 34 34 26 26 25 31 29 28 29 34 35 35 35 35 35 35 35 35 34 34 32 30 26 25
41 41 42 42 43 44 45 44 41 38 34 26 28 18 20 23 17 28 23 31 33 33 33 32 34 35 32 31 33 31 27 22 26 25 28 32 30 29 30 34 33 34 35 34 32 32 32 32 30 30 28 28 29 28
41 41 41 43 44 44 45 42 39 37 33 29 28 24 24 22 16 27 30 30 34 35 35 34 32 31 29 31 27 27 26 22 29 31 32 31 28 29 31 34 34 34 33 30 28 27 26 26 27 27 18 18 24 27
43 42 44 44 45 45 42 37 36 33 31 28 27 29 26 25 18 27 32 32 35 32 30 31 27 28 31 21 18 22 20 29 33 32 30 29 29 29 30 31 33 30 24 22 22 22 21 22 24 19 13 16 21 22
42 43 45 45 44 39 36 34 32 30 25 21 17 17 27 27 25 30 31 33 31 30 32 30 31 28 22 20 21 26 31 32 31 28 28 28 28 27 29 30 28 23 22 22 21 21 20 20 18 15 17 18 18 19
42 43 45 45 39 35 31 30 32 24 17 15 19 20 23 25 27 26 30 31 34 34 31 29 26 26 27 29 32 32 32 29 30 29 28 28 28 26 27 24 24 21 21 19 19 16 17 16 13 15 14 17 17 19
44 44 45 42 37 32 28 26 30 18 15 19 17 17 20 21 23 23 24 28 30 30 28 27 26 27 28 30 29 29 27 28 28 28 28 28 27 20 22 23 24 21 19 17 16 18 15 14 15 15 15 15 18 18
37 39 38 35 32 30 25 23 25 22 22 15 12 16 15 14 16 25 26 29 27 25 26 26 26 27 26 30 33 31 28 28 27 27 28 28 27 24 21 19 17 19 18 17 16 16 20 16 13 14 9 17 18 18
37 37 33 34 28 27 22 23 18 23 20 20 23 17 18 21 22 24 24 19 23 23 24 23 21 22 23 24 24 24 25 25 25 26 28 28 27 23 23 21 18 20 20 20 18 18 17 15 16 15 15 14 17 16
36 34 31 30 25 23 20 23 17 20 18 19 20 20 19 15 14 16 16 16 20 22 21 21 18 15 19 18 20 20 21 21 21 21 21 23 23 23 21 21 22 19 18 20 18 18 16 18 17 17 15 16 14 14
33 28 25 23 23 18 18 12 20 19 18 17 15 14 10 9 10 10 13 12 16 17 18 16 14 16 14 11 14 17 18 19 20 19 19 18 20 21 22 22 22 21 22 18 16 16 15 15 19 16 14 13 11 11
28 23 24 16 14 13 9 12 15 16 16 15 13 9 8 8 9 6 11 15 10 12 13 13 15 15 13 13 19 19 20 21 21 21 21 20 18 17 18 17 19 21 19 15 17 17 15 11 13 14 13 13 12 9
19 17 12 8 8 14 15 14 13 15 14 12 11 7 5 6 4 6 10 11 9 11 13 15 15 13 16 20 19 19 20 21 21 20 22 21 21 21 20 18 18 21 18 20 15 16 15 12 11 10 11 13 20 15
11 10 17 18 17 15 14 14 13 13 10 8 8 5 3 2 2 10 13 10 12 11 10 10 15 16 15 16 18 18 17 18 20 20 18 18 20 21 22 21 21 21 18 16 15 15 15 13 12 12 11 6 7 9
17 17 14 15 15 15 14 11 10 9 9 10 10 3 4 6 9 14 14 14 12 4 4 6 11 14 15 15 13 14 12 9 8 11 14 17 19 20 19 20 21 24 22 15 14 13 14 14 13 11 9 9 7 3
15 16 17 13 12 12 11 10 10 11 14 12 7 6 7 11 13 12 14 8 -3 3 7 9 13 1 6 4 5 9 10 9 11 9 9 12 12 15 11 12 12 11 11 14 23 23 13 11 10 9 6 6 4 -1
14 16 11 6 11 12 12 10 9 6 9 11 11 12 11 11 12 6 8 3 5 8 8 6 4 2 10 5 11 9 5 11 15 16 14 14 14 8 2 6 8 7 5 5 7 8 22 13 11 6 4 2 3 3
14 9 7 7 8 6 3 2 2 7 3 -0 -2 5 7 4 8 6 2 1 1 -1 2 4 5 -2 3 5 -1 -0 9 7 5 9 11 6 5 5 6 4 2 -0 1 3 4 5 5 2 0 0 2 2 -0 3
11 6 9 9 9 5 -0 -3 -6 -3 -7 -7 -4 -12 -4 -0 2 10 0 -2 -1 2 7 1 -0 3 -2 -1 0 2 15 12 5 3 3 5 7 8 3 0 -5 -2 -0 0 -1 -1 -2 -2 -2 -2 -2 -5 -7 -7
-0 -1 -3 -0 4 3 2 -2 -1 -1 -6 -8 -6 -8 -9 -0 5 8 -0 -6 -1 -1 -2 -4 -4 -3 -2 -3 -2 0 7 0 3 17 20 21 21 16 1 -5 -2 1 3 1 -2 -3 -3 -5 -6 -7 -7 -8 -8 -6

GFSWCAN_sfc_dewp_078.txt.gz
Dewpoint
55 55 54 53 52 52 52 51 51 50 48 47 46 45 44 44 44 37 35 36 33 29 30 30 28 26 26 25 24 26 25 30 31 30 32 31 30 29 26 27 27 27 27 28 28 27 21 28 32 27 29 34 35 35
55 54 54 53 52 52 52 52 51 50 50 49 48 47 46 45 45 41 35 38 38 36 32 32 32 31 30 30 28 30 26 26 29 27 28 28 30 31 27 24 27 25 28 27 27 25 27 30 33 34 34 36 36 36
54 54 53 52 52 52 52 52 52 51 50 49 49 48 47 46 45 43 36 39 40 37 35 32 31 33 35 34 32 31 29 28 29 33 27 29 25 30 28 26 26 27 28 26 27 26 28 29 29 32 36 36 37 38
54 53 53 53 52 52 52 52 52 51 50 50 50 49 48 47 47 45 42 42 40 37 32 29 31 29 29 35 35 34 29 33 33 34 30 28 25 31 28 30 31 28 27 26 26 27 28 29 30 30 34 37 36 36
53 53 53 53 52 52 53 52 52 51 51 50 50 50 50 49 48 46 43 42 41 37 31 29 31 30 30 31 34 35 33 31 30 29 27 24 28 29 31 33 30 29 27 26 25 27 27 27 32 31 35 37 36 36
53 53 52 52 52 52 52 51 51 51 50 50 49 50 50 49 46 42 37 36 40 41 35 25 28 27 27 29 30 30 32 31 32 29 27 27 28 31 25 26 34 32 32 31 27 30 30 34 35 35 35 36 36 37
53 52 52 52 52 51 50 50 49 48 47 46 46 47 48 47 43 39 36 34 41 40 31 24 22 25 26 31 31 30 30 32 30 30 28 26 28 33 29 25 30 32 29 32 34 36 33 35 35 35 37 37 37 35
52 52 51 50 50 49 48 47 45 44 43 43 44 46 48 44 42 39 42 42 41 36 31 24 20 21 26 33 30 34 30 31 33 30 31 28 27 27 23 25 25 23 27 34 33 35 35 35 35 34 34 34 33 33
50 49 48 47 47 46 45 44 43 43 44 44 46 44 42 40 38 38 43 42 41 33 24 26 16 13 29 31 34 33 34 27 32 29 29 29 25 24 24 23 23 28 35 32 35 34 34 34 34 34 33 32 32 32
46 45 45 45 44 44 43 43 44 47 47 44 39 35 34 38 43 41 39 36 34 35 34 25 27 24 28 28 26 30 31 25 21 26 30 27 22 23 23 28 34 34 34 35 33 31 31 31 33 32 31 33 33 32
44 43 44 44 44 44 44 43 46 45 40 36 34 33 40 42 39 34 27 27 30 24 28 27 27 25 31 26 26 33 26 28 24 27 25 26 27 32 30 28 32 32 34 33 34 33 34 34 34 33 32 33 34 34
43 43 44 44 44 44 44 46 44 37 36 36 38 40 39 36 32 27 25 27 24 21 24 24 26 31 31 35 31 32 30 31 25 30 27 27 33 32 31 29 31 33 34 34 34 33 34 34 34 34 35 34 34 34
43 43 44 44 44 44 44 44 41 42 39 36 34 32 30 30 23 21 17 20 23 22 24 33 32 34 35 33 32 32 30 30 34 28 29 31 33 32 31 33 34 35 35 34 34 34 34 33 33 33 31 30 29 28
43 43 43 43 45 45 45 43 42 40 34 30 26 23 24 23 23 20 17 17 24 31 33 31 32 32 34 33 33 30 34 34 24 21 25 30 31 29 30 34 35 35 35 35 35 36 35 35 34 32 30 28 27 26
42 43 43 44 44 45 45 43 41 37 31 27 26 19 22 22 18 25 19 25 29 32 32 32 32 34 33 31 32 31 26 20 25 26 28 32 32 30 31 34 33 34 35 34 34 34 34 34 32 30 25 26 28 27
42 42 41 44 44 45 45 41 39 37 33 28 28 24 24 25 14 22 26 29 32 34 35 34 30 30 30 31 27 24 24 22 27 31 33 32 30 29 32 33 34 35 34 31 28 27 26 27 27 26 17 18 24 26
41 40 43 44 44 45 41 38 37 33 31 29 28 29 25 25 18 19 27 28 33 32 28 30 27 25 31 24 22 26 26 29 32 32 31 28 30 31 32 33 34 34 28 23 22 21 20 23 24 20 14 15 21 21
41 43 43 44 43 40 36 35 33 32 27 27 24 21 27 28 24 29 32 33 32 30 30 28 30 27 25 17 21 28 31 32 31 30 28 28 28 28 29 32 33 29 23 22 22 21 19 19 19 15 16 18 18 18
42 43 44 44 40 35 32 31 32 25 21 19 21 21 23 25 27 26 31 33 33 34 31 28 26 25 25 25 30 32 32 31 30 32 30 28 27 26 27 25 26 22 21 20 20 18 16 16 14 13 14 15 15 17
44 45 45 42 38 32 28 27 29 21 19 21 20 21 19 20 23 25 27 28 30 29 27 25 25 25 26 27 27 28 29 29 28 27 29 30 27 23 25 24 25 23 21 18 16 18 15 14 14 14 15 14 14 15
39 43 43 36 33 31 24 23 24 22 21 17 18 15 15 15 13 13 17 27 27 25 23 25 27 26 25 25 33 33 31 29 27 26 26 26 27 24 24 24 20 20 20 19 18 17 21 17 14 14 11 17 17 18
37 37 33 34 29 27 22 24 21 24 18 17 22 14 8 8 8 11 17 21 23 19 23 24 22 22 23 24 25 23 25 25 25 25 27 27 26 23 22 21 20 20 21 21 20 20 19 18 17 15 14 14 17 15
36 34 31 30 25 22 19 24 19 17 14 17 18 17 19 19 12 13 7 11 15 19 20 20 19 17 19 18 19 21 21 19 20 19 19 20 21 23 21 22 22 21 22 23 21 21 20 21 19 19 15 16 14 14
34 29 26 24 23 17 21 13 19 14 11 11 7 6 6 6 9 6 9 12 15 15 16 16 15 17 15 10 14 15 16 17 18 16 17 16 17 20 22 22 22 22 22 21 19 19 17 16 21 17 15 13 12 12
28 23 25 16 17 15 9 9 7 11 7 10 8 6 4 5 4 0 9 14 9 11 14 13 14 15 12 8 14 16 16 19 19 17 17 17 16 16 19 20 21 21 21 18 18 17 16 12 12 14 13 13 12 10
13 16 15 11 10 9 10 4 4 6 7 5 9 3 2 6 5 8 11 11 11 13 14 16 18 13 14 16 14 13 16 17 18 18 19 19 18 16 17 18 19 21 20 21 17 17 16 13 11 10 12 14 21 15
11 14 16 17 15 14 12 12 13 10 7 9 8 8 6 5 5 11 14 13 15 16 14 13 16 16 17 14 15 15 13 14 18 17 15 16 18 19 20 19 19 21 19 17 17 17 16 15 14 12 11 6 7 9
14 14 12 11 11 11 11 10 10 11 12 11 11 6 7 7 9 15 15 14 10 4 4 6 7 10 10 10 9 11 9 6 6 10 13 16 17 19 18 20 21 24 22 16 16 14 15 14 13 11 9 9 7 3
10 14 15 7 11 12 12 10 11 13 13 12 11 8 8 11 13 12 14 10 1 5 10 10 10 -2 2 1 3 6 4 5 7 7 9 12 11 15 6 8 9 9 10 11 21 22 16 13 12 11 9 7 5 -3
10 12 12 12 11 12 14 13 12 9 10 11 11 12 12 13 13 7 7 3 5 6 4 1 -2 0 3 1 6 8 3 5 10 13 11 12 11 5 -0 4 6 5 4 5 7 9 22 16 14 7 5 3 3 2
15 13 10 10 12 10 8 5 4 7 4 1 0 6 10 8 9 5 1 -3 -5 -7 -1 -1 -2 -7 -2 -1 -4 -3 8 3 -1 1 4 10 11 7 7 7 5 -0 -0 3 4 5 8 9 2 -0 1 1 3 4
11 6 9 7 8 4 2 0 1 4 2 4 4 -4 0 2 4 7 -0 -6 -3 0 6 -3 -2 2 -3 -5 -4 -1 11 8 5 3 -0 3 6 7 5 -0 -4 -4 -2 -1 -1 -1 -2 -1 -3 -2 -2 -5 -7 -7
3 4 4 8 7 6 4 1 3 2 -2 -4 -4 -8 -10 -2 3 6 -2 -8 -2 -1 -2 -4 -4 -3 -2 -3 -3 -1 5 -0 2 16 19 20 21 19 11 -3 -4 -1 1 1 -2 -2 -3 -5 -6 -7 -8 -8 -9 -9

GFSWCAN_sfc_dewp_081.txt.gz
Dewpoint
56 56 55 54 53 52 51 51 50 49 48 46 46 45 45 44 42 37 34 35 32 28 28 29 29 26 25 25 24 26 24 27 27 26 23 26 27 28 28 27 28 28 27 27 29 26 22 29 30 26 28 33 36 36
56 55 54 53 52 51 51 51 50 49 49 48 47 46 45 45 43 40 34 37 37 32 29 32 32 30 29 29 30 32 26 25 26 21 22 20 24 28 29 26 30 28 27 27 27 25 28 30 30 32 34 34 36 37
55 54 54 53 52 51 51 51 51 50 49 49 48 47 46 46 45 40 35 37 39 37 33 30 28 31 35 33 33 31 29 29 28 31 26 25 21 26 25 28 30 32 28 27 28 27 29 28 29 31 33 35 37 38
54 54 53 53 52 51 51 51 51 50 50 50 49 48 48 47 46 42 39 39 39 38 31 28 31 30 31 33 33 33 30 33 33 34 29 25 25 29 25 27 26 29 29 27 26 27 28 29 29 29 30 35 37 37
54 53 53 52 51 51 51 51 51 51 49 49 50 50 49 49 47 46 44 42 41 38 31 30 30 29 29 31 33 33 32 31 32 29 28 24 26 24 25 27 26 30 28 26 26 27 27 27 28 31 31 36 37 36
53 53 52 52 51 52 51 51 51 51 49 49 49 50 50 50 47 43 37 35 42 39 33 25 28 26 26 29 29 31 34 33 33 30 28 27 27 24 21 24 27 31 30 29 29 30 29 31 36 35 33 36 36 36
52 52 52 52 52 52 51 51 51 50 50 50 50 49 49 48 43 38 32 34 40 38 29 25 22 25 26 28 30 31 33 34 32 31 29 26 27 28 23 20 24 29 29 30 32 34 33 35 34 36 37 37 37 35
52 52 52 52 52 52 51 50 50 49 48 48 47 49 47 44 42 39 42 42 39 35 31 21 19 21 25 30 31 32 30 32 32 28 30 27 27 27 21 23 23 23 23 26 32 34 35 34 35 34 34 34 34 34
51 51 52 52 51 50 49 48 47 46 45 47 47 45 42 40 37 39 43 41 40 32 21 23 17 11 27 28 33 34 34 25 28 26 27 28 26 22 22 22 22 22 25 34 36 35 35 34 34 33 33 33 33 33
51 51 50 49 48 47 46 45 44 45 47 45 39 36 35 39 43 43 38 35 35 35 32 24 26 21 27 27 25 29 31 25 17 25 31 26 24 25 24 23 26 27 34 34 33 33 34 33 34 33 32 33 33 33
49 49 48 46 45 44 44 46 47 46 41 37 34 34 39 43 37 33 29 26 29 23 28 25 26 24 30 26 25 29 24 24 16 22 24 22 23 33 33 29 30 32 34 33 34 34 34 34 34 33 33 33 34 33
46 45 44 44 44 45 47 46 44 37 37 37 37 40 39 35 32 26 23 26 22 21 24 22 23 30 31 33 29 29 29 30 21 30 24 19 33 32 32 32 33 33 33 33 34 33 34 34 34 34 35 34 34 34
43 43 44 44 44 46 46 43 41 42 39 37 34 32 29 29 19 18 15 19 18 23 23 26 31 34 35 34 30 30 28 27 31 25 23 32 33 32 32 33 35 35 35 34 34 34 33 33 33 32 30 30 28 26
43 44 44 44 45 45 43 43 42 39 35 29 25 23 22 21 22 22 18 18 23 29 32 33 31 31 33 32 32 27 32 33 27 21 23 29 32 31 31 34 34 35 35 35 35 36 35 34 31 31 30 29 28 28
44 45 44 45 45 44 44 42 40 36 31 26 25 20 23 23 20 24 19 25 30 33 32 30 31 33 32 31 32 30 26 20 26 26 26 32 32 30 31 34 33 34 34 34 35 35 34 34 33 29 21 25 27 27
44 43 43 45 45 44 43 40 38 36 32 27 26 21 23 21 19 21 28 26 31 32 33 33 29 29 29 29 26 22 25 23 27 31 33 31 30 31 32 33 33 34 34 30 26 27 27 28 27 24 17 18 24 23
41 40 45 45 45 43 41 37 36 33 30 29 28 29 24 23 19 21 26 28 31 31 25 28 21 24 29 23 19 22 24 28 32 32 31 27 27 30 32 32 32 34 32 30 22 20 20 23 23 20 14 13 19 20
38 42 44 45 42 39 37 35 33 32 28 28 25 24 28 27 26 27 30 32 32 30 29 23 30 25 23 21 17 23 28 30 31 32 30 28 27 27 29 32 33 33 31 23 22 21 19 19 18 15 15 17 16 16
40 41 44 42 40 36 33 32 33 24 21 23 24 23 26 26 28 26 30 33 33 33 31 29 25 23 24 24 21 20 28 32 27 31 32 31 28 27 26 25 27 27 24 21 20 19 18 16 15 13 13 14 14 15
42 42 44 42 38 31 27 26 30 23 20 23 23 24 22 23 25 28 29 31 31 29 27 25 24 25 25 26 24 28 28 30 29 26 25 29 29 25 26 25 25 26 25 20 18 20 15 14 14 14 14 13 13 13
40 42 42 36 33 28 24 22 25 21 20 19 20 21 19 23 22 24 25 29 27 25 22 24 25 26 24 24 29 31 33 30 28 26 24 26 26 26 25 25 22 22 22 22 20 19 23 19 17 14 12 16 16 16
37 38 34 34 29 25 22 23 21 25 19 18 20 14 11 10 9 12 18 24 24 19 21 22 20 22 22 23 25 26 28 26 25 25 27 26 25 23 22 22 22 24 24 24 22 22 21 20 18 17 15 14 17 16
36 34 32 31 25 21 19 24 20 17 15 18 15 16 19 20 16 15 8 11 14 18 18 19 16 14 18 17 19 21 21 20 21 21 18 18 19 21 21 21 22 23 24 24 22 23 23 22 22 22 16 17 15 14
34 29 27 24 23 18 22 16 20 16 12 13 10 8 6 7 8 6 8 9 14 14 15 14 14 16 14 11 15 18 19 17 16 14 14 14 15 18 21 21 22 22 23 24 20 20 20 20 23 19 17 14 13 13
29 23 24 13 18 14 12 11 7 10 6 5 4 6 4 5 4 -0 9 12 8 8 11 12 14 16 14 9 13 15 14 17 15 14 14 14 12 13 15 17 20 21 22 19 20 20 20 17 16 16 16 15 14 11
14 15 17 16 15 12 12 4 7 8 6 4 6 0 -4 -0 -1 5 8 10 11 12 14 16 18 14 15 18 15 13 14 16 16 14 14 15 15 13 11 13 16 18 20 20 19 19 18 17 16 14 14 15 21 17
9 12 16 17 15 13 11 11 12 8 2 5 3 2 2 1 1 9 14 13 14 15 13 13 17 15 16 15 15 15 11 11 15 13 12 12 15 17 17 16 15 18 18 17 16 17 16 16 15 14 13 9 10 12
14 14 11 9 10 9 8 7 5 7 9 11 9 4 6 7 8 14 15 14 10 6 5 5 4 6 8 12 10 11 10 3 3 6 10 13 15 14 14 18 19 23 20 16 15 13 14 15 14 13 11 11 11 7
10 13 14 4 5 7 8 9 10 12 13 12 11 9 11 12 13 12 13 8 1 7 10 8 7 -2 -0 -1 -1 -1 0 3 5 5 5 10 7 11 3 3 4 5 6 8 20 21 16 15 13 12 10 9 6 -0
9 10 8 2 6 7 7 8 8 6 10 12 11 12 12 13 11 6 7 5 7 6 4 1 -2 -3 0 0 4 6 -1 -2 4 7 5 7 6 4 5 6 6 4 1 2 4 6 19 18 16 3 3 1 1 1
10 6 4 5 7 5 3 4 4 8 6 5 3 7 9 7 8 6 4 4 3 -1 2 1 -2 -9 -2 -3 -4 -3 5 -1 -3 -1 -0 5 7 8 8 8 8 5 1 0 1 3 10 14 2 1 1 0 -1 3
8 7 8 6 9 5 3 2 2 3 1 2 3 0 6 7 9 10 2 -5 1 4 6 -2 -2 2 -4 -6 -7 -4 10 6 3 3 -1 3 4 5 7 7 2 -2 -2 -1 -2 -1 -1 2 -1 1 3 -2 -6 -7
-3 -2 -2 2 5 6 5 5 6 6 5 3 2 -3 -5 1 5 6 0 -6 -0 1 -1 -2 -3 -3 -3 -4 -4 -4 4 -3 0 15 18 19 20 20 19 9 5 1 0 0 -3 -2 -5 -6 -7 -8 -6 -5 -8 -10

GFSWCAN_sfc_dewp_084.txt.gz
Dewpoint
49 49 49 55 54 53 52 50 50 49 48 47 46 45 44 43 41 39 37 38 34 29 29 28 29 27 27 27 25 26 25 27 27 26 26 25 25 29 29 30 30 29 29 28 27 26 21 28 30 25 26 34 35 37
49 48 49 54 53 52 51 50 49 48 48 47 47 46 44 43 42 41 38 38 38 35 31 32 31 31 31 31 29 31 27 25 28 25 26 25 22 26 27 23 31 29 29 26 27 24 28 29 28 29 33 33 35 38
48 49 52 54 53 52 51 50 49 49 48 48 46 46 46 44 43 41 39 40 40 36 33 32 30 31 35 34 33 28 30 28 29 32 29 25 24 27 21 26 27 35 35 30 29 26 30 29 29 33 33 34 36 38
48 48 52 53 52 51 51 50 50 49 49 48 47 47 46 45 43 42 42 42 41 36 30 28 32 32 31 33 34 34 31 32 33 34 29 26 22 28 24 25 25 26 29 33 28 28 28 29 30 30 30 31 34 38
48 48 52 52 52 51 50 50 50 49 49 49 48 48 47 47 45 45 44 42 42 39 29 32 31 29 29 32 33 33 33 30 32 29 28 24 26 25 23 22 18 18 22 27 27 29 28 28 32 31 31 32 35 38
47 48 52 52 51 51 51 50 50 49 49 49 49 49 49 48 46 44 38 39 43 41 34 28 31 28 26 29 32 33 34 33 35 31 28 28 27 26 21 19 19 21 22 24 26 30 31 32 32 37 34 34 38 37
48 49 52 51 51 51 51 50 49 49 49 49 50 50 49 48 44 39 33 38 41 40 33 28 27 26 26 29 31 31 33 35 34 31 29 26 25 28 25 17 16 22 30 23 23 28 34 35 35 37 37 37 38 36
48 51 51 51 51 51 50 50 49 48 49 49 49 49 47 44 43 40 42 41 39 35 31 26 25 23 26 30 30 33 32 33 33 28 30 27 27 28 22 21 20 20 22 22 20 24 34 35 36 36 36 36 36 35
49 52 51 51 51 50 50 50 50 49 49 48 47 45 43 41 38 40 42 41 40 34 28 26 24 24 29 29 32 34 34 26 29 26 26 27 23 23 22 24 23 21 21 21 31 35 36 36 36 36 35 35 35 35
51 51 50 50 50 50 50 49 49 48 47 44 40 37 35 39 43 42 39 34 34 32 31 25 27 25 28 29 29 28 31 27 24 25 30 26 23 24 28 34 33 30 24 30 29 30 36 36 36 35 35 35 35 34
50 50 50 50 50 49 48 47 47 45 41 39 35 34 41 43 38 33 28 26 27 24 27 26 26 25 30 28 28 29 29 29 23 26 26 25 24 33 35 34 34 34 30 32 33 34 34 34 35 34 34 34 34 34
50 50 49 48 47 47 46 45 43 39 39 38 38 40 40 34 31 26 25 27 25 22 26 26 27 29 31 33 28 29 28 30 23 29 26 23 31 34 34 34 35 35 34 33 34 34 34 35 35 35 35 35 34 34
48 48 47 46 46 46 44 42 41 42 40 39 35 33 30 30 22 20 19 23 24 26 27 28 31 33 34 34 29 29 27 26 32 27 24 29 34 33 33 34 35 36 35 35 34 34 33 33 33 32 31 30 28 26
46 45 45 44 44 44 42 43 41 39 37 32 29 25 25 22 23 23 23 25 27 29 29 33 31 31 33 31 30 28 27 33 29 25 26 31 32 31 32 34 34 34 36 36 36 35 34 33 32 32 30 29 28 27
45 45 44 44 43 43 42 41 39 38 34 30 29 23 24 24 25 26 26 29 32 34 33 30 31 30 32 31 31 30 28 25 27 27 31 33 32 31 32 34 33 34 34 34 35 34 34 34 33 28 23 25 26 26
44 44 42 43 43 42 41 40 39 37 32 29 26 23 24 25 24 27 27 29 32 32 33 32 29 29 27 30 28 26 26 24 29 33 34 33 30 29 34 34 34 34 34 32 30 29 29 30 28 22 16 19 22 22
42 40 43 43 42 41 41 38 37 32 30 29 28 28 26 26 26 27 29 30 33 31 28 29 25 24 28 27 25 28 27 31 35 34 34 32 30 29 30 33 33 33 34 33 31 21 19 22 23 20 13 13 19 19
40 42 44 43 40 40 37 36 33 32 28 29 27 27 27 27 27 27 28 32 33 32 30 27 29 26 24 22 25 29 33 34 34 33 33 33 29 28 28 32 32 32 33 33 31 25 22 21 18 16 16 18 18 19
42 42 43 41 40 37 34 33 33 27 25 26 25 26 28 28 29 29 32 33 34 34 32 30 25 24 24 28 30 30 31 34 32 32 33 33 31 30 28 29 29 30 30 29 27 23 20 18 16 15 14 14 13 14
44 43 43 39 37 32 28 28 31 27 25 25 25 26 25 26 27 29 31 32 32 31 28 26 24 25 25 28 29 31 33 34 33 29 27 26 31 29 29 29 27 28 28 28 25 24 21 18 16 15 15 14 13 12
42 41 39 36 31 28 27 26 26 24 23 23 23 25 23 26 26 27 28 30 29 27 25 26 25 26 28 29 31 32 32 32 31 29 26 26 26 28 28 28 27 25 24 24 24 23 25 22 21 18 22 17 17 16
37 39 34 34 28 26 24 25 25 25 23 22 23 21 21 20 20 22 22 25 26 26 26 24 25 26 26 26 27 28 31 32 31 28 28 27 25 24 22 24 25 26 26 27 27 26 26 25 23 21 20 19 19 17
37 35 32 31 24 21 20 26 22 20 20 21 20 19 19 19 17 18 17 19 20 21 23 23 23 21 24 23 22 24 24 25 27 25 23 19 18 21 23 23 23 24 24 25 25 25 26 26 25 26 23 21 18 16
34 30 27 24 22 18 22 18 20 18 19 18 19 16 15 15 13 14 15 16 19 18 20 20 20 23 22 19 22 24 24 23 22 19 18 19 21 19 20 21 21 23 24 24 24 24 24 24 25 24 23 22 20 19
30 23 22 16 19 17 15 15 14 14 13 12 9 9 10 10 12 11 13 17 17 17 18 18 20 22 24 23 17 16 18 20 19 18 18 19 19 18 20 18 17 19 22 24 22 22 23 23 22 22 22 21 21 21
19 19 19 17 17 15 14 13 12 11 11 9 10 5 6 10 7 12 14 17 18 19 19 19 22 21 21 21 20 16 17 18 19 19 19 19 19 21 22 19 18 18 21 22 24 23 23 22 21 21 20 20 23 24
14 14 17 17 16 14 13 13 13 13 8 10 9 7 8 5 7 11 15 16 18 19 18 19 21 21 22 20 19 19 18 18 21 20 16 18 19 20 22 21 19 19 20 21 22 22 21 21 20 20 20 19 18 18
15 16 15 13 12 12 11 9 9 10 12 11 10 5 8 9 11 15 16 16 15 13 12 11 12 15 17 17 16 15 16 12 13 14 15 16 16 16 15 17 17 20 21 21 21 21 20 20 20 20 19 18 19 16
13 15 16 11 6 9 10 12 13 14 14 12 11 10 11 13 16 14 15 12 7 9 14 14 14 10 11 10 9 9 10 12 13 10 10 13 15 16 10 12 13 14 14 15 19 22 20 20 19 19 18 17 15 11
11 12 10 2 8 11 10 10 9 7 11 12 12 12 13 15 13 9 9 8 10 9 7 6 6 10 11 12 12 11 8 7 10 13 12 12 13 11 11 12 12 13 12 12 13 15 18 21 21 14 11 10 10 11
10 8 6 7 6 4 3 3 4 8 6 7 4 8 10 9 10 8 6 4 5 4 8 8 7 3 6 6 6 6 9 6 2 3 4 7 8 8 9 10 11 11 11 10 10 11 12 16 17 14 11 10 9 13
8 4 6 4 4 1 -1 3 1 3 1 4 5 2 6 8 8 11 7 4 5 9 9 4 3 7 4 4 2 3 11 8 4 3 2 5 5 7 9 10 11 9 8 8 9 9 8 12 15 12 12 10 8 8
-4 -5 -4 3 5 5 3 3 1 0 2 4 5 3 4 4 4 7 3 -1 5 6 5 4 3 2 1 -1 -0 0 6 2 2 14 17 18 19 20 21 20 14 11 9 9 9 7 5 4 6 7 7 7 5 3

GFSWCAN_sfc_dewp_087.txt.gz
Dewpoint
44 46 47 48 50 54 53 52 50 49 49 47 47 46 44 43 42 39 38 39 35 27 29 28 28 26 27 26 24 26 26 28 27 25 25 25 23 24 25 25 29 29 29 30 30 27 21 27 29 24 28 33 32 35
43 45 46 48 49 51 52 51 50 49 48 47 47 45 44 43 42 41 37 38 38 34 32 30 30 31 30 29 28 28 27 24 28 26 27 26 23 25 24 20 29 26 31 31 27 25 29 29 27 30 29 30 32 37
43 44 46 49 49 49 52 50 49 49 48 47 47 45 44 43 42 40 39 40 39 36 33 32 31 32 34 33 32 29 29 28 28 32 30 26 24 25 18 20 26 31 35 32 29 26 27 29 29 29 32 32 34 35
43 43 46 48 50 52 51 50 49 49 48 48 46 45 45 44 43 43 43 42 39 36 32 29 32 32 32 33 34 33 31 31 30 32 29 26 23 27 22 22 24 20 27 32 32 31 30 28 30 31 31 30 32 33
43 44 48 49 50 52 51 49 49 48 48 48 47 47 45 45 45 45 44 43 42 40 29 30 31 29 28 30 31 33 32 29 31 30 28 25 25 25 24 22 20 19 18 18 20 32 32 30 32 33 33 32 32 33
43 45 48 48 50 51 50 49 49 48 48 48 48 47 46 45 46 44 38 42 43 42 36 30 31 27 26 31 32 32 32 30 32 31 28 27 25 26 22 20 19 18 19 19 18 25 27 32 34 36 36 36 35 38
44 45 47 48 51 50 50 49 48 49 49 48 48 48 46 45 43 39 35 40 42 40 34 31 29 27 26 31 31 32 33 34 34 31 29 26 25 28 26 19 19 19 20 20 28 28 24 33 35 35 37 38 39 37
45 46 48 49 51 50 49 49 49 49 49 49 49 49 45 43 43 40 41 40 39 35 33 30 28 25 28 30 30 33 32 33 32 29 30 26 27 27 22 22 23 25 24 20 23 26 31 27 36 36 37 37 36 36
45 47 48 51 50 50 49 49 49 49 49 49 47 45 44 41 38 40 41 41 40 35 30 30 29 28 28 30 31 33 33 27 31 27 26 28 23 24 23 24 29 30 30 23 24 32 34 36 38 36 36 36 36 36
46 47 48 50 49 49 49 49 49 49 47 45 41 36 35 40 42 41 38 33 34 33 33 27 28 27 29 29 28 28 31 28 26 25 29 26 24 25 26 35 35 34 31 32 25 27 27 30 36 36 36 36 36 36
46 48 50 49 49 49 49 49 48 46 42 40 35 35 41 42 38 33 29 27 27 26 28 27 26 27 30 28 28 29 29 29 23 27 25 24 25 30 35 35 35 35 33 30 28 29 31 34 34 35 34 34 35 34
47 49 49 49 48 48 48 47 45 42 41 39 39 40 39 34 31 27 26 27 25 24 26 27 28 31 31 33 28 28 27 30 23 29 26 24 30 34 33 33 35 36 35 34 35 35 35 35 37 37 35 35 34 34
49 49 49 49 49 48 46 44 43 42 40 39 36 33 32 30 24 22 20 24 25 27 29 30 30 31 33 33 28 28 26 26 32 27 24 28 32 32 32 33 34 36 37 36 36 36 35 34 35 35 34 32 29 27
49 49 48 48 47 45 44 43 42 41 40 35 33 25 28 24 24 25 24 28 29 31 31 32 31 31 32 30 29 28 28 32 27 26 26 31 31 32 32 33 35 34 35 36 36 36 35 34 34 33 33 32 30 27
48 48 46 45 44 43 42 41 39 40 37 32 32 28 26 27 29 30 31 31 32 34 33 30 31 29 31 29 30 31 27 26 26 26 32 34 33 31 32 34 33 34 34 34 34 34 34 34 32 24 21 24 25 25
46 44 43 44 43 42 41 40 39 38 34 31 28 26 27 28 26 28 32 32 35 33 33 31 29 27 26 27 26 25 25 24 30 34 35 33 32 30 32 34 34 34 34 33 31 29 28 29 27 22 16 17 20 21
42 40 43 43 42 42 41 39 37 33 32 30 28 29 29 31 29 28 31 30 32 31 28 29 25 24 30 26 25 28 28 34 36 34 34 34 33 30 31 32 33 34 34 34 33 32 24 21 22 20 16 13 17 18
39 41 41 41 39 39 38 36 33 32 29 30 28 29 27 28 28 29 29 32 32 32 31 28 30 26 24 24 26 32 34 35 35 35 35 34 33 30 29 30 33 32 33 33 33 31 26 25 21 18 19 20 20 21
40 40 42 41 40 37 33 32 33 28 27 29 28 29 29 29 30 30 30 32 34 35 33 30 26 25 25 29 33 35 35 35 32 33 34 33 33 32 31 31 31 31 32 32 32 31 31 27 21 18 17 16 15 14
42 41 40 39 38 34 31 31 33 30 27 27 28 28 28 28 29 32 32 33 33 33 30 28 25 25 25 29 32 32 34 34 34 32 30 28 29 32 32 31 29 30 28 28 30 31 27 23 20 18 17 16 15 15
40 40 38 35 33 31 30 29 27 27 27 25 27 27 25 28 28 29 30 32 31 29 27 28 27 27 30 30 32 33 33 33 32 30 29 30 28 28 29 30 29 27 25 24 24 25 27 25 25 21 25 19 18 17
38 38 36 34 30 28 26 27 27 26 25 24 25 25 24 24 24 25 25 28 28 29 28 27 27 28 28 28 28 30 31 33 34 33 31 30 28 28 25 26 25 27 28 28 27 26 26 27 26 25 23 23 22 20
38 36 34 33 26 25 23 27 24 23 23 23 24 22 22 22 20 22 22 25 26 26 27 26 27 26 27 26 25 26 27 28 28 29 29 28 23 23 25 26 25 27 27 27 27 26 27 27 27 27 27 25 23 21
34 31 28 25 23 20 23 21 21 21 22 21 22 19 19 19 18 19 19 22 24 23 22 24 23 23 24 23 24 25 26 26 25 25 24 21 23 21 20 22 20 22 25 24 25 26 26 25 26 26 26 25 25 23
30 24 25 19 21 20 19 19 19 19 18 17 17 16 15 15 17 17 17 23 23 23 23 23 23 25 27 28 23 19 23 26 26 25 23 21 22 20 23 22 18 18 23 26 24 24 25 26 25 24 24 24 24 25
21 20 22 20 19 20 19 17 17 17 16 15 15 11 13 16 15 17 20 24 25 26 26 25 26 25 23 23 23 21 20 21 22 21 24 22 21 24 26 23 21 22 22 22 25 24 25 25 24 22 23 23 24 25
19 19 19 17 17 16 16 16 16 17 16 16 14 11 13 12 14 17 20 20 23 23 21 23 26 25 25 24 23 22 21 21 23 22 19 21 22 23 25 23 21 22 21 22 22 22 23 23 22 22 22 22 22 21
18 19 18 17 16 16 16 16 16 16 18 15 14 12 12 14 17 20 20 18 18 18 18 17 16 18 19 20 19 18 21 18 19 19 20 20 20 20 17 18 18 19 20 20 22 22 22 22 22 22 21 20 20 21
19 17 19 14 15 16 17 17 18 18 16 16 17 15 15 16 20 19 18 16 15 17 20 20 20 18 19 17 16 16 16 17 18 14 15 16 21 19 16 16 16 17 17 17 18 21 21 21 21 22 21 20 20 17
17 19 16 13 14 17 17 14 16 14 14 15 14 15 15 17 17 13 14 16 18 18 16 15 14 17 17 16 17 16 15 12 14 15 16 15 16 13 12 12 13 14 15 15 15 15 18 20 20 19 18 15 15 14
16 17 16 16 15 12 10 8 10 10 11 13 10 15 15 14 14 12 11 11 12 13 17 16 15 13 13 14 13 13 14 11 6 6 7 9 10 10 11 12 13 14 14 13 13 13 14 14 16 18 18 14 12 15
15 13 13 11 12 9 7 11 12 13 11 14 13 10 13 14 13 15 10 12 15 17 16 12 12 14 11 10 9 8 13 11 9 8 5 7 9 10 12 13 14 14 14 13 12 12 12 10 11 15 15 12 12 10
9 9 9 10 10 11 10 11 10 9 11 12 11 8 9 8 9 12 8 8 14 15 14 13 12 10 7 5 6 7 10 8 6 14 17 18 19 19 19 20 20 18 14 12 12 12 10 9 8 8 9 9 9 7

GFSWCAN_sfc_dewp_090.txt.gz
Dewpoint
43 43 42 46 45 47 50 50 53 52 50 49 49 48 48 48 44 42 39 41 39 32 30 29 28 26 27 26 24 27 27 29 27 26 25 24 22 24 24 24 27 27 27 27 28 25 24 30 29 24 30 32 33 35
42 43 41 45 45 47 49 51 52 50 50 49 48 47 46 45 44 44 37 39 39 36 32 32 32 33 32 31 29 28 27 25 29 27 27 25 23 24 23 20 29 25 31 30 34 30 30 30 30 30 31 30 32 37
43 43 42 44 44 48 48 52 51 50 49 48 47 46 45 44 44 42 40 41 41 36 34 32 31 32 33 33 33 29 28 29 29 31 28 26 20 25 18 21 24 29 33 31 30 29 32 32 30 32 31 32 32 35
43 42 42 44 43 45 48 51 50 49 49 48 47 45 45 44 44 43 43 43 41 38 32 30 32 32 32 34 34 33 31 31 31 32 29 27 24 27 23 23 22 23 22 26 28 28 31 32 32 33 33 34 31 33
42 43 43 43 44 47 49 51 50 49 48 47 47 46 45 46 46 44 44 43 43 40 31 30 30 29 29 30 32 33 31 29 31 30 27 24 27 25 24 23 21 21 19 18 19 24 30 32 26 34 36 36 35 33
41 42 42 43 45 48 49 50 49 48 47 47 47 47 47 46 46 44 38 42 43 42 35 28 31 27 29 32 31 32 31 31 33 31 29 28 26 26 24 21 21 19 19 22 23 28 27 26 30 35 35 37 37 37
40 42 42 44 47 49 51 49 48 48 48 47 47 46 45 44 43 39 37 41 41 41 35 28 27 26 28 31 31 30 32 34 34 32 30 27 27 27 26 21 20 21 25 29 24 22 27 26 28 29 37 37 38 36
42 42 42 45 48 50 49 48 48 48 48 48 46 46 45 44 43 39 40 41 40 35 35 28 26 26 28 30 30 34 32 33 32 31 31 27 27 28 22 23 23 26 33 32 30 21 26 31 34 37 37 37 36 35
43 43 43 45 48 50 49 48 48 48 48 46 46 45 43 41 38 39 41 42 40 36 30 30 23 22 29 30 33 32 32 27 32 28 27 29 25 24 24 25 33 35 34 34 32 30 29 33 36 38 37 36 36 35
43 44 45 46 49 49 48 48 48 48 47 46 42 38 35 39 41 41 38 34 33 33 33 29 29 25 30 28 30 31 31 29 26 27 30 26 24 25 29 36 35 35 34 32 30 29 28 28 31 35 35 35 36 36
43 45 45 47 49 48 48 48 48 47 45 40 36 35 40 42 38 34 30 29 28 26 29 28 28 26 30 27 28 30 29 29 23 27 26 25 23 28 34 32 32 36 36 31 32 31 32 34 35 36 35 34 35 34
44 45 47 49 48 48 48 48 47 43 41 39 38 40 39 35 31 28 27 27 25 24 27 27 27 31 30 32 27 29 27 29 22 29 26 22 27 34 33 31 31 36 36 35 35 35 35 36 37 38 37 36 35 35
44 46 48 48 48 48 47 47 44 42 40 40 35 32 32 30 25 23 20 23 25 28 28 28 28 31 31 31 28 27 26 25 30 26 22 26 32 32 32 31 32 36 36 37 37 36 36 34 34 35 34 34 33 31
45 47 48 48 47 47 46 44 42 42 39 34 31 25 29 25 27 26 27 28 31 30 30 30 29 30 33 29 29 27 27 31 25 24 24 31 30 31 32 34 35 34 35 35 36 35 34 35 34 34 35 34 30 27
46 48 48 47 46 45 43 42 40 40 36 31 33 27 27 29 29 30 31 31 32 32 32 29 30 27 30 29 30 29 27 22 24 23 30 33 30 29 29 33 33 33 33 33 34 34 34 34 30 24 20 22 24 24
48 48 46 45 44 43 41 40 40 37 34 31 29 26 28 27 25 28 31 30 33 33 32 31 26 26 24 25 25 23 21 18 23 31 33 31 30 29 29 33 34 31 30 30 29 28 25 25 25 22 17 16 20 20
46 43 44 43 42 42 41 38 37 33 32 30 28 30 30 30 27 29 31 31 33 30 26 26 24 18 28 24 24 25 25 26 33 27 29 32 32 29 27 29 33 34 31 31 32 33 32 25 22 20 18 14 15 18
41 43 43 42 41 39 37 36 33 32 28 30 28 29 30 29 29 31 31 32 31 30 27 24 26 24 23 21 21 25 28 33 29 28 29 31 31 30 28 27 32 33 33 32 32 31 29 28 26 21 20 20 18 19
42 42 42 42 39 36 33 32 33 26 26 29 30 30 30 30 30 30 32 33 33 32 27 27 21 22 23 25 25 28 26 27 29 30 31 32 32 31 29 26 27 27 31 31 31 32 32 31 30 29 22 16 15 15
42 42 41 40 38 33 30 30 33 29 27 27 30 28 28 28 30 31 32 30 28 27 23 22 24 25 25 27 27 27 28 31 30 29 29 29 29 24 26 25 26 25 26 24 26 31 27 28 28 28 23 18 16 16
39 39 38 35 33 31 30 30 26 28 28 25 28 27 26 29 29 29 29 31 25 24 25 27 26 27 26 27 30 30 31 31 31 30 28 24 27 25 24 23 22 25 22 22 22 24 26 26 25 24 21 20 19 19
38 39 34 34 31 29 26 28 27 27 26 26 24 25 23 23 25 25 26 28 25 27 27 27 25 25 25 25 26 26 28 29 30 30 31 29 26 23 22 21 20 18 21 25 23 23 24 24 24 23 22 22 24 21
38 36 33 32 27 25 22 28 24 23 19 21 18 15 19 21 18 20 18 22 25 24 23 22 20 19 21 21 22 23 24 22 25 26 28 27 26 22 20 20 20 17 19 23 23 21 21 25 25 24 23 23 22 20
34 29 27 25 24 20 24 20 22 21 20 19 16 12 15 14 15 14 14 19 21 20 19 17 17 18 19 16 18 21 23 24 22 20 20 19 17 19 21 22 20 21 23 22 20 20 20 21 24 21 20 19 19 18
27 24 25 19 22 20 19 18 18 18 13 15 11 9 11 12 11 10 13 17 19 18 17 17 18 19 18 19 20 18 17 21 20 19 19 19 16 15 16 18 18 17 21 17 19 20 19 17 17 16 16 16 16 15
20 21 21 20 19 19 19 17 16 15 15 11 10 10 10 12 8 10 16 16 16 17 16 15 16 18 19 20 18 17 17 17 18 17 16 15 16 16 15 15 15 18 20 20 17 17 18 18 17 13 13 15 22 15
19 19 18 18 18 17 17 16 17 17 11 10 11 10 9 6 8 15 17 17 17 15 14 15 17 18 18 17 17 16 15 13 13 14 14 14 16 17 16 15 15 18 17 15 16 17 18 18 17 15 16 13 11 12
19 19 18 18 16 17 15 14 13 12 14 15 14 8 10 11 13 16 16 14 12 11 12 12 11 11 11 11 10 11 11 9 9 9 13 14 13 12 11 12 13 18 15 13 13 13 15 19 19 17 15 15 14 9
19 19 19 14 14 14 14 15 15 17 16 16 13 12 12 16 14 14 14 11 9 10 12 12 10 8 8 7 7 8 7 9 9 7 8 11 12 10 5 6 5 6 6 7 16 18 14 14 15 15 15 15 13 6
17 20 15 10 12 13 12 12 12 11 13 13 14 14 14 14 12 10 10 9 9 9 6 4 2 3 3 3 4 4 3 3 3 6 5 5 5 3 1 2 4 4 3 4 9 10 17 12 12 9 10 12 7 4
18 17 13 13 10 8 7 7 9 11 9 8 7 10 11 8 11 9 7 6 5 3 4 2 2 -1 2 2 0 0 2 0 -4 -3 -2 -1 -1 1 3 4 4 3 5 9 10 9 9 8 5 6 8 14 13 15
14 8 10 7 6 5 5 7 7 7 6 7 7 5 7 9 7 9 5 3 3 6 11 4 2 4 2 0 -0 -0 11 1 -1 -1 -2 0 2 4 7 8 8 8 10 11 10 9 8 7 7 6 9 11 10 6
4 4 5 7 5 4 5 6 4 2 3 3 3 1 0 3 3 6 3 1 4 5 5 3 1 1 -0 -2 -3 -2 5 -2 0 14 16 18 19 19 19 18 15 12 15 12 10 5 5 6 6 7 7 8 9 8

GFSWCAN_sfc_dewp_093.txt.gz
Dewpoint
42 41 42 43 43 44 45 46 49 49 53 52 50 50 50 50 47 38 37 39 35 29 28 30 29 25 25 25 24 26 27 28 27 21 18 18 20 23 22 25 27 26 26 26 26 23 21 29 28 23 29 31 32 35
42 41 43 44 43 45 45 47 49 51 52 51 50 49 50 49 44 40 33 38 37 32 30 34 33 33 31 30 29 28 26 25 28 25 21 19 21 18 19 16 26 22 30 29 33 30 35 36 32 32 31 30 32 38
44 42 43 44 43 42 44 47 49 52 51 50 49 49 50 46 45 41 37 39 38 34 32 31 31 32 33 33 33 27 28 28 29 29 24 23 18 22 16 18 21 27 30 28 27 30 31 35 31 31 34 33 33 34
44 44 44 44 42 43 44 48 52 51 50 50 48 49 48 46 45 43 40 41 37 34 29 29 32 29 30 34 33 32 30 31 31 31 23 21 22 25 22 23 22 23 22 23 25 23 30 32 27 31 35 37 37 35
44 44 44 44 42 43 44 48 50 50 49 48 48 47 47 47 46 43 42 41 41 35 28 29 28 28 30 32 33 31 30 30 29 25 22 22 26 24 24 23 22 22 20 19 19 24 25 27 26 33 32 35 37 37
44 44 44 43 43 43 46 48 49 49 48 48 48 48 48 46 43 40 31 36 41 38 30 25 29 26 31 32 32 31 31 30 31 27 26 28 27 23 20 19 22 21 22 24 22 24 27 27 28 31 35 36 38 38
44 44 44 43 42 43 46 49 49 49 48 48 48 47 46 44 42 38 33 36 41 39 30 24 24 25 30 31 31 32 34 34 33 29 27 28 27 24 19 20 22 23 32 34 33 31 28 25 28 33 36 38 39 37
44 43 43 43 43 44 48 49 48 48 47 47 47 45 45 43 41 38 39 41 38 34 33 23 24 23 28 30 30 34 32 32 32 29 31 27 27 27 23 24 24 30 35 34 34 32 30 25 31 35 38 40 38 37
43 43 43 43 43 46 49 48 48 47 46 46 46 44 41 40 36 37 41 41 38 33 27 24 19 17 27 32 33 32 32 27 32 26 28 28 25 23 23 24 31 35 34 34 33 31 31 28 28 32 37 38 38 36
43 43 43 44 45 49 48 48 47 46 45 43 41 37 34 38 41 41 35 30 30 31 30 27 27 23 29 30 30 30 30 28 18 26 30 26 24 25 27 32 33 33 35 35 32 28 29 27 31 33 35 35 36 37
43 43 44 45 47 48 47 47 45 44 42 39 36 34 39 42 36 34 27 25 26 24 28 27 26 26 30 28 28 31 27 29 22 25 24 25 23 24 31 32 32 33 36 36 34 34 33 34 35 36 37 36 34 33
43 44 44 46 47 47 46 46 44 41 40 39 38 39 39 34 31 28 27 26 24 23 27 25 26 26 29 32 28 29 26 27 19 29 24 21 24 29 32 31 31 33 36 36 36 35 35 35 36 37 36 35 34 33
43 44 45 44 47 46 46 45 43 42 40 39 35 32 31 29 25 24 20 22 22 27 27 26 27 29 30 30 28 28 25 22 30 25 21 22 28 32 32 31 33 35 36 36 37 36 36 34 35 35 34 34 34 33
44 44 44 47 46 45 45 44 42 41 40 34 30 24 28 25 27 27 26 26 29 29 29 29 27 27 30 27 29 19 26 30 24 21 18 24 28 29 29 33 35 33 34 35 35 35 35 35 34 34 34 35 34 29
42 44 47 47 46 45 43 42 43 39 36 32 33 26 27 28 29 30 31 30 31 31 30 27 27 29 27 27 28 28 26 20 21 20 22 25 29 28 28 33 33 32 33 33 34 34 35 33 31 24 19 21 23 23
44 47 46 46 45 43 43 42 40 38 33 31 30 26 27 26 26 29 29 30 33 32 30 27 26 23 24 25 25 23 19 14 19 22 28 31 28 27 28 32 34 32 31 31 30 27 24 22 23 22 19 15 18 19
46 44 46 45 44 43 43 38 37 32 32 29 26 30 30 29 27 29 30 31 33 28 21 22 15 16 25 23 23 24 22 21 31 24 27 32 32 28 27 28 33 34 32 31 31 30 31 30 25 20 18 16 14 16
44 44 44 44 42 41 36 35 33 31 27 27 26 28 31 31 30 31 31 33 30 25 24 18 24 24 22 19 20 22 23 33 28 25 27 29 29 28 27 27 32 33 33 32 32 32 31 30 30 29 22 21 19 19
42 42 43 43 39 35 32 31 31 24 26 28 30 30 30 30 31 32 33 33 31 29 25 20 15 13 21 22 23 30 25 30 28 28 29 31 30 29 28 25 25 27 30 31 31 32 32 32 32 31 31 28 21 17
43 43 42 41 39 33 29 29 33 27 25 27 29 27 28 28 30 32 32 29 27 22 19 22 21 23 24 25 25 25 26 29 29 28 28 29 29 22 25 24 26 25 25 23 21 28 25 27 27 28 28 28 23 19
39 39 39 36 32 30 29 28 25 27 27 25 27 27 26 29 29 29 29 30 21 16 17 23 25 26 25 25 28 29 30 30 29 29 28 22 26 24 22 21 18 23 21 20 20 21 24 23 24 23 21 23 22 21
37 38 34 34 30 29 26 28 26 28 26 25 25 26 24 24 25 25 26 28 25 20 22 24 22 23 23 24 25 23 26 27 28 28 30 29 25 23 21 20 18 14 15 16 18 20 22 23 24 24 22 23 24 23
37 35 32 32 27 25 22 28 24 24 22 21 21 19 20 21 20 21 17 13 18 18 19 20 18 16 19 19 21 22 22 21 23 24 26 26 26 22 19 19 18 13 13 16 19 20 18 23 23 24 21 22 20 21
34 29 26 25 24 20 24 21 23 22 22 20 16 16 18 14 17 8 8 10 16 16 17 15 15 16 16 13 15 17 20 21 20 17 17 19 17 22 20 19 20 19 20 19 17 18 17 19 23 19 18 16 16 17
27 23 25 19 22 20 18 18 19 18 15 16 12 8 10 9 2 3 6 11 11 12 12 13 14 14 12 12 16 16 15 19 18 17 17 16 15 13 13 15 17 17 19 13 17 18 16 16 16 17 16 15 14 14
19 19 16 15 16 17 17 14 14 14 14 9 7 6 2 4 4 7 11 11 10 10 11 10 12 13 16 16 16 14 15 14 16 16 14 13 14 11 7 11 11 15 17 17 14 14 15 15 15 15 16 16 22 18
19 15 17 18 18 17 17 17 18 16 9 8 8 6 5 5 6 12 15 13 14 11 9 9 12 16 16 15 14 13 11 7 11 11 11 10 11 11 11 11 11 16 15 13 13 14 15 16 17 16 16 15 13 14
19 19 17 17 17 17 16 15 13 12 13 14 13 6 9 11 14 15 15 12 10 7 7 7 7 8 8 7 5 7 6 4 2 4 10 10 8 6 7 7 9 16 14 12 13 11 10 11 15 17 18 17 16 11
18 19 20 16 16 15 14 13 13 15 16 16 13 12 12 16 12 12 13 10 5 7 9 7 7 1 4 3 2 1 0 4 5 3 3 6 5 7 1 1 -0 -0 1 4 15 18 14 14 15 15 15 15 16 14
18 21 16 12 12 12 11 10 9 9 12 13 14 13 14 13 11 7 7 5 6 5 2 -0 -2 0 0 1 1 1 -2 -3 -0 4 2 1 2 -1 -2 1 4 5 3 3 6 7 16 10 9 3 4 5 6 10
18 17 12 12 8 6 5 6 7 11 8 5 5 9 10 6 9 7 4 2 -1 -2 1 -0 -2 -7 -0 -2 -2 -2 2 -3 -6 -4 -4 -5 -5 -2 1 3 3 3 1 3 7 7 7 7 2 2 3 2 3 13
14 9 12 9 6 6 4 4 5 4 5 6 5 3 6 7 6 7 4 1 1 3 9 2 1 3 -2 -4 -4 -4 10 -3 -4 -4 -5 -2 2 5 6 7 7 6 5 7 9 9 7 6 5 4 4 2 2 4
8 8 6 6 4 4 6 6 4 2 2 -0 2 0 0 4 5 7 3 -0 5 5 4 1 -3 -3 -3 -4 -4 -4 4 -6 1 14 16 17 19 19 19 14 14 13 11 10 8 2 -2 -2 1 1 1 1 2 4

GFSWCAN_sfc_dewp_096.txt.gz
Dewpoint
43 44 45 44 44 43 44 44 45 46 47 50 53 51 50 51 46 39 38 39 33 29 29 32 31 25 25 24 23 25 25 26 27 21 18 18 19 22 20 23 25 25 22 21 25 21 20 36 32 26 30 31 31 35
43 43 45 45 44 44 44 45 44 45 49 50 52 51 50 50 44 39 36 37 36 32 31 34 33 33 31 29 28 27 24 25 27 24 19 19 20 15 18 15 23 26 28 28 28 25 35 36 35 32 35 33 34 34
43 43 44 45 44 44 45 44 43 44 47 51 51 51 50 50 44 40 38 39 36 32 31 31 30 31 31 33 32 27 28 28 29 28 22 22 18 21 15 17 19 23 28 27 28 28 27 35 37 37 35 35 36 37
43 43 43 44 44 45 44 44 43 46 48 52 51 51 50 48 45 43 40 41 34 33 28 29 31 28 30 33 32 31 30 31 31 29 21 20 22 24 21 22 21 22 23 21 24 22 29 30 27 31 36 34 36 37
45 44 43 44 44 45 44 43 45 46 51 51 50 50 48 46 45 43 42 41 41 34 28 28 28 29 31 32 31 31 30 29 27 24 22 21 25 23 23 23 21 22 21 19 19 23 24 24 25 26 31 35 37 38
45 44 44 45 44 45 43 44 45 51 50 50 49 47 47 46 43 37 31 35 40 36 30 24 29 29 32 31 30 30 31 30 29 26 25 26 26 23 19 18 22 22 24 27 24 28 27 27 28 27 34 36 36 38
45 45 45 45 45 44 43 44 50 50 49 48 48 47 46 45 42 35 30 35 41 36 29 23 24 26 30 30 30 32 34 31 28 26 24 25 25 22 17 20 21 25 30 33 34 35 31 28 26 27 29 36 38 39
45 44 45 44 45 44 44 45 48 48 48 48 47 46 45 43 41 36 38 41 38 35 31 21 22 24 29 27 29 34 31 32 30 26 29 26 26 26 22 23 24 28 33 34 33 32 33 32 30 31 33 38 40 39
44 44 44 44 45 45 44 46 48 48 48 47 46 44 41 39 36 36 40 38 37 31 25 22 18 15 27 32 31 32 32 21 30 23 27 25 24 21 22 23 27 30 33 34 33 32 30 30 28 30 33 36 38 39
44 44 44 44 44 45 45 48 48 46 45 44 41 37 33 37 41 40 33 28 29 29 29 25 26 24 29 30 29 26 28 25 14 24 29 25 23 25 25 29 31 31 33 35 32 30 29 29 32 34 35 37 37 40
44 44 43 44 44 45 48 47 46 45 43 39 36 34 38 42 36 31 25 24 24 23 27 27 25 25 30 23 23 27 20 24 20 22 22 24 20 23 29 30 31 32 33 36 36 35 34 34 35 36 37 36 35 35
43 43 43 44 45 47 46 45 44 41 39 38 38 39 39 33 28 23 20 23 22 20 26 25 25 26 28 30 25 28 22 24 21 27 24 21 23 22 29 31 31 31 34 35 37 36 35 35 35 35 36 34 34 34
43 43 44 43 45 47 45 44 43 43 40 39 36 32 31 28 19 18 18 17 18 25 27 27 26 29 28 28 28 27 24 18 28 25 21 21 24 29 27 30 32 35 35 36 36 37 36 36 35 35 35 34 35 34
44 42 44 46 46 45 44 44 43 42 40 34 30 26 26 22 24 24 25 24 26 27 28 28 28 27 29 24 26 20 25 28 23 21 16 22 27 28 29 32 35 32 33 34 35 35 35 35 34 34 34 34 34 33
43 43 44 46 45 45 44 44 43 40 37 33 29 22 25 27 28 27 29 29 28 30 29 27 25 26 21 21 24 26 25 18 19 18 21 25 28 27 28 31 33 31 32 32 33 34 35 34 33 30 20 20 22 25
43 44 45 45 45 44 44 43 40 38 33 31 26 24 28 26 27 29 30 29 31 30 27 26 21 17 18 21 19 17 16 12 18 20 24 27 27 26 27 31 34 33 31 31 31 27 24 21 21 21 21 17 16 18
44 43 45 45 45 44 42 38 37 32 31 26 24 30 28 28 28 30 30 30 31 27 21 20 14 14 20 14 17 21 17 20 22 25 24 29 28 27 26 27 33 34 32 31 31 30 30 31 29 26 20 18 16 14
42 45 44 45 42 39 36 35 32 30 26 27 26 28 31 32 31 31 32 32 29 25 24 18 23 22 15 14 18 22 26 28 27 25 26 28 28 27 26 27 31 32 33 32 31 31 31 31 31 31 31 28 26 24
43 44 44 44 40 35 32 31 31 21 24 28 30 30 31 31 32 32 32 32 31 29 24 17 14 14 21 23 19 24 29 32 31 28 28 29 29 28 28 24 26 30 30 30 28 29 31 31 31 32 31 30 29 29
44 44 44 41 39 33 29 29 32 27 25 27 29 27 29 29 31 31 31 30 27 22 17 18 19 21 23 24 24 26 28 29 27 27 27 28 28 21 25 25 26 25 24 22 20 26 23 25 25 26 26 26 27 27
40 40 39 36 32 30 28 27 26 27 27 25 27 28 27 29 29 29 29 30 22 15 17 23 24 25 25 24 27 28 29 29 28 28 27 23 26 24 21 19 17 23 21 19 19 20 23 22 22 22 19 25 24 23
38 38 34 34 30 28 26 28 26 28 26 25 25 27 25 25 26 25 26 28 23 21 23 24 22 23 23 24 25 23 26 27 27 27 29 28 24 21 21 21 18 15 14 15 16 17 19 19 20 20 20 22 24 23
38 35 33 32 27 26 23 28 24 25 23 21 23 21 21 21 21 23 25 24 20 19 20 20 17 14 18 17 21 21 22 20 22 24 25 26 25 21 19 19 18 12 11 14 16 17 15 21 21 20 19 20 19 19
35 29 26 25 25 20 25 22 25 23 23 22 19 17 17 18 20 15 14 13 16 16 17 16 14 16 16 13 15 16 18 19 18 16 15 17 17 20 23 21 19 17 18 17 15 14 14 16 19 17 16 16 16 15
27 24 25 20 23 21 20 19 20 20 18 18 15 13 13 14 8 10 10 13 10 11 11 11 12 12 12 10 14 14 13 16 16 16 15 14 14 12 13 14 17 17 17 11 14 15 13 12 13 13 14 14 15 15
20 20 21 19 19 20 20 18 18 17 18 15 12 10 9 7 6 9 13 12 10 10 9 14 14 12 14 14 14 14 14 12 14 15 13 11 12 12 6 10 10 12 14 14 11 12 12 11 11 11 14 14 19 17
19 16 17 19 19 18 17 18 18 18 15 13 11 10 10 8 10 13 14 12 12 9 7 8 11 14 16 15 13 11 8 4 8 9 9 7 7 8 8 8 8 12 12 10 10 11 10 12 13 13 13 14 11 11
19 18 17 17 17 18 17 17 17 17 16 14 13 10 12 13 14 14 13 11 7 5 6 6 6 8 10 7 3 6 4 -1 -0 3 7 8 4 1 1 2 5 15 8 7 7 6 7 8 10 11 12 14 15 13
18 20 21 17 18 17 16 17 16 16 16 16 15 13 12 15 11 11 12 9 4 11 11 11 7 -1 3 0 -0 -2 -3 2 4 1 1 4 2 4 -3 -3 -3 -2 -2 -1 14 16 11 14 16 16 17 13 12 12
18 22 18 16 16 14 12 11 13 12 13 13 14 13 14 13 10 7 8 6 8 8 2 -1 -3 0 2 2 1 1 -4 -7 -2 4 2 0 1 -2 -6 -4 -0 1 -3 -2 1 3 14 10 9 1 2 2 1 3
20 19 15 13 11 9 8 8 9 11 10 9 8 12 11 8 10 7 4 0 -1 1 3 -1 -3 -9 0 -3 -2 -1 2 -3 -7 -6 -6 -6 -7 -6 -2 1 2 -0 -2 0 3 5 5 4 -1 0 1 1 0 6
17 14 14 11 9 6 5 5 4 5 6 7 6 4 7 8 6 6 2 -1 -1 2 7 1 2 3 -3 -5 -6 -5 10 -4 -5 -5 -6 -4 -2 3 5 6 4 1 -0 5 4 3 1 -0 2 2 3 1 -0 -1
11 11 9 9 7 5 7 6 5 4 4 2 3 -0 -1 3 4 5 0 -4 2 3 3 -0 -4 -4 -3 -4 -5 -5 3 -7 0 14 16 17 18 18 15 8 11 11 9 6 4 2 -2 -4 -1 -1 -1 -2 -1 0

GFSWCAN_sfc_dewp_099.txt.gz
Dewpoint
44 43 43 44 44 44 44 42 43 45 46 46 50 51 52 51 48 38 37 39 32 30 31 32 31 24 23 23 21 24 23 24 26 20 18 18 18 21 19 21 22 22 22 21 22 20 16 34 32 26 31 33 34 36
45 44 43 44 43 43 45 43 44 46 46 45 48 52 52 51 45 40 33 36 36 33 31 33 32 32 32 29 27 26 20 25 26 23 18 18 20 14 17 14 22 23 26 25 23 22 32 34 33 32 34 34 34 36
45 45 43 43 43 43 45 43 45 46 46 45 47 52 51 51 48 40 36 37 36 32 31 31 30 31 30 32 32 26 27 29 28 26 22 22 19 21 14 16 17 21 26 27 27 27 26 32 35 37 37 37 36 36
45 45 45 43 43 44 45 45 45 45 45 45 48 53 51 51 49 41 38 39 35 32 28 29 29 29 31 32 32 31 30 31 30 27 21 20 22 24 20 21 20 21 22 21 22 22 29 30 27 26 26 34 36 37
45 45 45 45 44 44 46 45 46 45 45 46 49 51 50 49 45 43 42 41 38 32 28 27 28 29 32 30 30 31 30 28 26 23 21 21 25 22 22 22 20 22 21 19 18 22 23 24 24 29 28 29 35 37
45 45 45 45 44 44 46 45 46 46 45 46 51 50 49 46 44 37 32 37 38 35 30 25 28 30 30 31 32 32 31 29 27 25 24 25 26 22 18 18 21 23 23 25 25 28 30 31 30 30 28 31 34 36
45 45 45 45 43 44 46 45 46 45 46 51 50 49 47 44 41 35 30 36 39 36 29 24 24 28 29 29 30 30 31 29 27 25 24 25 24 21 17 19 21 24 28 30 32 32 31 30 28 31 31 29 34 37
45 45 45 45 44 45 45 45 45 46 50 48 47 46 44 43 41 36 39 41 38 32 30 21 23 27 29 27 27 33 28 28 26 26 26 24 25 25 21 23 23 24 30 32 33 33 31 31 31 30 30 33 36 38
45 45 45 45 45 45 45 45 48 48 47 46 45 44 42 40 36 36 40 38 37 31 24 21 20 17 28 30 29 31 28 19 28 22 25 24 23 20 22 22 23 29 30 30 33 33 30 29 29 32 33 34 36 37
45 44 45 45 45 45 45 44 48 46 45 44 41 37 33 38 42 40 34 30 30 29 28 22 25 24 28 28 26 25 26 23 16 23 26 24 22 24 24 25 28 30 31 33 33 29 30 28 30 33 36 37 37 37
44 45 44 44 44 45 42 47 46 45 43 39 35 33 39 42 37 33 28 24 24 23 27 26 25 25 28 23 24 25 19 23 19 18 19 14 19 22 26 28 30 31 32 34 35 35 35 34 35 35 36 36 35 36
44 44 44 44 44 43 46 45 44 41 39 38 37 39 38 34 31 27 22 23 22 19 26 24 24 26 28 29 25 27 16 20 13 24 22 16 21 21 28 29 30 31 33 34 35 36 36 35 35 35 35 35 35 35
44 44 44 44 42 44 46 44 43 42 39 39 36 33 32 29 21 21 17 16 19 24 27 28 26 27 27 28 25 23 21 19 27 24 19 19 22 25 25 28 31 34 34 35 36 37 36 36 36 35 35 35 35 34
44 44 44 41 45 45 44 44 42 41 40 34 31 26 27 18 23 22 24 23 25 27 28 28 27 26 28 23 25 14 22 27 22 16 15 20 23 27 28 32 34 31 32 34 35 35 35 35 34 33 32 31 32 29
44 44 42 44 46 45 43 43 42 40 37 32 30 25 25 26 29 26 23 26 27 30 28 27 26 26 23 21 22 23 24 19 20 16 20 22 25 27 27 31 33 31 31 31 32 33 34 34 32 30 23 18 19 22
40 43 40 42 46 44 44 43 41 38 33 29 24 26 28 28 28 23 25 28 30 29 28 27 21 16 16 19 20 18 14 12 17 20 22 25 26 26 27 30 34 32 31 31 31 28 25 21 21 21 20 19 15 16
43 39 44 46 45 45 43 39 37 32 30 26 27 29 28 28 27 26 29 29 30 26 21 20 14 14 20 12 13 18 15 18 20 25 25 26 27 26 26 27 32 34 32 32 31 30 30 29 31 30 27 21 21 17
40 45 45 45 43 39 36 35 32 30 26 27 26 28 30 31 30 30 30 30 28 24 22 16 22 15 14 13 16 20 23 19 23 25 26 28 27 26 26 27 29 32 33 32 31 31 30 31 30 31 31 31 29 28
44 44 44 44 40 35 32 31 31 23 24 28 30 30 31 32 33 32 31 30 29 27 23 17 14 13 20 22 19 14 26 24 30 27 27 27 28 27 27 23 28 31 30 26 26 28 29 29 29 28 28 29 28 28
45 44 44 42 39 33 29 29 32 25 24 27 29 28 29 29 31 30 29 28 26 20 17 15 17 20 23 24 23 24 30 30 27 27 27 27 27 20 24 24 26 26 25 24 23 27 23 23 24 24 24 24 24 24
40 40 39 36 32 31 28 26 25 26 27 25 27 28 27 30 30 30 27 28 24 17 17 22 23 24 24 24 27 28 28 27 27 27 27 23 26 23 20 18 17 23 22 19 18 18 22 21 21 19 14 23 24 25
38 38 34 35 30 28 26 28 26 28 26 25 26 27 26 26 26 26 27 27 22 21 22 24 22 22 23 24 25 22 27 27 26 28 29 28 24 20 20 21 19 18 16 15 15 16 17 18 18 18 18 18 21 19
38 36 33 32 27 26 23 29 25 26 23 21 24 22 22 22 21 24 23 24 22 19 19 20 17 14 18 16 21 21 21 20 22 24 25 25 24 20 18 19 18 13 11 14 15 15 13 20 19 18 16 16 15 16
35 29 27 25 25 20 25 22 25 23 23 22 20 17 18 19 21 18 18 20 18 17 18 16 14 16 15 13 15 16 17 18 18 15 14 17 16 19 22 21 22 17 16 15 13 13 13 14 18 13 12 11 11 13
29 24 26 20 24 22 19 19 20 21 19 19 17 15 15 17 16 15 16 19 14 14 13 12 14 13 13 9 13 14 13 16 17 16 13 12 12 12 12 14 18 17 15 11 14 14 12 9 10 9 10 10 11 13
20 20 22 21 20 21 21 19 19 19 19 17 14 12 14 15 13 14 16 15 13 13 12 16 15 13 15 13 14 13 15 12 14 15 11 9 11 12 8 10 9 12 13 12 9 10 10 9 9 8 10 12 17 13
20 17 17 19 20 20 20 21 21 21 18 16 13 12 14 14 11 14 15 14 13 10 7 12 15 16 17 14 13 12 8 4 7 9 8 6 6 5 6 7 6 11 10 8 8 8 8 8 8 7 8 8 8 9
19 18 16 17 17 18 18 19 19 19 17 15 15 13 14 13 15 16 13 9 7 7 9 7 7 12 14 9 7 10 3 0 3 4 8 6 1 -2 -2 0 5 16 5 4 4 3 5 6 7 8 8 8 10 7
19 20 22 18 18 19 18 19 18 17 16 16 16 14 14 15 12 10 12 9 5 11 13 11 6 5 5 3 2 -1 -2 6 6 1 0 3 1 3 -4 -5 -5 -4 -4 -2 13 15 10 14 16 17 16 10 7 3
20 23 20 18 19 16 12 12 14 14 14 14 15 14 14 13 10 7 8 7 10 9 6 7 7 5 6 7 2 1 -5 -7 -3 5 3 1 1 -2 -7 -6 -3 -3 -5 -3 -0 -0 14 8 7 1 2 1 -0 1
21 21 16 14 11 10 10 9 11 11 11 10 9 12 11 9 11 9 7 5 4 4 7 3 -3 -8 3 -2 -1 1 3 -3 -8 -7 -7 -6 -7 -7 -5 -2 -1 -3 -4 -1 0 2 2 -0 -3 -1 -0 -1 -2 3
18 15 15 12 10 10 9 10 10 10 9 10 8 7 7 9 9 10 4 2 1 2 8 5 7 5 -3 -7 -7 -5 12 -3 -6 -6 -5 -5 -4 1 3 3 0 2 2 4 5 0 -3 -5 -5 -4 -1 -3 -3 -4
12 12 8 11 10 6 7 8 6 6 6 3 2 -0 -1 5 7 8 2 -1 4 6 6 3 -4 -1 -1 -3 -4 -3 3 -8 1 13 15 16 17 18 13 6 5 6 5 4 -1 -2 -4 -6 -5 -4 -4 -4 -4 -3

GFSWCAN_sfc_dewp_102.txt.gz
Dewpoint
42 42 43 44 43 43 43 44 45 45 45 46 46 47 51 51 52 40 36 38 33 31 31 32 31 24 24 23 21 24 23 25 25 20 18 17 18 21 18 20 20 20 20 20 20 18 13 32 31 25 30 33 34 35
42 42 44 44 43 43 43 44 44 46 45 47 46 46 49 52 52 41 33 36 36 33 31 32 31 31 31 29 27 25 18 24 26 22 18 18 20 13 16 14 22 21 23 21 22 21 27 35 31 32 34 34 34 35
44 43 44 45 44 44 43 44 44 46 46 47 45 46 49 52 48 40 35 36 36 32 30 30 30 31 31 31 32 25 26 28 27 24 21 21 19 21 15 16 15 19 26 27 26 26 27 29 34 33 29 32 35 37
45 45 45 46 45 44 44 44 44 45 46 45 45 47 52 51 47 40 37 38 35 32 28 27 30 30 32 31 31 30 29 30 28 26 21 20 21 23 19 19 20 20 23 22 22 22 27 30 26 27 29 29 30 35
45 45 46 46 45 45 45 45 45 46 46 46 46 47 52 50 46 42 41 40 37 32 27 26 28 30 31 31 31 30 29 27 25 23 21 20 24 22 21 21 19 22 21 20 18 21 22 24 25 30 31 30 29 32
45 45 45 45 45 45 45 45 45 46 46 46 46 47 51 49 45 38 33 37 37 34 30 24 28 30 30 30 31 31 30 28 26 25 24 25 25 22 18 17 20 23 22 21 23 27 29 30 31 31 29 31 30 29
45 45 45 45 45 45 46 45 45 46 46 46 46 47 51 49 44 37 32 36 37 35 29 25 26 29 29 29 30 29 29 28 27 25 24 24 24 21 17 18 20 22 27 28 31 30 28 28 28 30 31 31 32 34
45 45 45 45 45 45 46 45 45 46 46 46 46 49 47 45 42 37 38 40 37 31 30 23 23 27 29 27 26 30 26 26 26 26 26 23 25 24 20 22 22 24 29 29 31 33 32 31 29 30 31 33 34 36
46 46 46 46 45 46 46 45 46 46 45 46 48 45 42 40 37 37 39 37 37 31 26 23 22 19 28 29 28 28 26 19 28 22 24 24 22 20 22 22 23 24 28 29 31 33 31 30 29 31 34 36 36 37
45 46 46 46 45 45 45 45 46 43 48 45 42 38 34 38 42 41 35 31 32 31 28 23 26 24 27 27 24 24 26 21 16 22 26 24 22 23 23 23 23 29 30 32 32 30 29 30 29 32 35 36 36 36
46 46 46 45 45 45 45 45 44 47 45 39 35 33 39 42 38 33 29 27 26 25 27 25 25 25 28 22 22 25 20 22 8 17 17 13 17 21 24 25 27 30 31 33 34 35 35 35 34 35 35 35 35 35
46 45 45 45 45 44 42 45 46 42 40 38 38 40 39 36 32 29 25 24 22 18 25 24 24 25 27 28 25 27 17 17 10 22 21 16 19 20 25 27 29 29 30 32 34 35 36 36 35 35 35 35 35 35
45 44 44 44 44 41 47 46 44 43 40 38 36 33 33 28 19 18 15 16 16 25 27 27 26 27 27 27 25 23 16 18 24 23 18 17 21 23 23 28 29 32 32 34 34 37 37 36 36 35 35 35 35 34
44 44 44 43 41 43 47 45 43 40 39 34 30 26 26 21 21 21 22 23 26 28 28 27 26 25 27 22 23 15 21 24 20 15 14 18 22 25 26 29 31 30 32 34 35 35 35 35 34 32 31 29 29 28
44 43 42 40 44 46 45 43 43 40 37 31 29 22 24 25 28 24 25 28 29 29 27 26 25 25 22 20 22 22 23 19 18 15 19 20 23 26 27 31 31 31 32 32 32 33 34 33 31 28 23 19 16 17
43 41 41 44 46 45 44 43 41 38 33 28 23 25 28 26 26 20 26 28 29 28 27 26 21 16 17 21 22 15 14 12 16 19 21 22 25 26 27 31 31 31 31 31 31 29 26 22 21 24 25 20 17 14
40 38 45 45 45 45 43 39 37 32 30 26 27 29 26 26 27 27 28 28 29 26 21 20 14 14 20 13 14 18 15 18 19 19 26 25 27 26 26 28 33 31 31 32 32 30 29 29 29 31 30 29 24 23
38 41 43 45 43 39 35 34 32 30 25 27 26 28 30 31 29 29 29 29 27 24 22 17 21 14 15 13 15 20 19 18 22 25 26 26 26 25 27 28 31 32 33 32 31 31 30 30 30 31 31 31 30 30
42 42 45 43 40 35 32 31 31 24 24 28 29 30 31 32 32 31 29 29 28 27 24 20 16 13 18 20 19 13 26 26 30 27 27 26 26 26 27 24 28 31 31 28 29 29 29 28 28 27 27 26 25 27
45 44 43 41 39 33 29 28 32 26 24 27 29 28 29 30 30 29 28 28 27 23 20 17 17 19 22 23 22 23 25 27 27 27 27 27 26 19 24 24 28 30 29 27 25 27 25 23 22 23 23 23 23 23
41 40 39 36 32 31 28 26 25 26 27 25 27 29 28 30 30 27 26 28 25 18 19 21 22 24 23 23 27 28 28 27 27 27 27 23 26 23 19 18 17 24 23 22 19 18 22 21 20 18 13 22 23 23
38 39 35 35 30 28 26 27 24 27 26 25 26 28 27 26 26 27 25 22 20 23 23 24 22 22 22 24 25 22 26 26 26 28 29 29 24 21 25 23 23 18 19 18 16 15 16 16 17 17 16 17 20 18
38 36 33 32 27 26 23 28 24 26 24 22 25 23 22 22 21 24 20 21 23 22 22 21 17 14 18 16 21 22 22 21 23 24 26 24 23 19 17 19 18 15 14 16 15 14 12 19 18 16 14 14 13 14
35 30 27 26 25 20 25 22 25 24 24 22 20 17 19 20 22 21 19 21 23 18 20 18 18 18 17 14 15 15 16 17 17 14 12 17 17 19 22 21 22 19 17 14 12 13 12 13 17 12 10 9 9 9
30 25 26 21 24 21 20 20 21 22 19 20 18 16 17 19 19 16 18 22 16 14 16 15 16 17 19 11 13 13 11 15 16 15 12 12 11 11 12 14 17 16 15 11 13 13 10 8 8 8 8 8 8 9
21 20 22 21 20 20 20 18 19 19 19 18 16 14 16 17 17 17 19 19 15 16 15 20 18 16 16 15 14 12 14 11 14 16 11 9 11 12 9 11 10 11 12 11 9 9 9 7 7 4 7 9 15 10
19 15 18 20 22 21 20 21 22 22 19 17 14 13 16 17 16 17 18 17 17 15 14 16 17 20 18 14 13 11 8 5 9 11 8 5 4 3 6 7 7 11 9 6 7 7 7 7 5 4 5 5 3 5
19 18 17 18 19 20 19 20 20 21 20 18 18 16 17 17 17 17 16 12 9 9 10 9 10 15 15 11 12 10 6 3 6 5 7 6 2 -2 -2 0 5 16 3 3 3 2 4 4 4 6 7 7 8 3
17 20 21 18 19 19 18 20 20 18 18 19 20 17 16 15 13 13 13 12 11 14 14 12 6 7 7 5 3 2 8 8 6 2 2 3 1 3 -5 -5 -5 -5 -5 -2 14 14 8 13 15 17 11 8 6 1
19 23 20 19 19 16 13 13 15 15 14 15 15 15 14 14 12 10 11 11 12 13 9 10 8 9 10 10 6 3 -2 -6 -3 5 4 2 2 -2 -7 -6 -4 -6 -7 -4 -2 -2 14 7 6 -1 -1 -0 -0 1
22 21 16 15 12 11 11 11 14 15 13 13 12 15 13 12 12 10 9 8 7 7 9 6 2 -0 8 6 3 4 3 -3 -9 -7 -3 -5 -7 -6 -5 -5 -5 -5 -3 -2 -2 -1 -1 -3 -5 -6 -3 -5 -4 0
18 16 16 13 11 11 12 13 13 12 12 12 10 10 10 12 12 12 8 7 8 8 10 9 9 6 -2 -6 -6 -1 12 2 -3 -6 -5 -4 -3 -2 -2 -1 -3 -2 0 1 -0 -3 -5 -7 -7 -6 -4 -7 -6 -5
13 12 11 11 11 10 10 13 9 9 10 9 8 5 6 8 10 11 4 2 5 7 8 3 -3 3 0 -0 0 4 5 -6 0 13 15 16 17 16 12 8 2 2 1 0 -1 -4 -6 -10 -10 -11 -10 -8 -5 -3

GFSWCAN_sfc_dewp_105.txt.gz
Dewpoint
48 46 44 42 42 43 44 44 44 44 44 45 46 46 48 50 48 43 38 38 33 30 30 31 31 23 24 23 21 23 23 24 24 21 18 18 18 21 18 19 19 18 16 17 19 17 11 31 30 26 28 33 33 34
47 45 43 42 42 43 43 44 44 45 44 45 46 46 47 49 46 41 36 36 36 32 30 31 30 31 31 29 26 25 18 24 25 21 18 18 20 13 16 14 21 20 21 20 21 20 23 34 31 33 34 35 34 35
45 43 42 43 43 43 43 44 44 44 44 44 45 45 46 48 51 41 36 37 35 31 29 29 28 30 31 31 32 24 26 26 27 24 21 21 18 20 15 16 16 20 26 27 26 25 28 28 34 32 28 28 30 33
44 42 43 43 44 44 44 44 44 44 44 44 45 44 46 48 52 42 35 38 34 31 27 27 30 30 32 32 31 29 28 29 27 25 20 20 20 23 18 17 19 21 25 24 23 23 24 30 27 27 29 31 31 30
43 43 43 44 45 45 44 44 45 45 44 44 45 46 47 49 48 42 41 39 38 32 27 28 29 30 31 31 30 29 28 26 25 22 21 20 24 22 21 20 19 22 22 21 18 21 20 23 26 31 31 30 30 30
44 45 45 46 46 46 45 45 46 46 46 46 47 47 46 49 44 39 34 37 36 34 30 25 29 29 29 30 30 30 29 27 26 24 23 24 25 21 18 17 19 22 23 21 20 24 27 29 30 31 29 30 31 31
45 45 45 45 45 45 45 45 46 46 46 46 47 47 47 49 43 36 33 36 37 35 30 25 26 28 28 29 29 28 28 27 26 25 23 23 23 20 17 18 19 22 23 28 30 30 27 28 27 29 30 30 32 32
45 45 45 45 45 45 46 45 46 46 46 46 47 47 46 48 42 38 37 40 36 31 30 23 25 26 29 26 25 29 25 25 26 26 25 23 25 23 20 21 21 23 28 29 30 32 31 30 28 30 31 34 36 35
45 45 45 45 46 46 46 45 46 46 46 46 45 44 46 42 38 39 40 37 36 31 24 23 22 22 29 28 28 27 26 19 27 22 24 24 22 20 21 21 22 25 28 28 30 30 32 29 28 30 32 36 36 36
45 45 46 46 46 46 46 46 46 46 46 46 45 39 34 39 43 42 37 32 32 31 27 23 26 24 27 26 25 23 26 21 15 22 26 23 21 23 23 23 23 24 28 31 30 29 29 28 29 31 35 36 36 36
46 46 46 46 46 46 46 46 46 45 44 42 34 33 39 43 38 35 31 30 29 25 25 25 25 25 28 22 22 24 21 20 7 16 17 12 16 20 23 23 25 28 30 31 31 33 34 34 32 31 35 36 36 35
46 46 47 47 46 46 46 45 45 43 41 38 38 40 40 36 32 30 28 25 24 23 24 23 24 26 27 28 24 25 16 16 10 21 20 16 19 18 22 24 27 28 29 31 33 32 35 36 35 35 35 35 35 35
46 46 46 46 46 46 45 45 44 44 42 40 37 33 34 31 25 23 19 17 16 24 25 26 26 28 27 26 25 21 14 16 23 21 18 17 19 22 21 27 27 29 31 32 33 33 35 36 36 36 35 35 35 33
45 45 45 45 45 45 44 44 44 43 40 35 31 27 27 23 24 21 21 21 24 27 27 27 27 25 26 22 23 14 20 23 19 15 13 17 21 24 25 28 31 29 32 33 32 33 35 36 35 33 31 28 25 23
44 44 44 44 44 44 44 45 44 42 37 30 29 24 25 24 25 20 21 27 29 29 28 27 25 24 20 20 22 23 20 18 18 15 19 19 22 26 26 30 29 30 30 33 34 34 34 33 31 27 22 21 18 16
43 42 41 44 43 44 44 44 41 38 32 27 24 24 27 26 25 22 26 28 30 28 27 26 21 17 16 20 20 16 13 12 16 19 21 20 24 27 27 32 30 30 31 31 31 28 26 21 20 23 26 26 19 16
40 38 44 45 45 44 42 39 37 32 30 26 26 29 25 25 25 26 28 29 28 26 22 21 14 14 20 14 14 19 15 18 19 19 22 24 26 27 29 31 29 29 30 32 32 30 29 28 26 28 29 30 30 29
38 42 45 45 42 39 35 34 32 30 25 25 27 28 31 30 28 29 29 29 27 25 23 18 22 17 16 14 16 20 20 21 21 27 24 25 26 26 29 30 31 31 27 31 31 31 30 30 29 29 27 29 26 25
41 44 43 43 40 35 32 30 31 23 24 28 30 31 32 31 31 30 29 28 27 27 23 18 15 16 19 20 18 15 25 29 28 26 26 25 25 26 27 28 31 31 31 30 29 28 28 28 28 27 25 25 23 22
44 43 43 41 38 32 28 28 32 25 24 27 29 29 30 29 29 28 28 27 26 22 19 16 17 19 21 23 22 23 29 28 29 27 26 25 25 21 24 25 30 30 29 28 27 28 26 24 22 22 22 23 22 22
41 41 39 36 32 31 28 26 25 27 27 25 27 29 28 31 30 29 28 29 27 19 20 22 21 23 23 24 27 28 27 28 27 28 27 25 26 22 19 17 25 27 27 23 21 20 24 20 19 17 15 21 21 21
39 40 35 35 30 28 26 26 23 27 25 25 26 28 27 27 28 28 27 27 23 26 24 24 24 23 24 25 26 22 26 26 26 28 30 30 26 26 26 23 23 24 20 18 17 17 15 16 16 15 15 15 18 16
39 36 33 32 27 25 22 28 22 26 24 22 25 24 22 22 23 26 28 27 26 26 25 23 20 18 22 19 23 24 23 23 24 25 25 23 22 18 17 22 24 20 14 16 15 15 12 19 18 15 13 13 12 12
35 30 28 26 25 19 26 22 25 23 24 23 21 17 19 21 24 24 21 24 26 22 22 21 22 21 20 20 19 17 17 19 18 14 13 20 18 19 21 21 20 17 19 17 17 13 11 12 16 11 9 8 7 8
31 25 26 21 22 21 18 19 20 21 18 20 18 16 18 21 21 18 20 24 21 21 21 20 22 23 24 19 15 15 13 16 19 17 11 10 11 10 13 15 16 14 13 10 13 12 9 7 7 7 7 6 6 6
20 17 20 21 20 19 19 17 17 18 19 17 16 15 17 19 18 18 20 22 18 18 20 22 22 20 19 18 17 14 15 10 15 16 10 10 12 14 9 11 9 10 10 10 9 9 8 6 5 3 5 7 14 6
18 16 19 21 21 21 20 20 22 22 20 17 15 15 18 19 19 19 18 17 19 17 18 22 22 23 19 14 13 10 8 5 9 12 9 7 4 3 7 8 8 10 8 6 7 7 6 5 4 3 2 2 1 3
18 18 18 19 19 20 19 19 20 22 21 20 19 17 20 22 18 14 13 12 12 12 13 12 14 18 16 14 12 10 8 7 7 8 9 7 2 -2 -1 4 8 16 3 2 2 1 3 3 3 4 4 5 5 2
18 20 23 19 19 19 18 20 20 19 19 21 22 20 19 15 11 10 12 12 12 14 15 13 9 11 9 7 6 9 10 11 10 5 4 4 1 3 -6 -6 -5 -6 -6 -2 14 12 9 11 13 13 4 1 -0 -3
20 23 20 19 19 16 12 13 15 15 16 17 17 15 14 13 11 10 11 11 14 15 15 15 12 14 12 12 9 6 -0 -2 -1 8 7 4 5 -0 -7 -5 -4 -6 -8 -4 -2 -3 13 4 4 -3 -4 -4 -4 -3
22 20 15 14 11 11 11 13 15 16 15 14 13 15 13 10 12 10 10 11 12 12 12 11 10 12 13 12 11 10 7 2 -7 -6 1 3 1 -1 -4 -6 -6 -6 -5 -4 -4 -3 -4 -4 -7 -9 -8 -9 -7 -2
17 16 15 12 11 12 13 15 15 14 13 14 12 12 11 12 12 12 9 10 11 12 14 13 12 10 6 4 5 5 14 6 1 2 5 3 -0 -2 -3 -4 -6 -3 -2 -2 -4 -5 -7 -9 -9 -10 -9 -11 -8 -6
14 14 13 13 12 12 13 15 12 12 13 12 9 7 8 10 12 13 6 7 11 14 14 11 7 7 6 5 6 10 8 4 8 15 17 17 18 13 4 1 1 1 -0 -1 -5 -7 -9 -11 -12 -13 -12 -11 -7 -5

GFSWCAN_sfc_dewp_108.txt.gz
Dewpoint
53 52 51 50 47 45 43 43 43 43 44 44 44 46 47 49 50 45 40 40 35 30 30 31 30 23 24 24 21 25 23 25 25 25 26 24 20 22 21 21 21 18 19 20 19 20 13 25 30 26 30 34 34 35
52 52 51 49 47 44 43 43 43 44 44 44 44 46 47 48 47 42 36 37 36 32 30 31 30 31 31 30 27 27 20 25 27 23 26 26 23 24 22 14 23 20 20 21 21 18 24 34 32 33 35 34 32 31
52 51 50 49 46 43 43 42 43 44 44 44 44 45 45 47 48 41 37 37 36 32 30 30 28 30 31 31 32 26 26 27 27 29 30 27 24 24 19 19 22 25 26 25 27 26 26 29 34 34 30 28 29 29
51 50 49 47 44 43 44 43 43 44 44 44 44 45 46 47 47 41 39 38 35 30 29 27 30 30 32 32 32 30 29 29 29 30 30 27 21 25 21 19 20 22 27 26 27 27 26 27 30 30 28 30 30 30
50 49 48 46 43 43 43 44 45 45 45 45 45 46 47 47 48 43 41 39 37 34 28 28 29 30 31 31 30 31 30 28 30 28 27 24 25 24 23 22 20 22 24 23 17 23 21 27 27 29 29 29 29 30
49 48 46 44 44 44 45 45 46 45 46 46 46 46 47 46 48 43 37 39 39 36 33 28 30 29 30 30 30 30 30 29 30 29 27 27 26 25 22 20 19 22 24 23 20 23 25 29 30 30 28 29 30 31
47 45 44 45 45 46 45 46 46 46 46 46 46 47 46 47 46 41 36 38 38 36 32 28 28 29 29 29 31 30 30 31 31 29 28 26 26 28 25 19 19 21 23 25 27 30 29 29 27 28 30 31 33 35
45 44 45 45 46 46 46 46 46 46 46 46 46 47 46 46 44 40 39 39 37 33 32 28 27 27 29 27 27 31 29 29 30 29 28 25 26 25 22 22 21 22 24 28 30 31 30 30 29 30 31 33 35 36
44 45 45 46 46 46 46 46 46 46 46 46 46 46 44 43 39 39 41 40 38 34 30 28 27 27 29 29 30 30 28 26 29 26 26 26 22 23 22 21 22 23 27 27 30 31 31 31 28 30 31 33 35 36
45 45 45 45 45 45 45 46 46 46 46 46 44 39 33 39 44 42 39 35 35 35 30 26 27 26 28 27 27 26 28 26 24 23 27 24 22 23 23 24 23 25 28 30 29 30 32 29 29 29 33 34 36 36
44 44 45 45 45 45 45 46 46 46 46 42 37 34 39 44 40 36 33 33 32 30 27 25 26 25 29 26 26 26 25 25 22 23 23 23 21 25 25 25 24 27 30 31 31 31 30 28 29 30 31 35 36 35
45 45 46 46 46 46 46 46 46 44 42 38 38 41 41 37 33 31 30 33 31 27 25 25 26 29 28 29 27 25 24 22 20 24 22 20 24 25 25 24 25 25 29 31 33 33 33 33 34 32 32 33 33 34
45 45 46 46 46 46 46 46 46 44 42 40 38 33 32 32 28 27 24 25 28 26 27 28 28 28 29 29 27 25 23 21 24 22 19 23 22 23 26 27 29 30 31 33 32 32 33 34 34 35 33 34 34 32
45 46 46 46 47 47 46 46 45 43 39 34 31 28 29 27 28 28 27 26 27 28 28 29 27 28 27 27 26 23 22 22 20 18 18 20 23 25 26 28 30 31 32 33 32 33 34 34 35 36 33 30 23 19
45 46 46 46 46 46 46 45 45 41 37 32 32 29 29 28 27 26 28 28 30 29 29 28 29 26 26 25 23 23 22 20 19 19 23 26 25 28 28 30 32 33 33 32 32 31 32 35 32 31 24 22 20 18
44 45 43 45 45 45 45 44 42 38 33 30 28 27 27 26 25 27 28 29 30 29 30 30 26 24 23 24 22 22 19 17 24 27 28 24 27 29 31 32 32 31 31 33 34 33 31 28 23 21 28 29 27 19
41 40 45 44 44 45 44 39 37 33 32 28 27 29 28 28 27 27 28 28 28 27 27 26 22 22 24 22 20 22 21 26 27 26 25 26 29 30 32 33 32 31 32 34 33 30 28 27 27 27 28 30 31 32
39 43 45 45 44 41 35 34 32 31 26 28 27 29 30 29 28 29 30 29 29 27 27 26 25 22 21 19 21 26 26 25 24 26 26 27 29 31 32 32 31 32 32 32 30 32 31 31 30 29 30 29 28 27
41 43 45 44 40 36 32 31 32 26 27 30 31 32 31 30 30 30 29 28 28 28 26 26 23 23 21 24 26 25 26 28 27 27 26 27 29 31 31 32 32 31 31 31 30 29 29 29 28 28 27 26 24 24
44 44 43 41 38 33 30 29 32 28 27 28 30 30 30 29 29 28 27 28 28 28 26 23 20 19 21 24 25 25 30 30 28 27 27 27 28 29 31 31 30 31 30 30 29 29 28 26 26 25 24 24 23 22
42 41 39 36 33 31 29 28 27 28 29 27 29 30 29 31 29 29 29 29 28 26 24 23 21 23 26 26 27 30 30 30 29 29 29 28 27 28 27 30 30 29 28 27 27 27 28 25 21 21 24 21 21 22
39 40 35 35 30 29 26 27 27 29 26 27 28 29 28 28 29 30 30 30 27 29 26 24 25 27 28 28 28 28 29 29 30 31 32 30 27 27 26 26 28 27 27 28 27 26 22 19 20 20 21 20 19 18
39 36 33 32 27 26 23 28 23 27 26 24 27 24 24 26 27 28 30 31 30 28 26 25 25 25 26 25 27 26 27 28 28 29 29 28 29 28 29 28 28 28 26 25 24 24 22 20 23 20 17 16 15 14
36 31 29 27 26 21 26 21 25 24 25 24 22 19 21 23 25 27 26 27 28 26 25 24 25 24 26 27 26 25 23 24 23 22 24 26 26 24 25 25 26 23 22 20 20 20 19 19 19 16 15 14 13 13
30 26 27 21 23 19 17 20 21 20 19 21 19 18 19 22 23 22 23 26 25 25 25 25 28 30 30 25 21 21 18 24 25 24 19 20 21 20 20 18 17 16 17 21 19 18 17 15 14 13 12 12 14 15
22 22 24 17 21 17 18 17 20 19 19 19 19 18 19 21 20 21 22 24 22 24 24 26 27 25 23 24 22 21 22 19 22 22 19 18 21 24 22 21 19 17 13 15 18 16 14 12 12 11 12 12 15 12
19 15 19 22 21 21 20 21 22 22 20 18 17 16 18 19 21 21 18 18 20 20 25 27 27 28 25 19 16 16 15 16 20 19 13 11 10 12 20 21 18 16 12 13 14 13 13 12 12 12 11 12 11 11
16 17 17 18 17 18 18 20 21 21 22 20 19 18 21 23 22 16 15 14 14 17 18 17 20 22 20 18 15 13 12 12 12 12 12 11 8 9 11 15 16 17 13 13 12 12 13 13 12 12 11 11 10 9
15 20 21 16 18 18 17 19 21 20 20 21 23 21 20 15 12 12 13 13 15 18 18 16 14 15 14 13 13 14 14 15 16 14 13 12 11 12 6 8 9 8 10 13 17 15 12 13 14 13 9 7 6 4
21 24 21 20 19 15 12 13 15 16 17 18 19 17 15 13 12 11 13 15 18 19 18 17 16 18 16 15 12 11 9 8 10 16 14 13 13 10 7 7 8 6 6 9 10 10 16 10 9 5 4 4 4 6
22 21 16 14 11 11 12 14 17 17 17 16 16 17 14 13 12 12 13 14 15 16 16 16 17 18 16 16 16 14 14 10 5 4 8 9 9 8 8 7 7 5 6 7 7 8 7 5 3 2 2 0 0 3
18 16 15 12 11 13 14 16 16 16 16 16 14 14 13 15 15 12 11 14 15 16 17 17 16 14 15 15 14 16 17 9 8 10 9 9 10 9 7 6 4 5 6 6 6 5 2 2 2 1 1 -0 -1 -0
15 15 14 13 11 11 14 16 15 15 16 15 13 10 11 12 15 13 8 9 14 17 16 14 12 11 11 11 12 13 12 9 11 18 19 19 17 13 7 6 6 6 6 6 4 2 0 -2 -0 -2 -2 -4 -1 0

GFSWCAN_sfc_dewp_111.txt.gz
Dewpoint
53 53 53 53 52 51 49 46 43 44 44 44 45 46 45 47 49 49 45 46 40 34 31 30 30 24 24 24 20 26 24 26 23 23 25 23 17 20 19 19 19 18 19 19 18 19 14 27 30 27 30 33 33 34
52 53 53 53 52 50 49 46 44 44 45 44 45 45 45 47 46 45 41 45 42 36 32 31 31 31 31 30 27 27 24 24 25 22 28 29 22 27 21 12 22 18 17 20 19 19 26 28 31 32 33 32 33 31
52 52 52 52 52 50 48 46 44 44 45 45 45 45 45 47 49 42 40 40 38 34 32 31 29 30 31 31 32 28 25 27 27 32 33 27 25 24 17 18 19 24 24 22 25 23 24 30 33 33 34 30 29 29
52 52 52 52 51 50 48 46 44 44 44 44 45 45 45 46 47 43 39 38 38 33 32 28 31 30 32 32 32 31 29 30 30 31 33 28 22 25 20 20 19 20 25 23 23 24 27 28 28 32 30 29 29 29
51 51 52 51 51 49 47 45 45 45 44 45 45 46 46 47 48 47 42 40 38 33 31 28 30 30 31 31 32 31 30 30 31 30 29 25 25 24 22 22 18 20 20 21 14 22 23 26 29 29 28 28 28 28
51 51 51 51 50 49 46 45 45 45 46 46 46 47 47 48 46 44 40 42 40 36 36 31 30 29 30 31 30 30 31 30 32 30 27 26 27 27 24 19 18 18 19 22 20 23 24 26 28 30 28 27 28 29
51 51 51 50 49 47 45 46 46 46 46 46 47 47 47 46 47 42 39 41 40 37 33 32 30 30 29 30 30 30 31 32 32 31 29 27 26 28 28 18 14 19 21 24 22 27 28 29 27 28 28 29 31 33
51 51 50 49 48 46 45 46 46 46 46 46 47 47 47 46 44 42 40 41 40 33 32 33 30 28 30 27 28 31 30 31 31 29 29 26 26 26 23 22 19 20 22 24 26 27 28 29 28 28 30 31 33 33
50 50 49 48 46 45 46 46 46 47 47 46 47 46 45 43 40 40 42 41 41 35 34 32 30 30 30 28 30 30 30 28 30 27 26 26 23 25 23 20 21 21 23 25 28 29 30 30 28 29 30 31 32 33
49 48 47 45 45 45 46 46 46 46 46 46 44 40 36 40 43 42 38 34 37 38 35 27 29 27 28 27 28 28 28 27 27 24 28 25 23 24 23 24 23 22 25 27 28 29 30 31 29 28 30 32 32 34
47 46 45 45 45 46 46 46 46 46 45 43 39 36 42 44 41 38 32 32 34 33 31 27 27 27 29 27 28 28 29 28 25 26 24 26 24 28 25 25 24 24 27 28 29 29 31 30 28 28 30 32 34 34
45 45 45 45 45 45 45 45 46 44 43 41 39 42 41 38 36 32 30 34 33 29 28 27 28 30 29 30 28 26 28 25 23 25 23 22 29 31 26 24 24 25 28 29 30 30 29 28 29 30 31 31 32 33
45 45 45 45 45 45 46 46 46 45 43 41 39 34 32 32 28 28 27 31 30 31 30 31 29 29 29 31 28 27 25 24 24 23 21 26 27 26 29 26 24 27 29 31 32 32 32 32 33 33 32 33 33 32
44 44 44 45 46 46 46 46 46 45 40 35 32 29 28 29 29 32 31 33 32 32 30 29 29 30 28 29 27 27 24 24 22 20 21 22 26 23 27 28 26 27 30 32 32 32 32 34 34 35 34 33 31 24
44 45 45 45 46 46 46 46 46 43 38 32 32 29 30 32 32 32 35 32 31 30 29 29 31 28 29 27 26 25 22 21 21 22 28 31 27 27 27 29 32 32 32 32 31 32 33 32 34 33 31 25 21 19
45 45 44 45 46 46 46 46 44 40 34 33 32 30 30 32 29 29 32 32 32 30 30 34 30 28 27 29 23 24 22 21 28 32 33 27 27 27 29 33 34 33 33 33 33 31 31 31 31 30 24 27 28 23
45 41 44 46 47 47 46 41 35 32 32 31 30 31 32 33 33 31 29 29 30 29 27 32 27 26 27 25 23 25 25 30 36 31 29 28 29 29 31 33 33 33 33 35 34 32 31 29 25 26 26 27 30 31
40 44 46 47 45 39 35 34 32 32 29 31 29 30 31 32 30 29 29 29 31 29 31 33 28 24 25 23 24 29 30 30 30 29 28 30 31 32 33 33 33 33 33 33 33 32 32 31 30 29 31 31 29 29
43 45 45 44 40 36 32 32 33 29 30 31 32 33 31 31 32 30 29 29 31 31 31 30 29 29 25 28 33 33 31 29 25 26 27 29 31 32 32 32 32 33 33 32 31 30 30 30 30 29 29 28 25 24
45 45 43 42 39 35 31 30 35 31 28 30 32 31 32 31 30 30 29 29 30 32 29 28 24 22 22 27 29 29 30 29 27 26 27 29 32 33 32 32 31 32 31 30 30 30 29 28 27 27 26 24 22 20
43 43 41 37 33 33 32 31 30 31 30 29 31 31 31 32 30 30 30 31 30 31 30 25 22 23 27 27 26 31 30 28 27 26 27 29 31 31 31 32 32 31 29 29 28 28 28 27 24 22 26 23 21 21
38 39 35 35 32 30 28 29 30 31 30 30 29 31 29 29 29 30 31 30 31 30 28 25 26 27 28 28 29 31 31 31 31 31 31 30 29 29 30 30 30 30 29 29 28 28 28 25 23 21 20 21 20 18
39 37 34 33 28 27 25 30 27 28 27 26 29 27 27 29 30 32 30 32 33 31 28 27 28 29 29 28 29 29 30 31 30 30 30 29 30 30 30 29 30 29 28 28 29 28 27 20 22 21 19 18 16 16
36 33 31 29 27 24 28 25 27 27 28 27 25 22 24 25 27 29 28 30 32 28 26 27 28 28 29 30 29 27 26 28 27 28 29 29 29 29 29 28 29 30 27 28 27 24 22 21 22 19 17 17 16 15
30 27 29 22 26 23 21 23 23 23 22 23 22 21 22 24 26 26 25 29 28 29 28 28 30 30 31 29 26 24 23 28 28 26 23 27 25 24 24 23 21 21 20 24 21 21 20 19 17 16 14 14 16 17
25 24 25 24 23 23 22 20 21 21 21 21 21 21 22 23 23 24 26 29 28 29 28 29 31 30 28 29 26 24 24 24 27 25 22 25 26 27 25 23 21 19 16 19 22 20 18 17 15 14 14 14 15 13
20 20 22 23 22 22 22 22 23 23 20 19 19 18 21 20 22 25 20 20 22 24 29 32 32 31 27 23 21 21 21 21 24 22 18 17 17 19 26 25 23 18 16 18 19 18 16 15 14 14 14 14 13 12
22 21 21 22 21 22 21 21 22 22 24 22 21 20 21 24 25 18 17 16 17 21 23 24 27 28 27 23 19 16 16 16 16 15 15 15 14 16 18 18 17 19 17 17 16 16 16 16 15 14 13 13 11 10
20 22 22 18 19 19 19 21 23 22 21 22 25 24 23 15 15 15 15 15 18 21 21 20 18 19 18 18 18 18 18 20 21 20 19 15 15 14 14 15 15 16 18 18 19 17 13 15 15 13 10 9 8 8
22 25 22 18 14 15 15 15 17 18 18 19 19 18 16 14 14 14 15 17 19 22 22 20 19 20 18 17 15 15 13 14 18 23 19 17 18 13 12 13 12 12 14 15 15 17 18 13 12 9 8 8 9 9
23 22 17 15 12 13 14 16 18 18 19 18 19 19 17 16 14 14 16 17 18 20 20 21 22 22 20 18 18 16 15 13 11 12 16 15 13 13 13 13 12 12 13 12 12 12 11 8 8 6 5 3 2 5
20 19 16 14 13 14 16 18 19 18 18 19 17 17 16 18 18 15 14 17 18 20 22 21 20 20 22 21 21 22 19 13 14 15 14 13 13 12 11 10 10 11 11 11 10 7 5 6 6 5 4 1 -0 -1
17 16 16 15 14 14 16 19 18 17 18 18 16 15 16 15 17 15 11 12 18 20 19 19 18 18 17 17 17 16 16 14 16 19 20 19 18 15 11 10 11 10 9 9 8 5 3 1 2 0 -2 -4 -3 -1

GFSWCAN_sfc_dewp_114.txt.gz
Dewpoint
52 53 53 53 53 53 53 51 49 45 44 44 44 46 47 47 48 47 44 45 42 35 34 32 31 27 26 25 23 26 25 26 24 23 26 24 18 21 19 19 19 20 19 18 18 16 13 29 31 28 30 33 34 34
52 52 53 53 53 53 53 51 49 47 45 44 44 45 46 46 48 46 43 46 44 41 34 32 32 31 31 31 30 27 26 25 27 25 28 28 24 24 20 15 22 18 18 21 19 21 25 31 31 33 33 32 33 32
52 52 52 52 53 53 52 51 49 47 46 45 44 45 45 45 47 47 43 46 44 38 35 32 31 31 31 32 32 30 27 29 28 32 31 28 23 26 18 20 20 23 23 21 22 23 26 29 33 32 34 31 29 29
51 52 52 52 52 52 52 51 49 47 45 43 44 45 46 46 48 46 43 43 41 38 35 30 31 31 32 32 33 32 30 30 30 31 31 29 24 25 22 20 20 20 24 23 22 23 28 27 29 32 30 30 30 30
51 51 52 52 52 52 52 50 48 47 45 44 45 46 47 47 47 48 47 42 41 37 33 30 30 31 31 32 32 33 31 30 30 29 28 27 25 23 22 22 20 23 23 22 20 23 25 27 28 30 30 29 29 28
51 51 51 52 52 52 51 49 48 46 46 46 46 47 47 47 47 45 40 43 41 38 38 31 31 30 30 31 31 31 32 30 31 31 29 27 27 26 23 22 20 18 19 19 19 25 26 28 29 29 29 28 28 28
51 51 51 51 51 51 50 48 47 46 46 46 47 47 47 47 46 42 40 41 42 40 34 32 30 30 30 30 31 31 31 32 32 31 28 27 27 27 25 23 19 19 19 23 24 28 27 29 29 29 27 28 31 34
51 51 51 51 51 51 50 48 46 46 46 46 46 47 47 47 45 42 43 43 42 36 35 32 28 27 30 28 29 32 31 31 31 30 29 26 26 26 23 25 21 20 21 24 24 27 28 29 28 28 30 31 33 32
50 50 51 51 51 50 49 47 46 47 47 47 47 47 45 43 39 41 41 40 40 38 33 32 27 24 30 29 31 30 31 27 30 27 27 27 25 22 22 22 22 21 23 24 25 29 29 29 28 29 30 32 33 32
50 50 50 51 51 49 48 47 47 47 47 47 44 41 36 40 43 42 39 35 35 36 35 30 31 27 28 28 28 28 29 28 22 26 28 25 24 25 25 26 23 22 24 26 27 28 30 30 28 28 29 31 32 33
50 50 50 50 49 48 47 47 47 47 46 42 39 36 42 44 41 38 32 30 31 31 33 31 29 26 29 26 28 29 24 26 17 24 22 22 23 25 25 25 25 24 25 28 29 30 30 31 29 28 30 32 34 34
49 49 50 49 48 47 46 47 47 44 42 40 40 42 40 37 35 31 30 30 30 27 32 30 29 30 29 31 28 26 24 22 18 26 20 19 25 26 25 25 24 23 26 28 29 30 31 29 29 29 31 32 33 33
49 49 49 48 47 46 46 47 47 44 43 42 38 34 33 32 27 27 23 26 28 31 29 29 26 28 29 31 30 28 24 21 26 20 20 23 28 27 24 25 24 26 29 30 31 31 30 31 32 32 31 31 33 33
49 48 47 46 46 46 46 46 45 44 41 34 31 27 27 26 26 27 26 28 31 30 30 29 28 29 30 29 29 26 26 24 18 17 19 24 25 25 27 26 26 28 31 31 32 32 32 32 33 34 33 33 33 31
47 46 46 45 46 46 46 45 45 43 38 32 32 27 27 28 29 30 29 29 30 31 30 29 29 29 29 28 28 27 20 16 19 19 26 28 26 26 26 26 28 30 31 32 31 31 33 33 33 35 33 29 23 19
46 45 44 45 45 45 45 45 44 42 35 32 32 31 31 28 29 24 26 28 32 30 30 31 28 28 26 29 23 19 16 15 20 28 32 27 26 26 27 29 30 31 32 32 31 32 31 32 31 31 26 25 24 21
45 41 44 44 45 45 45 43 41 35 31 31 29 31 30 29 29 29 31 31 31 30 27 29 25 22 25 19 19 23 21 26 31 31 30 27 26 27 31 31 32 33 32 31 31 31 31 31 31 24 24 26 28 28
41 42 44 45 45 44 42 35 33 32 29 32 29 30 30 30 30 30 31 31 31 29 31 29 26 19 20 18 20 25 28 30 30 29 29 29 28 30 32 31 32 32 32 31 31 31 29 25 25 26 26 27 27 24
42 43 45 45 42 36 32 30 32 29 31 32 32 32 32 30 30 30 30 31 33 32 28 30 29 25 23 25 26 31 31 28 27 27 29 30 31 31 31 31 31 31 31 29 29 29 29 28 28 28 27 26 24 23
44 45 44 43 40 34 30 30 33 30 27 30 32 30 30 27 30 31 29 31 33 31 30 27 27 28 24 26 28 29 31 28 27 27 29 31 32 30 30 31 31 30 30 29 29 30 28 27 26 26 25 25 23 21
43 43 42 37 33 33 32 31 31 31 29 27 30 28 27 29 29 30 29 33 29 29 30 28 25 23 27 26 27 30 30 27 26 27 29 31 32 30 29 29 30 30 29 29 28 28 28 26 24 23 18 24 23 21
40 40 35 35 31 30 28 29 29 30 28 29 29 27 26 24 24 29 30 28 29 30 31 26 26 28 28 27 29 30 30 30 28 29 32 33 30 30 30 30 30 28 28 29 28 28 28 27 21 21 20 19 20 18
39 37 33 32 29 26 25 28 22 25 21 26 27 23 26 26 27 30 27 29 30 32 29 29 28 28 28 27 29 29 30 30 29 30 31 31 31 31 30 30 30 30 29 28 28 24 20 22 23 20 19 17 16 15
36 33 31 29 26 22 26 22 26 21 25 22 22 20 21 22 27 26 26 27 29 29 29 29 29 27 28 28 27 26 26 29 30 29 30 30 29 29 30 30 30 30 28 27 23 20 19 19 22 17 15 13 12 11
30 28 29 23 24 19 14 20 22 24 23 25 22 20 20 25 23 25 24 28 28 27 29 30 31 31 30 29 26 24 23 28 29 27 24 29 27 26 25 24 24 22 23 25 22 19 16 15 15 13 12 11 10 8
24 24 25 18 21 18 19 16 17 22 23 22 23 23 22 22 22 22 24 27 29 29 28 29 30 31 30 29 27 25 25 26 28 24 23 27 28 27 25 23 22 21 18 21 20 17 15 13 12 9 9 10 16 4
21 19 22 25 23 22 22 23 22 22 19 18 18 18 18 19 20 22 19 19 22 23 29 32 32 31 30 26 23 22 20 23 24 22 20 19 20 23 26 25 24 19 18 19 17 16 13 11 10 9 8 5 4 3
22 22 15 21 19 19 17 17 17 18 17 19 20 16 17 17 19 17 17 16 16 21 24 27 33 31 27 24 21 19 18 18 18 18 18 17 17 19 19 19 19 21 16 14 14 12 12 12 9 8 6 4 1 0
19 21 20 13 16 18 16 17 18 18 20 20 18 18 18 15 14 15 15 16 19 22 23 22 20 21 20 19 20 20 21 22 23 22 20 16 15 15 16 18 18 17 17 17 20 15 10 10 9 7 3 3 -0 -2
21 23 17 14 12 16 14 14 16 17 18 18 17 16 15 13 13 14 15 16 19 22 22 22 21 22 20 19 18 18 17 18 22 24 21 18 17 14 14 14 14 14 14 13 15 18 21 10 9 0 -0 -1 -1 -2
22 19 14 12 9 12 15 16 18 19 18 16 17 14 13 13 14 14 16 18 20 21 21 21 22 23 21 20 20 19 18 16 15 19 20 16 15 13 13 11 11 10 11 12 11 9 7 2 -1 -2 -2 -5 -3 -2
17 11 11 8 7 12 12 18 19 18 19 16 15 17 16 18 18 15 15 17 20 21 24 23 22 21 24 24 23 24 22 14 16 17 16 14 13 12 11 10 10 11 10 8 5 3 2 0 -1 -2 -3 -9 -10 -9
15 13 10 10 9 11 15 18 18 15 16 14 12 14 16 17 18 15 13 14 18 22 22 21 21 22 22 20 17 17 17 16 17 19 20 19 18 15 11 10 10 9 7 5 3 1 -1 -2 -4 -8 -8 -10 -10 -10

GFSWCAN_sfc_dewp_117.txt.gz
Dewpoint
53 53 53 53 53 53 54 54 52 50 47 46 46 46 46 47 47 45 41 44 40 36 35 31 30 28 26 24 22 25 24 25 23 21 22 21 17 20 17 18 19 18 16 16 17 14 7 30 31 24 25 34 35 36
53 53 53 52 53 53 53 53 52 50 48 47 46 45 46 46 48 46 43 46 45 40 36 32 31 31 30 30 29 27 25 25 26 25 23 23 22 18 18 12 22 15 19 19 18 17 20 31 28 32 32 31 33 34
53 53 53 52 52 53 53 53 52 50 48 47 45 45 46 46 46 48 43 46 45 40 37 32 31 31 31 31 32 28 27 28 27 32 27 26 21 24 17 19 18 22 23 20 19 16 25 30 32 33 34 31 30 29
52 52 52 52 52 52 53 53 52 50 48 46 45 45 46 46 47 48 42 45 43 38 32 31 31 30 32 32 32 32 30 30 30 31 25 24 21 24 20 18 19 19 23 21 22 23 24 26 31 32 30 30 29 29
52 52 52 52 52 52 52 52 52 50 48 47 46 46 47 48 48 48 47 44 43 37 30 29 30 30 31 31 32 32 31 29 29 26 25 25 26 23 22 22 20 22 22 20 16 22 21 24 28 32 30 30 30 28
51 51 51 51 52 52 52 52 52 50 48 47 46 47 47 47 48 45 40 44 43 39 33 25 30 29 30 31 31 32 32 30 30 29 28 28 28 24 21 20 22 20 23 23 19 25 25 29 29 30 29 29 28 28
51 51 51 51 52 52 52 52 51 49 48 47 47 47 47 47 43 42 40 41 43 39 34 31 27 29 30 30 30 30 30 30 30 29 27 26 26 25 20 21 19 22 20 20 23 27 27 28 28 29 28 28 31 31
51 51 51 51 51 51 52 52 50 49 47 47 47 47 47 47 44 40 43 45 42 36 35 31 26 26 29 27 27 31 29 29 29 28 29 26 26 25 23 24 22 18 20 22 26 26 25 28 29 27 29 31 32 32
50 51 51 51 51 51 52 51 50 48 47 47 47 47 45 42 38 37 42 41 41 38 34 32 24 18 29 28 29 28 29 24 28 25 27 27 24 22 22 20 21 23 22 23 26 29 28 28 27 28 30 32 32 32
50 50 50 50 51 51 51 51 49 48 47 47 44 40 36 40 44 41 36 35 35 36 36 30 29 25 27 27 25 25 27 25 19 25 27 25 24 25 25 24 21 23 22 25 27 27 28 27 27 29 29 32 32 32
50 50 50 50 50 50 51 49 48 47 47 42 39 36 41 44 40 35 33 32 32 29 32 32 29 25 29 24 24 28 21 21 11 20 22 18 22 26 25 25 24 24 24 25 25 27 29 29 28 28 29 31 32 32
50 49 50 50 50 50 50 48 47 44 42 40 40 42 41 37 34 30 29 30 29 26 32 30 29 28 27 30 26 26 23 22 17 24 18 14 22 28 26 25 25 24 24 25 29 29 30 30 29 29 31 32 33 33
49 49 49 49 50 50 48 46 46 45 43 42 37 33 32 32 27 25 23 27 28 30 32 27 25 28 29 28 26 24 22 22 24 15 17 19 24 27 26 25 24 24 27 28 30 31 31 30 30 31 31 32 33 33
49 49 49 49 50 48 46 46 46 43 39 33 31 26 27 25 25 26 24 26 30 29 29 29 25 26 28 29 27 24 24 22 13 13 15 21 24 24 26 26 25 27 29 30 31 30 31 31 31 31 31 32 32 31
49 49 49 49 48 46 46 46 45 41 37 32 32 25 27 26 23 25 27 28 30 31 30 27 26 26 24 27 26 23 17 15 17 15 22 26 25 26 26 26 27 29 30 30 31 31 31 31 31 31 32 32 31 30
49 49 48 48 46 46 46 45 43 40 34 32 31 28 28 26 26 25 21 26 31 31 30 28 24 26 27 26 22 19 14 13 17 23 27 28 26 26 26 27 29 31 31 32 32 32 31 31 31 32 30 26 23 20
48 42 47 46 45 45 45 41 39 32 32 30 29 32 26 24 28 25 29 30 31 30 25 24 22 23 25 23 21 21 16 20 24 27 29 28 27 27 28 29 31 32 32 31 31 31 32 31 31 29 26 25 26 24
40 45 45 45 44 42 41 38 33 32 28 29 25 27 30 28 28 28 29 31 31 28 26 23 27 22 20 13 16 22 24 25 26 29 29 28 27 28 29 30 32 31 31 31 30 30 29 29 30 27 24 25 25 24
42 44 45 44 41 35 32 31 32 28 27 26 23 29 29 28 29 29 30 31 30 30 27 23 23 23 22 23 22 23 26 27 25 27 28 28 28 31 31 31 31 30 30 30 30 30 30 28 27 27 27 26 25 22
45 44 43 43 40 33 30 28 33 30 25 27 27 29 27 26 27 27 29 30 28 24 25 25 25 27 27 26 26 28 29 28 26 26 29 29 31 31 32 32 31 30 29 27 27 29 26 26 26 27 27 26 24 22
42 42 42 41 33 32 31 29 30 31 30 25 30 28 27 27 28 24 23 29 31 29 28 28 28 28 24 26 27 27 28 28 26 26 29 30 31 31 31 31 31 30 30 29 28 27 28 26 25 24 22 25 22 21
40 42 34 36 31 30 28 30 28 29 28 28 29 28 26 25 27 29 30 30 28 28 28 27 29 30 26 26 27 29 30 28 27 29 32 33 30 30 30 30 30 29 29 29 28 28 25 24 22 23 22 21 20 17
39 37 33 32 28 26 24 30 26 24 25 26 28 25 23 22 22 29 27 26 25 25 29 26 25 25 26 25 27 28 30 29 29 31 32 31 31 31 31 30 30 29 28 28 28 28 28 28 25 21 21 17 16 15
38 33 30 28 25 21 26 24 25 23 25 24 23 20 20 26 29 26 23 19 26 27 28 28 28 27 26 27 28 28 28 29 30 31 31 31 30 30 30 30 30 29 29 28 28 24 23 22 23 19 16 14 12 11
30 28 28 23 23 20 19 20 19 14 13 13 9 17 22 22 20 20 15 19 26 28 30 30 30 31 30 30 29 27 25 30 30 29 30 31 30 29 28 28 26 26 28 26 23 21 21 19 17 15 14 13 11 7
23 24 23 21 21 15 15 15 12 11 12 9 11 11 14 17 17 15 19 23 27 28 30 30 31 31 32 31 29 28 28 28 30 29 27 30 29 29 27 25 24 23 21 26 23 20 18 16 14 12 12 15 18 5
20 19 22 24 22 21 20 18 18 15 10 13 14 15 20 19 15 19 20 18 19 22 24 31 32 32 33 31 28 26 27 30 28 25 22 23 24 27 29 28 27 25 22 24 22 20 17 14 12 11 7 4 3 2
23 20 18 20 15 14 13 14 13 15 17 17 17 15 13 14 19 18 16 13 13 19 24 32 34 33 29 27 23 21 20 20 20 21 21 19 19 21 22 22 23 25 22 21 19 17 15 14 11 9 7 6 0 -3
15 21 19 11 10 10 11 15 15 15 18 19 15 14 15 15 12 10 12 13 17 20 24 23 23 24 22 22 23 23 23 25 25 25 23 19 19 17 20 22 20 20 21 20 21 16 11 11 10 8 5 4 -0 -5
16 18 13 3 8 9 8 10 9 13 16 16 16 12 12 10 10 11 13 16 18 21 22 23 23 24 22 21 19 20 19 20 24 26 23 22 21 16 18 18 17 18 18 17 17 18 21 14 12 1 1 -0 -2 -3
18 13 8 6 4 7 9 11 15 18 15 10 10 10 9 8 11 13 14 16 19 22 22 22 24 25 24 23 23 22 22 18 20 22 22 19 17 17 17 17 17 17 18 17 14 11 10 3 2 1 0 -1 0 -1
16 9 6 4 4 9 14 16 17 15 16 18 17 16 10 10 13 13 14 14 17 20 23 24 23 24 27 27 27 27 26 18 21 20 19 17 16 15 14 14 15 14 13 10 9 5 4 3 0 -0 -2 -4 -7 -10
14 12 11 9 12 9 13 12 16 14 17 17 14 12 15 12 14 13 13 14 18 21 23 24 24 25 25 24 22 22 22 20 21 22 22 20 19 17 14 13 13 11 9 7 5 4 2 -1 -2 -4 -5 -6 -9 -12